<?xml version="1.0" encoding="UTF-8" standalone="no" ?>
<gpx xmlns="http://www.topografix.com/GPX/1/1" xmlns:xsi="http://www.w3.org/2001/XMLSchema-instance" xsi:schemaLocation="http://www.topografix.com/GPX/1/1 http://www.topografix.com/GPX/1/1/gpx.xsd" version="1.1" creator="VisuGPX - https://www.visugpx.com">
  <metadata>
    <name>Sainte Colombe</name>
    <desc><![CDATA[Trace AlpineQuest 12/05/2020 11:55:23]]></desc>
  </metadata>
  <trk>
    <name><![CDATA[Sainte Colombe_1]]></name>
    <trkseg>
      <trkpt lat="46.53776" lon="4.53368">
        <ele>244.60000610352</ele>
        <time>2020-05-12T09:55:23Z</time>
      </trkpt>
      <trkpt lat="46.53775" lon="4.53358">
        <ele>240.60000610352</ele>
        <time>2020-05-12T09:55:33Z</time>
      </trkpt>
      <trkpt lat="46.53772" lon="4.53349">
        <ele>239.60000610352</ele>
        <time>2020-05-12T09:55:39Z</time>
      </trkpt>
      <trkpt lat="46.53769" lon="4.53341">
        <ele>238.60000610352</ele>
        <time>2020-05-12T09:55:56Z</time>
      </trkpt>
      <trkpt lat="46.53772" lon="4.5335">
        <ele>236.60000610352</ele>
        <time>2020-05-12T09:56:05Z</time>
      </trkpt>
      <trkpt lat="46.53776" lon="4.53358">
        <ele>234.60000610352</ele>
        <time>2020-05-12T09:56:11Z</time>
      </trkpt>
      <trkpt lat="46.53778" lon="4.53367">
        <ele>234.60000610352</ele>
        <time>2020-05-12T09:56:19Z</time>
      </trkpt>
      <trkpt lat="46.53786" lon="4.53367">
        <ele>238.60000610352</ele>
        <time>2020-05-12T09:56:37Z</time>
      </trkpt>
      <trkpt lat="46.53779" lon="4.53366">
        <ele>240.60000610352</ele>
        <time>2020-05-12T09:58:02Z</time>
      </trkpt>
      <trkpt lat="46.53777" lon="4.53357">
        <ele>240.60000610352</ele>
        <time>2020-05-12T09:58:08Z</time>
      </trkpt>
      <trkpt lat="46.53774" lon="4.53347">
        <ele>240.60000610352</ele>
        <time>2020-05-12T09:58:14Z</time>
      </trkpt>
      <trkpt lat="46.53773" lon="4.53337">
        <ele>240.60000610352</ele>
        <time>2020-05-12T09:58:20Z</time>
      </trkpt>
      <trkpt lat="46.53767" lon="4.53329">
        <ele>238.60000610352</ele>
        <time>2020-05-12T09:58:34Z</time>
      </trkpt>
      <trkpt lat="46.53759" lon="4.53327">
        <ele>239.60000610352</ele>
        <time>2020-05-12T09:58:40Z</time>
      </trkpt>
      <trkpt lat="46.53751" lon="4.53326">
        <ele>239.60000610352</ele>
        <time>2020-05-12T09:58:45Z</time>
      </trkpt>
      <trkpt lat="46.53743" lon="4.53327">
        <ele>240.60000610352</ele>
        <time>2020-05-12T09:58:50Z</time>
      </trkpt>
      <trkpt lat="46.53735" lon="4.53328">
        <ele>241.60000610352</ele>
        <time>2020-05-12T09:58:55Z</time>
      </trkpt>
      <trkpt lat="46.53727" lon="4.53327">
        <ele>240.60000610352</ele>
        <time>2020-05-12T09:59:00Z</time>
      </trkpt>
      <trkpt lat="46.53719" lon="4.53328">
        <ele>240.60000610352</ele>
        <time>2020-05-12T09:59:05Z</time>
      </trkpt>
      <trkpt lat="46.53711" lon="4.53327">
        <ele>240.60000610352</ele>
        <time>2020-05-12T09:59:11Z</time>
      </trkpt>
      <trkpt lat="46.53703" lon="4.53327">
        <ele>240.60000610352</ele>
        <time>2020-05-12T09:59:16Z</time>
      </trkpt>
      <trkpt lat="46.53695" lon="4.53326">
        <ele>240.60000610352</ele>
        <time>2020-05-12T09:59:21Z</time>
      </trkpt>
      <trkpt lat="46.53687" lon="4.53325">
        <ele>240.60000610352</ele>
        <time>2020-05-12T09:59:26Z</time>
      </trkpt>
      <trkpt lat="46.5368" lon="4.53322">
        <ele>238.60000610352</ele>
        <time>2020-05-12T09:59:31Z</time>
      </trkpt>
      <trkpt lat="46.53671" lon="4.53318">
        <ele>239.60000610352</ele>
        <time>2020-05-12T09:59:36Z</time>
      </trkpt>
      <trkpt lat="46.53663" lon="4.53314">
        <ele>240.60000610352</ele>
        <time>2020-05-12T09:59:41Z</time>
      </trkpt>
      <trkpt lat="46.53656" lon="4.53311">
        <ele>241.60000610352</ele>
        <time>2020-05-12T09:59:46Z</time>
      </trkpt>
      <trkpt lat="46.53648" lon="4.53305">
        <ele>242.60000610352</ele>
        <time>2020-05-12T09:59:51Z</time>
      </trkpt>
      <trkpt lat="46.53642" lon="4.533">
        <ele>243.60000610352</ele>
        <time>2020-05-12T09:59:56Z</time>
      </trkpt>
      <trkpt lat="46.53635" lon="4.53293">
        <ele>244.60000610352</ele>
        <time>2020-05-12T10:00:01Z</time>
      </trkpt>
      <trkpt lat="46.53628" lon="4.53289">
        <ele>243.60000610352</ele>
        <time>2020-05-12T10:00:06Z</time>
      </trkpt>
      <trkpt lat="46.53622" lon="4.53283">
        <ele>243.60000610352</ele>
        <time>2020-05-12T10:00:11Z</time>
      </trkpt>
      <trkpt lat="46.53616" lon="4.53278">
        <ele>244.60000610352</ele>
        <time>2020-05-12T10:00:16Z</time>
      </trkpt>
      <trkpt lat="46.5361" lon="4.53274">
        <ele>244.60000610352</ele>
        <time>2020-05-12T10:00:21Z</time>
      </trkpt>
      <trkpt lat="46.53603" lon="4.53266">
        <ele>246.60000610352</ele>
        <time>2020-05-12T10:00:28Z</time>
      </trkpt>
      <trkpt lat="46.53593" lon="4.53259">
        <ele>245.60000610352</ele>
        <time>2020-05-12T10:00:33Z</time>
      </trkpt>
      <trkpt lat="46.53587" lon="4.53255">
        <ele>247.60000610352</ele>
        <time>2020-05-12T10:00:38Z</time>
      </trkpt>
      <trkpt lat="46.53579" lon="4.53249">
        <ele>248.60000610352</ele>
        <time>2020-05-12T10:00:43Z</time>
      </trkpt>
      <trkpt lat="46.53571" lon="4.53244">
        <ele>249.60000610352</ele>
        <time>2020-05-12T10:00:48Z</time>
      </trkpt>
      <trkpt lat="46.53565" lon="4.53239">
        <ele>249.60000610352</ele>
        <time>2020-05-12T10:00:53Z</time>
      </trkpt>
      <trkpt lat="46.53558" lon="4.53233">
        <ele>249.60000610352</ele>
        <time>2020-05-12T10:00:58Z</time>
      </trkpt>
      <trkpt lat="46.53552" lon="4.53228">
        <ele>248.60000610352</ele>
        <time>2020-05-12T10:01:03Z</time>
      </trkpt>
      <trkpt lat="46.53546" lon="4.53224">
        <ele>247.60000610352</ele>
        <time>2020-05-12T10:01:08Z</time>
      </trkpt>
      <trkpt lat="46.5354" lon="4.53219">
        <ele>248.60000610352</ele>
        <time>2020-05-12T10:01:13Z</time>
      </trkpt>
      <trkpt lat="46.53533" lon="4.53213">
        <ele>248.60000610352</ele>
        <time>2020-05-12T10:01:18Z</time>
      </trkpt>
      <trkpt lat="46.53527" lon="4.53209">
        <ele>248.60000610352</ele>
        <time>2020-05-12T10:01:23Z</time>
      </trkpt>
      <trkpt lat="46.53519" lon="4.53203">
        <ele>248.60000610352</ele>
        <time>2020-05-12T10:01:29Z</time>
      </trkpt>
      <trkpt lat="46.53512" lon="4.53198">
        <ele>248.60000610352</ele>
        <time>2020-05-12T10:01:34Z</time>
      </trkpt>
      <trkpt lat="46.53505" lon="4.53192">
        <ele>248.59899902344</ele>
        <time>2020-05-12T10:01:39Z</time>
      </trkpt>
      <trkpt lat="46.53497" lon="4.53187">
        <ele>248.59899902344</ele>
        <time>2020-05-12T10:01:44Z</time>
      </trkpt>
      <trkpt lat="46.5349" lon="4.53183">
        <ele>249.59899902344</ele>
        <time>2020-05-12T10:01:49Z</time>
      </trkpt>
      <trkpt lat="46.53483" lon="4.53179">
        <ele>250.59899902344</ele>
        <time>2020-05-12T10:01:54Z</time>
      </trkpt>
      <trkpt lat="46.53476" lon="4.53175">
        <ele>250.59899902344</ele>
        <time>2020-05-12T10:01:59Z</time>
      </trkpt>
      <trkpt lat="46.53469" lon="4.53171">
        <ele>250.59899902344</ele>
        <time>2020-05-12T10:02:04Z</time>
      </trkpt>
      <trkpt lat="46.53462" lon="4.53167">
        <ele>250.59899902344</ele>
        <time>2020-05-12T10:02:09Z</time>
      </trkpt>
      <trkpt lat="46.53454" lon="4.53165">
        <ele>250.59899902344</ele>
        <time>2020-05-12T10:02:14Z</time>
      </trkpt>
      <trkpt lat="46.53446" lon="4.53163">
        <ele>250.59899902344</ele>
        <time>2020-05-12T10:02:19Z</time>
      </trkpt>
      <trkpt lat="46.5344" lon="4.53159">
        <ele>249.59899902344</ele>
        <time>2020-05-12T10:02:24Z</time>
      </trkpt>
      <trkpt lat="46.53434" lon="4.53152">
        <ele>249.59899902344</ele>
        <time>2020-05-12T10:02:29Z</time>
      </trkpt>
      <trkpt lat="46.53428" lon="4.53147">
        <ele>249.59899902344</ele>
        <time>2020-05-12T10:02:34Z</time>
      </trkpt>
      <trkpt lat="46.5342" lon="4.53141">
        <ele>249.59899902344</ele>
        <time>2020-05-12T10:02:39Z</time>
      </trkpt>
      <trkpt lat="46.53415" lon="4.53135">
        <ele>250.59899902344</ele>
        <time>2020-05-12T10:02:46Z</time>
      </trkpt>
      <trkpt lat="46.53411" lon="4.53126">
        <ele>250.59899902344</ele>
        <time>2020-05-12T10:02:51Z</time>
      </trkpt>
      <trkpt lat="46.53412" lon="4.53116">
        <ele>249.59899902344</ele>
        <time>2020-05-12T10:02:58Z</time>
      </trkpt>
      <trkpt lat="46.53411" lon="4.53106">
        <ele>247.59899902344</ele>
        <time>2020-05-12T10:03:03Z</time>
      </trkpt>
      <trkpt lat="46.53409" lon="4.53096">
        <ele>247.59899902344</ele>
        <time>2020-05-12T10:03:08Z</time>
      </trkpt>
      <trkpt lat="46.53406" lon="4.53087">
        <ele>248.59899902344</ele>
        <time>2020-05-12T10:03:13Z</time>
      </trkpt>
      <trkpt lat="46.53402" lon="4.53074">
        <ele>248.59899902344</ele>
        <time>2020-05-12T10:03:18Z</time>
      </trkpt>
      <trkpt lat="46.53401" lon="4.53065">
        <ele>248.59899902344</ele>
        <time>2020-05-12T10:03:23Z</time>
      </trkpt>
      <trkpt lat="46.53401" lon="4.53055">
        <ele>250.59899902344</ele>
        <time>2020-05-12T10:03:28Z</time>
      </trkpt>
      <trkpt lat="46.53399" lon="4.53045">
        <ele>248.59899902344</ele>
        <time>2020-05-12T10:03:33Z</time>
      </trkpt>
      <trkpt lat="46.53397" lon="4.53035">
        <ele>245.59899902344</ele>
        <time>2020-05-12T10:03:39Z</time>
      </trkpt>
      <trkpt lat="46.53396" lon="4.53024">
        <ele>244.59899902344</ele>
        <time>2020-05-12T10:03:46Z</time>
      </trkpt>
      <trkpt lat="46.53394" lon="4.53014">
        <ele>245.59899902344</ele>
        <time>2020-05-12T10:03:51Z</time>
      </trkpt>
      <trkpt lat="46.53392" lon="4.53004">
        <ele>245.59899902344</ele>
        <time>2020-05-12T10:03:56Z</time>
      </trkpt>
      <trkpt lat="46.5339" lon="4.52994">
        <ele>245.59899902344</ele>
        <time>2020-05-12T10:04:01Z</time>
      </trkpt>
      <trkpt lat="46.53386" lon="4.52983">
        <ele>246.59899902344</ele>
        <time>2020-05-12T10:04:06Z</time>
      </trkpt>
      <trkpt lat="46.53384" lon="4.52972">
        <ele>247.59899902344</ele>
        <time>2020-05-12T10:04:12Z</time>
      </trkpt>
      <trkpt lat="46.53379" lon="4.52962">
        <ele>245.59899902344</ele>
        <time>2020-05-12T10:04:17Z</time>
      </trkpt>
      <trkpt lat="46.53377" lon="4.52953">
        <ele>248.59899902344</ele>
        <time>2020-05-12T10:04:23Z</time>
      </trkpt>
      <trkpt lat="46.53374" lon="4.52943">
        <ele>250.59899902344</ele>
        <time>2020-05-12T10:04:28Z</time>
      </trkpt>
      <trkpt lat="46.53369" lon="4.52932">
        <ele>248.59899902344</ele>
        <time>2020-05-12T10:04:33Z</time>
      </trkpt>
      <trkpt lat="46.53366" lon="4.52923">
        <ele>246.59899902344</ele>
        <time>2020-05-12T10:04:38Z</time>
      </trkpt>
      <trkpt lat="46.53362" lon="4.52914">
        <ele>246.59899902344</ele>
        <time>2020-05-12T10:04:43Z</time>
      </trkpt>
      <trkpt lat="46.53358" lon="4.52904">
        <ele>247.59899902344</ele>
        <time>2020-05-12T10:04:48Z</time>
      </trkpt>
      <trkpt lat="46.53354" lon="4.52893">
        <ele>248.59899902344</ele>
        <time>2020-05-12T10:04:53Z</time>
      </trkpt>
      <trkpt lat="46.5335" lon="4.52882">
        <ele>249.59899902344</ele>
        <time>2020-05-12T10:04:58Z</time>
      </trkpt>
      <trkpt lat="46.53346" lon="4.52872">
        <ele>251.59899902344</ele>
        <time>2020-05-12T10:05:03Z</time>
      </trkpt>
      <trkpt lat="46.53342" lon="4.52862">
        <ele>253.59899902344</ele>
        <time>2020-05-12T10:05:08Z</time>
      </trkpt>
      <trkpt lat="46.53337" lon="4.52853">
        <ele>253.59899902344</ele>
        <time>2020-05-12T10:05:13Z</time>
      </trkpt>
      <trkpt lat="46.53329" lon="4.52843">
        <ele>254.59899902344</ele>
        <time>2020-05-12T10:05:18Z</time>
      </trkpt>
      <trkpt lat="46.53323" lon="4.52835">
        <ele>254.59899902344</ele>
        <time>2020-05-12T10:05:23Z</time>
      </trkpt>
      <trkpt lat="46.53317" lon="4.5283">
        <ele>255.59899902344</ele>
        <time>2020-05-12T10:05:28Z</time>
      </trkpt>
      <trkpt lat="46.53312" lon="4.52824">
        <ele>255.59899902344</ele>
        <time>2020-05-12T10:05:33Z</time>
      </trkpt>
      <trkpt lat="46.53305" lon="4.52819">
        <ele>255.59899902344</ele>
        <time>2020-05-12T10:05:38Z</time>
      </trkpt>
      <trkpt lat="46.53298" lon="4.52814">
        <ele>256.59899902344</ele>
        <time>2020-05-12T10:05:44Z</time>
      </trkpt>
      <trkpt lat="46.5329" lon="4.52808">
        <ele>256.59899902344</ele>
        <time>2020-05-12T10:05:49Z</time>
      </trkpt>
      <trkpt lat="46.53284" lon="4.52803">
        <ele>256.59899902344</ele>
        <time>2020-05-12T10:05:56Z</time>
      </trkpt>
      <trkpt lat="46.53277" lon="4.52797">
        <ele>253.59899902344</ele>
        <time>2020-05-12T10:06:01Z</time>
      </trkpt>
      <trkpt lat="46.53271" lon="4.52792">
        <ele>251.59899902344</ele>
        <time>2020-05-12T10:06:07Z</time>
      </trkpt>
      <trkpt lat="46.53263" lon="4.52786">
        <ele>251.59899902344</ele>
        <time>2020-05-12T10:06:12Z</time>
      </trkpt>
      <trkpt lat="46.53258" lon="4.52779">
        <ele>251.59899902344</ele>
        <time>2020-05-12T10:06:20Z</time>
      </trkpt>
      <trkpt lat="46.53249" lon="4.52772">
        <ele>251.59800720215</ele>
        <time>2020-05-12T10:06:25Z</time>
      </trkpt>
      <trkpt lat="46.53236" lon="4.52763">
        <ele>250.59800720215</ele>
        <time>2020-05-12T10:06:30Z</time>
      </trkpt>
      <trkpt lat="46.5323" lon="4.52756">
        <ele>251.59800720215</ele>
        <time>2020-05-12T10:06:40Z</time>
      </trkpt>
      <trkpt lat="46.53225" lon="4.52743">
        <ele>252.59800720215</ele>
        <time>2020-05-12T10:06:45Z</time>
      </trkpt>
      <trkpt lat="46.53228" lon="4.52734">
        <ele>252.59800720215</ele>
        <time>2020-05-12T10:06:50Z</time>
      </trkpt>
      <trkpt lat="46.53229" lon="4.52724">
        <ele>254.59800720215</ele>
        <time>2020-05-12T10:06:55Z</time>
      </trkpt>
      <trkpt lat="46.53231" lon="4.52714">
        <ele>253.59800720215</ele>
        <time>2020-05-12T10:07:00Z</time>
      </trkpt>
      <trkpt lat="46.53232" lon="4.52704">
        <ele>254.59800720215</ele>
        <time>2020-05-12T10:07:05Z</time>
      </trkpt>
      <trkpt lat="46.53233" lon="4.52694">
        <ele>254.59800720215</ele>
        <time>2020-05-12T10:07:10Z</time>
      </trkpt>
      <trkpt lat="46.53233" lon="4.52681">
        <ele>254.59800720215</ele>
        <time>2020-05-12T10:07:15Z</time>
      </trkpt>
      <trkpt lat="46.53232" lon="4.5267">
        <ele>254.59800720215</ele>
        <time>2020-05-12T10:07:20Z</time>
      </trkpt>
      <trkpt lat="46.53231" lon="4.52659">
        <ele>254.59800720215</ele>
        <time>2020-05-12T10:07:25Z</time>
      </trkpt>
      <trkpt lat="46.53229" lon="4.52648">
        <ele>255.59800720215</ele>
        <time>2020-05-12T10:07:30Z</time>
      </trkpt>
      <trkpt lat="46.53228" lon="4.52636">
        <ele>254.59800720215</ele>
        <time>2020-05-12T10:07:35Z</time>
      </trkpt>
      <trkpt lat="46.53229" lon="4.52626">
        <ele>258.59799194336</ele>
        <time>2020-05-12T10:07:40Z</time>
      </trkpt>
      <trkpt lat="46.53229" lon="4.52616">
        <ele>257.59799194336</ele>
        <time>2020-05-12T10:07:45Z</time>
      </trkpt>
      <trkpt lat="46.53228" lon="4.52605">
        <ele>256.59799194336</ele>
        <time>2020-05-12T10:07:50Z</time>
      </trkpt>
      <trkpt lat="46.53228" lon="4.52596">
        <ele>255.59800720215</ele>
        <time>2020-05-12T10:07:55Z</time>
      </trkpt>
      <trkpt lat="46.53229" lon="4.52584">
        <ele>257.59799194336</ele>
        <time>2020-05-12T10:08:00Z</time>
      </trkpt>
      <trkpt lat="46.53228" lon="4.52575">
        <ele>258.59799194336</ele>
        <time>2020-05-12T10:08:05Z</time>
      </trkpt>
      <trkpt lat="46.53227" lon="4.52564">
        <ele>259.59799194336</ele>
        <time>2020-05-12T10:08:10Z</time>
      </trkpt>
      <trkpt lat="46.53226" lon="4.52554">
        <ele>258.59799194336</ele>
        <time>2020-05-12T10:08:15Z</time>
      </trkpt>
      <trkpt lat="46.53226" lon="4.52542">
        <ele>261.59799194336</ele>
        <time>2020-05-12T10:08:20Z</time>
      </trkpt>
      <trkpt lat="46.53229" lon="4.52533">
        <ele>259.59799194336</ele>
        <time>2020-05-12T10:08:28Z</time>
      </trkpt>
      <trkpt lat="46.53233" lon="4.52525">
        <ele>261.59799194336</ele>
        <time>2020-05-12T10:08:33Z</time>
      </trkpt>
      <trkpt lat="46.53238" lon="4.52517">
        <ele>260.59799194336</ele>
        <time>2020-05-12T10:08:39Z</time>
      </trkpt>
      <trkpt lat="46.53244" lon="4.52516">
        <ele>255.59800720215</ele>
        <time>2020-05-12T10:08:45Z</time>
      </trkpt>
      <trkpt lat="46.53251" lon="4.52509">
        <ele>253.59800720215</ele>
        <time>2020-05-12T10:08:50Z</time>
      </trkpt>
      <trkpt lat="46.53259" lon="4.52506">
        <ele>253.59800720215</ele>
        <time>2020-05-12T10:08:55Z</time>
      </trkpt>
      <trkpt lat="46.53265" lon="4.52501">
        <ele>253.59800720215</ele>
        <time>2020-05-12T10:09:02Z</time>
      </trkpt>
      <trkpt lat="46.53272" lon="4.52497">
        <ele>251.59800720215</ele>
        <time>2020-05-12T10:09:08Z</time>
      </trkpt>
      <trkpt lat="46.53278" lon="4.5249">
        <ele>252.59800720215</ele>
        <time>2020-05-12T10:09:13Z</time>
      </trkpt>
      <trkpt lat="46.53284" lon="4.52482">
        <ele>254.59800720215</ele>
        <time>2020-05-12T10:09:18Z</time>
      </trkpt>
      <trkpt lat="46.53288" lon="4.52473">
        <ele>255.59800720215</ele>
        <time>2020-05-12T10:09:23Z</time>
      </trkpt>
      <trkpt lat="46.5329" lon="4.5246">
        <ele>257.59799194336</ele>
        <time>2020-05-12T10:09:28Z</time>
      </trkpt>
      <trkpt lat="46.53293" lon="4.5245">
        <ele>258.59799194336</ele>
        <time>2020-05-12T10:09:34Z</time>
      </trkpt>
      <trkpt lat="46.53295" lon="4.5244">
        <ele>255.59800720215</ele>
        <time>2020-05-12T10:09:40Z</time>
      </trkpt>
      <trkpt lat="46.53297" lon="4.5243">
        <ele>254.59800720215</ele>
        <time>2020-05-12T10:09:45Z</time>
      </trkpt>
      <trkpt lat="46.53298" lon="4.52419">
        <ele>253.59800720215</ele>
        <time>2020-05-12T10:09:52Z</time>
      </trkpt>
      <trkpt lat="46.53301" lon="4.52406">
        <ele>254.59800720215</ele>
        <time>2020-05-12T10:09:57Z</time>
      </trkpt>
      <trkpt lat="46.53302" lon="4.52391">
        <ele>257.59799194336</ele>
        <time>2020-05-12T10:10:02Z</time>
      </trkpt>
      <trkpt lat="46.53305" lon="4.52381">
        <ele>259.59799194336</ele>
        <time>2020-05-12T10:10:07Z</time>
      </trkpt>
      <trkpt lat="46.53307" lon="4.52372">
        <ele>260.59799194336</ele>
        <time>2020-05-12T10:10:12Z</time>
      </trkpt>
      <trkpt lat="46.53308" lon="4.52362">
        <ele>260.59799194336</ele>
        <time>2020-05-12T10:10:18Z</time>
      </trkpt>
      <trkpt lat="46.53308" lon="4.52351">
        <ele>260.59799194336</ele>
        <time>2020-05-12T10:10:25Z</time>
      </trkpt>
      <trkpt lat="46.53308" lon="4.5234">
        <ele>261.59799194336</ele>
        <time>2020-05-12T10:10:31Z</time>
      </trkpt>
      <trkpt lat="46.53304" lon="4.52331">
        <ele>262.59799194336</ele>
        <time>2020-05-12T10:10:44Z</time>
      </trkpt>
      <trkpt lat="46.53298" lon="4.52323">
        <ele>260.59799194336</ele>
        <time>2020-05-12T10:10:49Z</time>
      </trkpt>
      <trkpt lat="46.53291" lon="4.52317">
        <ele>262.59799194336</ele>
        <time>2020-05-12T10:11:04Z</time>
      </trkpt>
      <trkpt lat="46.53281" lon="4.52314">
        <ele>266.59799194336</ele>
        <time>2020-05-12T10:11:09Z</time>
      </trkpt>
      <trkpt lat="46.53271" lon="4.52305">
        <ele>264.59799194336</ele>
        <time>2020-05-12T10:11:14Z</time>
      </trkpt>
      <trkpt lat="46.53266" lon="4.52298">
        <ele>263.59799194336</ele>
        <time>2020-05-12T10:11:21Z</time>
      </trkpt>
      <trkpt lat="46.5326" lon="4.52293">
        <ele>261.59799194336</ele>
        <time>2020-05-12T10:11:29Z</time>
      </trkpt>
      <trkpt lat="46.53249" lon="4.52284">
        <ele>260.59799194336</ele>
        <time>2020-05-12T10:11:34Z</time>
      </trkpt>
      <trkpt lat="46.53237" lon="4.52273">
        <ele>262.59799194336</ele>
        <time>2020-05-12T10:11:39Z</time>
      </trkpt>
      <trkpt lat="46.53233" lon="4.52265">
        <ele>263.59799194336</ele>
        <time>2020-05-12T10:11:46Z</time>
      </trkpt>
      <trkpt lat="46.53225" lon="4.5226">
        <ele>264.59799194336</ele>
        <time>2020-05-12T10:11:51Z</time>
      </trkpt>
      <trkpt lat="46.53219" lon="4.52252">
        <ele>265.59799194336</ele>
        <time>2020-05-12T10:11:57Z</time>
      </trkpt>
      <trkpt lat="46.53213" lon="4.52247">
        <ele>264.59799194336</ele>
        <time>2020-05-12T10:12:02Z</time>
      </trkpt>
      <trkpt lat="46.53207" lon="4.52243">
        <ele>264.59799194336</ele>
        <time>2020-05-12T10:12:09Z</time>
      </trkpt>
      <trkpt lat="46.53202" lon="4.52235">
        <ele>264.59799194336</ele>
        <time>2020-05-12T10:12:14Z</time>
      </trkpt>
      <trkpt lat="46.53196" lon="4.52229">
        <ele>265.59799194336</ele>
        <time>2020-05-12T10:12:20Z</time>
      </trkpt>
      <trkpt lat="46.5319" lon="4.52227">
        <ele>264.59799194336</ele>
        <time>2020-05-12T10:12:31Z</time>
      </trkpt>
      <trkpt lat="46.53182" lon="4.52222">
        <ele>261.59799194336</ele>
        <time>2020-05-12T10:12:36Z</time>
      </trkpt>
      <trkpt lat="46.53176" lon="4.52217">
        <ele>261.59799194336</ele>
        <time>2020-05-12T10:12:43Z</time>
      </trkpt>
      <trkpt lat="46.53168" lon="4.52213">
        <ele>261.59799194336</ele>
        <time>2020-05-12T10:12:48Z</time>
      </trkpt>
      <trkpt lat="46.53163" lon="4.52204">
        <ele>262.59799194336</ele>
        <time>2020-05-12T10:12:53Z</time>
      </trkpt>
      <trkpt lat="46.53158" lon="4.52197">
        <ele>263.59799194336</ele>
        <time>2020-05-12T10:12:58Z</time>
      </trkpt>
      <trkpt lat="46.53152" lon="4.5219">
        <ele>263.59799194336</ele>
        <time>2020-05-12T10:13:07Z</time>
      </trkpt>
      <trkpt lat="46.53149" lon="4.52176">
        <ele>266.59799194336</ele>
        <time>2020-05-12T10:13:12Z</time>
      </trkpt>
      <trkpt lat="46.53147" lon="4.52165">
        <ele>264.59799194336</ele>
        <time>2020-05-12T10:13:18Z</time>
      </trkpt>
      <trkpt lat="46.53145" lon="4.52156">
        <ele>264.59799194336</ele>
        <time>2020-05-12T10:13:23Z</time>
      </trkpt>
      <trkpt lat="46.53142" lon="4.52146">
        <ele>264.59799194336</ele>
        <time>2020-05-12T10:13:29Z</time>
      </trkpt>
      <trkpt lat="46.53141" lon="4.52135">
        <ele>265.59799194336</ele>
        <time>2020-05-12T10:13:34Z</time>
      </trkpt>
      <trkpt lat="46.53141" lon="4.52125">
        <ele>266.59799194336</ele>
        <time>2020-05-12T10:13:40Z</time>
      </trkpt>
      <trkpt lat="46.5314" lon="4.52114">
        <ele>265.59799194336</ele>
        <time>2020-05-12T10:13:46Z</time>
      </trkpt>
      <trkpt lat="46.53139" lon="4.52104">
        <ele>265.59799194336</ele>
        <time>2020-05-12T10:13:52Z</time>
      </trkpt>
      <trkpt lat="46.53139" lon="4.52094">
        <ele>265.59799194336</ele>
        <time>2020-05-12T10:13:57Z</time>
      </trkpt>
      <trkpt lat="46.53138" lon="4.52084">
        <ele>265.59799194336</ele>
        <time>2020-05-12T10:14:02Z</time>
      </trkpt>
      <trkpt lat="46.53138" lon="4.52074">
        <ele>265.59799194336</ele>
        <time>2020-05-12T10:14:08Z</time>
      </trkpt>
      <trkpt lat="46.53138" lon="4.52063">
        <ele>265.59799194336</ele>
        <time>2020-05-12T10:14:14Z</time>
      </trkpt>
      <trkpt lat="46.53138" lon="4.52052">
        <ele>266.59799194336</ele>
        <time>2020-05-12T10:14:19Z</time>
      </trkpt>
      <trkpt lat="46.53137" lon="4.52042">
        <ele>266.59799194336</ele>
        <time>2020-05-12T10:14:24Z</time>
      </trkpt>
      <trkpt lat="46.53137" lon="4.5203">
        <ele>267.59799194336</ele>
        <time>2020-05-12T10:14:30Z</time>
      </trkpt>
      <trkpt lat="46.53137" lon="4.5202">
        <ele>267.59799194336</ele>
        <time>2020-05-12T10:14:36Z</time>
      </trkpt>
      <trkpt lat="46.53138" lon="4.5201">
        <ele>267.59799194336</ele>
        <time>2020-05-12T10:14:43Z</time>
      </trkpt>
      <trkpt lat="46.53137" lon="4.51998">
        <ele>269.59799194336</ele>
        <time>2020-05-12T10:14:49Z</time>
      </trkpt>
      <trkpt lat="46.53135" lon="4.51989">
        <ele>268.59799194336</ele>
        <time>2020-05-12T10:14:55Z</time>
      </trkpt>
      <trkpt lat="46.53136" lon="4.51979">
        <ele>270.59799194336</ele>
        <time>2020-05-12T10:15:01Z</time>
      </trkpt>
      <trkpt lat="46.53136" lon="4.51969">
        <ele>268.59799194336</ele>
        <time>2020-05-12T10:15:07Z</time>
      </trkpt>
      <trkpt lat="46.53137" lon="4.51959">
        <ele>267.59799194336</ele>
        <time>2020-05-12T10:15:12Z</time>
      </trkpt>
      <trkpt lat="46.53136" lon="4.51949">
        <ele>266.59799194336</ele>
        <time>2020-05-12T10:15:18Z</time>
      </trkpt>
      <trkpt lat="46.53136" lon="4.51939">
        <ele>270.59799194336</ele>
        <time>2020-05-12T10:15:23Z</time>
      </trkpt>
      <trkpt lat="46.53133" lon="4.51927">
        <ele>272.59799194336</ele>
        <time>2020-05-12T10:15:28Z</time>
      </trkpt>
      <trkpt lat="46.5313" lon="4.51913">
        <ele>275.59799194336</ele>
        <time>2020-05-12T10:15:33Z</time>
      </trkpt>
      <trkpt lat="46.53127" lon="4.51903">
        <ele>271.59698486328</ele>
        <time>2020-05-12T10:15:40Z</time>
      </trkpt>
      <trkpt lat="46.53123" lon="4.51894">
        <ele>266.59698486328</ele>
        <time>2020-05-12T10:15:46Z</time>
      </trkpt>
      <trkpt lat="46.53123" lon="4.51884">
        <ele>268.59698486328</ele>
        <time>2020-05-12T10:15:51Z</time>
      </trkpt>
      <trkpt lat="46.5312" lon="4.51875">
        <ele>271.59698486328</ele>
        <time>2020-05-12T10:15:56Z</time>
      </trkpt>
      <trkpt lat="46.53118" lon="4.51862">
        <ele>272.59698486328</ele>
        <time>2020-05-12T10:16:01Z</time>
      </trkpt>
      <trkpt lat="46.53117" lon="4.5185">
        <ele>276.59698486328</ele>
        <time>2020-05-12T10:16:06Z</time>
      </trkpt>
      <trkpt lat="46.53113" lon="4.5184">
        <ele>271.59698486328</ele>
        <time>2020-05-12T10:16:11Z</time>
      </trkpt>
      <trkpt lat="46.53113" lon="4.5183">
        <ele>272.59698486328</ele>
        <time>2020-05-12T10:16:19Z</time>
      </trkpt>
      <trkpt lat="46.53111" lon="4.5182">
        <ele>271.59698486328</ele>
        <time>2020-05-12T10:16:24Z</time>
      </trkpt>
      <trkpt lat="46.53107" lon="4.5181">
        <ele>271.59698486328</ele>
        <time>2020-05-12T10:16:30Z</time>
      </trkpt>
      <trkpt lat="46.53108" lon="4.51799">
        <ele>273.59698486328</ele>
        <time>2020-05-12T10:16:37Z</time>
      </trkpt>
      <trkpt lat="46.53103" lon="4.5179">
        <ele>271.59698486328</ele>
        <time>2020-05-12T10:16:42Z</time>
      </trkpt>
      <trkpt lat="46.531" lon="4.51782">
        <ele>271.59698486328</ele>
        <time>2020-05-12T10:16:48Z</time>
      </trkpt>
      <trkpt lat="46.531" lon="4.51771">
        <ele>274.59698486328</ele>
        <time>2020-05-12T10:16:54Z</time>
      </trkpt>
      <trkpt lat="46.53095" lon="4.51764">
        <ele>270.59698486328</ele>
        <time>2020-05-12T10:17:00Z</time>
      </trkpt>
      <trkpt lat="46.53089" lon="4.51756">
        <ele>270.59698486328</ele>
        <time>2020-05-12T10:17:06Z</time>
      </trkpt>
      <trkpt lat="46.53085" lon="4.51745">
        <ele>272.59698486328</ele>
        <time>2020-05-12T10:17:11Z</time>
      </trkpt>
      <trkpt lat="46.53083" lon="4.51734">
        <ele>272.59698486328</ele>
        <time>2020-05-12T10:17:18Z</time>
      </trkpt>
      <trkpt lat="46.53079" lon="4.51725">
        <ele>267.59698486328</ele>
        <time>2020-05-12T10:17:26Z</time>
      </trkpt>
      <trkpt lat="46.53077" lon="4.51715">
        <ele>270.59698486328</ele>
        <time>2020-05-12T10:17:32Z</time>
      </trkpt>
      <trkpt lat="46.53072" lon="4.51706">
        <ele>271.59698486328</ele>
        <time>2020-05-12T10:17:37Z</time>
      </trkpt>
      <trkpt lat="46.53068" lon="4.51696">
        <ele>270.59698486328</ele>
        <time>2020-05-12T10:17:43Z</time>
      </trkpt>
      <trkpt lat="46.53064" lon="4.51687">
        <ele>272.59698486328</ele>
        <time>2020-05-12T10:17:49Z</time>
      </trkpt>
      <trkpt lat="46.53061" lon="4.51679">
        <ele>272.59698486328</ele>
        <time>2020-05-12T10:17:55Z</time>
      </trkpt>
      <trkpt lat="46.53059" lon="4.51669">
        <ele>273.59698486328</ele>
        <time>2020-05-12T10:18:01Z</time>
      </trkpt>
      <trkpt lat="46.53056" lon="4.51659">
        <ele>277.59698486328</ele>
        <time>2020-05-12T10:18:06Z</time>
      </trkpt>
      <trkpt lat="46.53055" lon="4.51648">
        <ele>278.59698486328</ele>
        <time>2020-05-12T10:18:12Z</time>
      </trkpt>
      <trkpt lat="46.53054" lon="4.51637">
        <ele>277.59698486328</ele>
        <time>2020-05-12T10:18:18Z</time>
      </trkpt>
      <trkpt lat="46.53053" lon="4.51627">
        <ele>278.59698486328</ele>
        <time>2020-05-12T10:18:23Z</time>
      </trkpt>
      <trkpt lat="46.53053" lon="4.51616">
        <ele>278.59698486328</ele>
        <time>2020-05-12T10:18:28Z</time>
      </trkpt>
      <trkpt lat="46.53052" lon="4.51606">
        <ele>280.59698486328</ele>
        <time>2020-05-12T10:18:36Z</time>
      </trkpt>
      <trkpt lat="46.53049" lon="4.51598">
        <ele>283.59698486328</ele>
        <time>2020-05-12T10:18:42Z</time>
      </trkpt>
      <trkpt lat="46.53041" lon="4.51589">
        <ele>285.59698486328</ele>
        <time>2020-05-12T10:18:47Z</time>
      </trkpt>
      <trkpt lat="46.53038" lon="4.51578">
        <ele>285.59698486328</ele>
        <time>2020-05-12T10:18:53Z</time>
      </trkpt>
      <trkpt lat="46.53039" lon="4.51569">
        <ele>282.59698486328</ele>
        <time>2020-05-12T10:19:06Z</time>
      </trkpt>
      <trkpt lat="46.53036" lon="4.51559">
        <ele>289.59698486328</ele>
        <time>2020-05-12T10:20:26Z</time>
      </trkpt>
      <trkpt lat="46.53032" lon="4.51548">
        <ele>289.59698486328</ele>
        <time>2020-05-12T10:20:31Z</time>
      </trkpt>
      <trkpt lat="46.53026" lon="4.51541">
        <ele>289.59698486328</ele>
        <time>2020-05-12T10:20:36Z</time>
      </trkpt>
      <trkpt lat="46.53028" lon="4.5153">
        <ele>290.59698486328</ele>
        <time>2020-05-12T10:20:41Z</time>
      </trkpt>
      <trkpt lat="46.53024" lon="4.51521">
        <ele>287.59698486328</ele>
        <time>2020-05-12T10:20:47Z</time>
      </trkpt>
      <trkpt lat="46.53025" lon="4.51511">
        <ele>287.59698486328</ele>
        <time>2020-05-12T10:20:52Z</time>
      </trkpt>
      <trkpt lat="46.53027" lon="4.51499">
        <ele>290.59698486328</ele>
        <time>2020-05-12T10:20:57Z</time>
      </trkpt>
      <trkpt lat="46.5303" lon="4.5149">
        <ele>290.59698486328</ele>
        <time>2020-05-12T10:21:02Z</time>
      </trkpt>
      <trkpt lat="46.53027" lon="4.51475">
        <ele>292.59698486328</ele>
        <time>2020-05-12T10:21:07Z</time>
      </trkpt>
      <trkpt lat="46.53024" lon="4.51463">
        <ele>295.59698486328</ele>
        <time>2020-05-12T10:21:12Z</time>
      </trkpt>
      <trkpt lat="46.53025" lon="4.51452">
        <ele>296.59698486328</ele>
        <time>2020-05-12T10:21:17Z</time>
      </trkpt>
      <trkpt lat="46.53021" lon="4.51441">
        <ele>296.59698486328</ele>
        <time>2020-05-12T10:21:22Z</time>
      </trkpt>
      <trkpt lat="46.53016" lon="4.51426">
        <ele>302.59698486328</ele>
        <time>2020-05-12T10:21:27Z</time>
      </trkpt>
      <trkpt lat="46.53022" lon="4.5142">
        <ele>303.59698486328</ele>
        <time>2020-05-12T10:21:32Z</time>
      </trkpt>
      <trkpt lat="46.53021" lon="4.51411">
        <ele>302.59698486328</ele>
        <time>2020-05-12T10:21:37Z</time>
      </trkpt>
      <trkpt lat="46.53021" lon="4.51398">
        <ele>308.59698486328</ele>
        <time>2020-05-12T10:21:42Z</time>
      </trkpt>
      <trkpt lat="46.53019" lon="4.51388">
        <ele>303.59698486328</ele>
        <time>2020-05-12T10:21:50Z</time>
      </trkpt>
      <trkpt lat="46.53022" lon="4.51378">
        <ele>299.59698486328</ele>
        <time>2020-05-12T10:21:57Z</time>
      </trkpt>
      <trkpt lat="46.53022" lon="4.51367">
        <ele>297.59698486328</ele>
        <time>2020-05-12T10:22:04Z</time>
      </trkpt>
      <trkpt lat="46.53019" lon="4.51356">
        <ele>298.59698486328</ele>
        <time>2020-05-12T10:22:09Z</time>
      </trkpt>
      <trkpt lat="46.5302" lon="4.51346">
        <ele>296.59698486328</ele>
        <time>2020-05-12T10:22:15Z</time>
      </trkpt>
      <trkpt lat="46.53022" lon="4.51334">
        <ele>296.59698486328</ele>
        <time>2020-05-12T10:22:20Z</time>
      </trkpt>
      <trkpt lat="46.5302" lon="4.51325">
        <ele>294.59698486328</ele>
        <time>2020-05-12T10:22:25Z</time>
      </trkpt>
      <trkpt lat="46.5302" lon="4.51315">
        <ele>293.59698486328</ele>
        <time>2020-05-12T10:22:35Z</time>
      </trkpt>
      <trkpt lat="46.53018" lon="4.51304">
        <ele>292.59698486328</ele>
        <time>2020-05-12T10:22:41Z</time>
      </trkpt>
      <trkpt lat="46.53015" lon="4.51296">
        <ele>293.59698486328</ele>
        <time>2020-05-12T10:22:46Z</time>
      </trkpt>
      <trkpt lat="46.53016" lon="4.51285">
        <ele>293.59698486328</ele>
        <time>2020-05-12T10:22:52Z</time>
      </trkpt>
      <trkpt lat="46.53012" lon="4.51274">
        <ele>294.59698486328</ele>
        <time>2020-05-12T10:22:57Z</time>
      </trkpt>
      <trkpt lat="46.53011" lon="4.51262">
        <ele>294.59698486328</ele>
        <time>2020-05-12T10:23:04Z</time>
      </trkpt>
      <trkpt lat="46.53011" lon="4.51251">
        <ele>296.59698486328</ele>
        <time>2020-05-12T10:23:09Z</time>
      </trkpt>
      <trkpt lat="46.5301" lon="4.51236">
        <ele>297.59698486328</ele>
        <time>2020-05-12T10:23:14Z</time>
      </trkpt>
      <trkpt lat="46.5301" lon="4.51226">
        <ele>299.59698486328</ele>
        <time>2020-05-12T10:23:19Z</time>
      </trkpt>
      <trkpt lat="46.53011" lon="4.51216">
        <ele>298.59698486328</ele>
        <time>2020-05-12T10:23:24Z</time>
      </trkpt>
      <trkpt lat="46.53008" lon="4.51208">
        <ele>294.59698486328</ele>
        <time>2020-05-12T10:23:31Z</time>
      </trkpt>
      <trkpt lat="46.53004" lon="4.51193">
        <ele>296.59698486328</ele>
        <time>2020-05-12T10:23:36Z</time>
      </trkpt>
      <trkpt lat="46.53006" lon="4.51184">
        <ele>295.59698486328</ele>
        <time>2020-05-12T10:23:41Z</time>
      </trkpt>
      <trkpt lat="46.53006" lon="4.51173">
        <ele>297.59698486328</ele>
        <time>2020-05-12T10:23:46Z</time>
      </trkpt>
      <trkpt lat="46.53006" lon="4.51162">
        <ele>297.59698486328</ele>
        <time>2020-05-12T10:23:51Z</time>
      </trkpt>
      <trkpt lat="46.53006" lon="4.51152">
        <ele>297.59698486328</ele>
        <time>2020-05-12T10:23:58Z</time>
      </trkpt>
      <trkpt lat="46.53005" lon="4.5114">
        <ele>298.59698486328</ele>
        <time>2020-05-12T10:24:03Z</time>
      </trkpt>
      <trkpt lat="46.53004" lon="4.5113">
        <ele>300.59698486328</ele>
        <time>2020-05-12T10:24:09Z</time>
      </trkpt>
      <trkpt lat="46.53005" lon="4.51121">
        <ele>297.59698486328</ele>
        <time>2020-05-12T10:24:14Z</time>
      </trkpt>
      <trkpt lat="46.53005" lon="4.51111">
        <ele>298.59698486328</ele>
        <time>2020-05-12T10:24:19Z</time>
      </trkpt>
      <trkpt lat="46.53004" lon="4.511">
        <ele>297.59698486328</ele>
        <time>2020-05-12T10:24:24Z</time>
      </trkpt>
      <trkpt lat="46.53003" lon="4.5109">
        <ele>300.59698486328</ele>
        <time>2020-05-12T10:24:30Z</time>
      </trkpt>
      <trkpt lat="46.53" lon="4.51079">
        <ele>298.59698486328</ele>
        <time>2020-05-12T10:24:35Z</time>
      </trkpt>
      <trkpt lat="46.52996" lon="4.5107">
        <ele>297.59698486328</ele>
        <time>2020-05-12T10:24:40Z</time>
      </trkpt>
      <trkpt lat="46.52992" lon="4.51058">
        <ele>298.59698486328</ele>
        <time>2020-05-12T10:24:45Z</time>
      </trkpt>
      <trkpt lat="46.52991" lon="4.51048">
        <ele>297.59600830078</ele>
        <time>2020-05-12T10:24:50Z</time>
      </trkpt>
      <trkpt lat="46.52995" lon="4.51039">
        <ele>294.59698486328</ele>
        <time>2020-05-12T10:24:56Z</time>
      </trkpt>
      <trkpt lat="46.52988" lon="4.51038">
        <ele>292.59600830078</ele>
        <time>2020-05-12T10:25:11Z</time>
      </trkpt>
      <trkpt lat="46.52982" lon="4.51043">
        <ele>291.59600830078</ele>
        <time>2020-05-12T10:25:16Z</time>
      </trkpt>
      <trkpt lat="46.52976" lon="4.51046">
        <ele>291.59600830078</ele>
        <time>2020-05-12T10:25:21Z</time>
      </trkpt>
      <trkpt lat="46.5297" lon="4.51053">
        <ele>288.59600830078</ele>
        <time>2020-05-12T10:25:28Z</time>
      </trkpt>
      <trkpt lat="46.52964" lon="4.51056">
        <ele>288.59600830078</ele>
        <time>2020-05-12T10:25:35Z</time>
      </trkpt>
      <trkpt lat="46.52955" lon="4.51061">
        <ele>284.59600830078</ele>
        <time>2020-05-12T10:25:46Z</time>
      </trkpt>
      <trkpt lat="46.52949" lon="4.51067">
        <ele>281.59600830078</ele>
        <time>2020-05-12T10:25:51Z</time>
      </trkpt>
      <trkpt lat="46.52941" lon="4.5107">
        <ele>280.59600830078</ele>
        <time>2020-05-12T10:25:56Z</time>
      </trkpt>
      <trkpt lat="46.52932" lon="4.51079">
        <ele>279.59600830078</ele>
        <time>2020-05-12T10:26:01Z</time>
      </trkpt>
      <trkpt lat="46.52924" lon="4.51084">
        <ele>278.59600830078</ele>
        <time>2020-05-12T10:26:06Z</time>
      </trkpt>
      <trkpt lat="46.52914" lon="4.51087">
        <ele>278.59600830078</ele>
        <time>2020-05-12T10:26:11Z</time>
      </trkpt>
      <trkpt lat="46.52908" lon="4.51091">
        <ele>281.59600830078</ele>
        <time>2020-05-12T10:26:17Z</time>
      </trkpt>
      <trkpt lat="46.529" lon="4.51094">
        <ele>280.59600830078</ele>
        <time>2020-05-12T10:26:22Z</time>
      </trkpt>
      <trkpt lat="46.52893" lon="4.51096">
        <ele>280.59600830078</ele>
        <time>2020-05-12T10:26:27Z</time>
      </trkpt>
      <trkpt lat="46.52886" lon="4.51099">
        <ele>280.59600830078</ele>
        <time>2020-05-12T10:26:32Z</time>
      </trkpt>
      <trkpt lat="46.52878" lon="4.51102">
        <ele>277.59600830078</ele>
        <time>2020-05-12T10:26:38Z</time>
      </trkpt>
      <trkpt lat="46.52872" lon="4.51107">
        <ele>274.59600830078</ele>
        <time>2020-05-12T10:26:43Z</time>
      </trkpt>
      <trkpt lat="46.52865" lon="4.51113">
        <ele>274.59600830078</ele>
        <time>2020-05-12T10:26:48Z</time>
      </trkpt>
      <trkpt lat="46.52858" lon="4.51116">
        <ele>272.59600830078</ele>
        <time>2020-05-12T10:26:53Z</time>
      </trkpt>
      <trkpt lat="46.52852" lon="4.51119">
        <ele>270.59600830078</ele>
        <time>2020-05-12T10:26:58Z</time>
      </trkpt>
      <trkpt lat="46.52845" lon="4.51123">
        <ele>267.59600830078</ele>
        <time>2020-05-12T10:27:04Z</time>
      </trkpt>
      <trkpt lat="46.52836" lon="4.51129">
        <ele>267.59600830078</ele>
        <time>2020-05-12T10:27:10Z</time>
      </trkpt>
      <trkpt lat="46.5283" lon="4.51133">
        <ele>268.59600830078</ele>
        <time>2020-05-12T10:27:16Z</time>
      </trkpt>
      <trkpt lat="46.52823" lon="4.51135">
        <ele>268.59600830078</ele>
        <time>2020-05-12T10:27:21Z</time>
      </trkpt>
      <trkpt lat="46.52816" lon="4.51138">
        <ele>267.59600830078</ele>
        <time>2020-05-12T10:27:26Z</time>
      </trkpt>
      <trkpt lat="46.52809" lon="4.51141">
        <ele>266.59600830078</ele>
        <time>2020-05-12T10:27:31Z</time>
      </trkpt>
      <trkpt lat="46.52802" lon="4.51143">
        <ele>264.59600830078</ele>
        <time>2020-05-12T10:27:36Z</time>
      </trkpt>
      <trkpt lat="46.52795" lon="4.51144">
        <ele>264.59600830078</ele>
        <time>2020-05-12T10:27:41Z</time>
      </trkpt>
      <trkpt lat="46.52788" lon="4.51147">
        <ele>265.59600830078</ele>
        <time>2020-05-12T10:27:46Z</time>
      </trkpt>
      <trkpt lat="46.5278" lon="4.51148">
        <ele>265.59600830078</ele>
        <time>2020-05-12T10:27:52Z</time>
      </trkpt>
      <trkpt lat="46.52774" lon="4.51151">
        <ele>265.59600830078</ele>
        <time>2020-05-12T10:27:57Z</time>
      </trkpt>
      <trkpt lat="46.52767" lon="4.51154">
        <ele>264.59600830078</ele>
        <time>2020-05-12T10:28:02Z</time>
      </trkpt>
      <trkpt lat="46.52761" lon="4.51157">
        <ele>261.59600830078</ele>
        <time>2020-05-12T10:28:08Z</time>
      </trkpt>
      <trkpt lat="46.52754" lon="4.5116">
        <ele>260.59600830078</ele>
        <time>2020-05-12T10:28:15Z</time>
      </trkpt>
      <trkpt lat="46.52749" lon="4.51167">
        <ele>263.59600830078</ele>
        <time>2020-05-12T10:28:24Z</time>
      </trkpt>
      <trkpt lat="46.52742" lon="4.51171">
        <ele>264.59600830078</ele>
        <time>2020-05-12T10:28:31Z</time>
      </trkpt>
      <trkpt lat="46.52734" lon="4.51178">
        <ele>265.59600830078</ele>
        <time>2020-05-12T10:28:36Z</time>
      </trkpt>
      <trkpt lat="46.52728" lon="4.51181">
        <ele>266.59600830078</ele>
        <time>2020-05-12T10:28:42Z</time>
      </trkpt>
      <trkpt lat="46.52721" lon="4.51181">
        <ele>266.59600830078</ele>
        <time>2020-05-12T10:28:50Z</time>
      </trkpt>
      <trkpt lat="46.52714" lon="4.51184">
        <ele>266.59600830078</ele>
        <time>2020-05-12T10:28:56Z</time>
      </trkpt>
      <trkpt lat="46.52707" lon="4.51187">
        <ele>267.59600830078</ele>
        <time>2020-05-12T10:29:01Z</time>
      </trkpt>
      <trkpt lat="46.52698" lon="4.51188">
        <ele>267.59600830078</ele>
        <time>2020-05-12T10:29:09Z</time>
      </trkpt>
      <trkpt lat="46.52692" lon="4.51192">
        <ele>268.59600830078</ele>
        <time>2020-05-12T10:29:16Z</time>
      </trkpt>
      <trkpt lat="46.52686" lon="4.51197">
        <ele>268.59600830078</ele>
        <time>2020-05-12T10:29:21Z</time>
      </trkpt>
      <trkpt lat="46.52675" lon="4.51198">
        <ele>270.59600830078</ele>
        <time>2020-05-12T10:29:26Z</time>
      </trkpt>
      <trkpt lat="46.52669" lon="4.51201">
        <ele>270.59600830078</ele>
        <time>2020-05-12T10:29:37Z</time>
      </trkpt>
      <trkpt lat="46.52662" lon="4.51201">
        <ele>273.59600830078</ele>
        <time>2020-05-12T10:30:58Z</time>
      </trkpt>
      <trkpt lat="46.52652" lon="4.51199">
        <ele>272.59600830078</ele>
        <time>2020-05-12T10:31:03Z</time>
      </trkpt>
      <trkpt lat="46.52645" lon="4.51197">
        <ele>274.59600830078</ele>
        <time>2020-05-12T10:31:08Z</time>
      </trkpt>
      <trkpt lat="46.52637" lon="4.51202">
        <ele>273.59600830078</ele>
        <time>2020-05-12T10:31:13Z</time>
      </trkpt>
      <trkpt lat="46.52629" lon="4.51207">
        <ele>274.59600830078</ele>
        <time>2020-05-12T10:31:18Z</time>
      </trkpt>
      <trkpt lat="46.52621" lon="4.51209">
        <ele>276.59600830078</ele>
        <time>2020-05-12T10:31:30Z</time>
      </trkpt>
      <trkpt lat="46.52613" lon="4.51213">
        <ele>276.59600830078</ele>
        <time>2020-05-12T10:31:35Z</time>
      </trkpt>
      <trkpt lat="46.52606" lon="4.5122">
        <ele>277.59600830078</ele>
        <time>2020-05-12T10:31:40Z</time>
      </trkpt>
      <trkpt lat="46.52598" lon="4.51225">
        <ele>276.59600830078</ele>
        <time>2020-05-12T10:31:45Z</time>
      </trkpt>
      <trkpt lat="46.52593" lon="4.51232">
        <ele>277.59600830078</ele>
        <time>2020-05-12T10:31:50Z</time>
      </trkpt>
      <trkpt lat="46.52587" lon="4.51238">
        <ele>276.59600830078</ele>
        <time>2020-05-12T10:31:55Z</time>
      </trkpt>
      <trkpt lat="46.52581" lon="4.51243">
        <ele>279.59600830078</ele>
        <time>2020-05-12T10:32:00Z</time>
      </trkpt>
      <trkpt lat="46.52576" lon="4.51254">
        <ele>277.59600830078</ele>
        <time>2020-05-12T10:32:05Z</time>
      </trkpt>
      <trkpt lat="46.52569" lon="4.51257">
        <ele>273.5950012207</ele>
        <time>2020-05-12T10:32:12Z</time>
      </trkpt>
      <trkpt lat="46.52562" lon="4.51263">
        <ele>275.5950012207</ele>
        <time>2020-05-12T10:32:17Z</time>
      </trkpt>
      <trkpt lat="46.52555" lon="4.51265">
        <ele>276.5950012207</ele>
        <time>2020-05-12T10:32:23Z</time>
      </trkpt>
      <trkpt lat="46.52548" lon="4.51269">
        <ele>275.5950012207</ele>
        <time>2020-05-12T10:32:28Z</time>
      </trkpt>
      <trkpt lat="46.5254" lon="4.51272">
        <ele>275.5950012207</ele>
        <time>2020-05-12T10:32:34Z</time>
      </trkpt>
      <trkpt lat="46.52534" lon="4.51274">
        <ele>275.5950012207</ele>
        <time>2020-05-12T10:32:40Z</time>
      </trkpt>
      <trkpt lat="46.52527" lon="4.51276">
        <ele>275.5950012207</ele>
        <time>2020-05-12T10:32:46Z</time>
      </trkpt>
      <trkpt lat="46.5252" lon="4.51279">
        <ele>274.5950012207</ele>
        <time>2020-05-12T10:32:52Z</time>
      </trkpt>
      <trkpt lat="46.52511" lon="4.51286">
        <ele>277.5950012207</ele>
        <time>2020-05-12T10:32:57Z</time>
      </trkpt>
      <trkpt lat="46.52503" lon="4.51286">
        <ele>279.5950012207</ele>
        <time>2020-05-12T10:33:03Z</time>
      </trkpt>
      <trkpt lat="46.52496" lon="4.51286">
        <ele>279.5950012207</ele>
        <time>2020-05-12T10:33:09Z</time>
      </trkpt>
      <trkpt lat="46.5249" lon="4.5129">
        <ele>280.5950012207</ele>
        <time>2020-05-12T10:33:14Z</time>
      </trkpt>
      <trkpt lat="46.52482" lon="4.51291">
        <ele>281.5950012207</ele>
        <time>2020-05-12T10:33:19Z</time>
      </trkpt>
      <trkpt lat="46.52475" lon="4.51291">
        <ele>281.5950012207</ele>
        <time>2020-05-12T10:33:24Z</time>
      </trkpt>
      <trkpt lat="46.52468" lon="4.51291">
        <ele>281.5950012207</ele>
        <time>2020-05-12T10:33:29Z</time>
      </trkpt>
      <trkpt lat="46.52461" lon="4.51292">
        <ele>281.5950012207</ele>
        <time>2020-05-12T10:33:34Z</time>
      </trkpt>
      <trkpt lat="46.52455" lon="4.51292">
        <ele>281.5950012207</ele>
        <time>2020-05-12T10:33:39Z</time>
      </trkpt>
      <trkpt lat="46.52448" lon="4.51291">
        <ele>281.5950012207</ele>
        <time>2020-05-12T10:33:44Z</time>
      </trkpt>
      <trkpt lat="46.52441" lon="4.5129">
        <ele>282.5950012207</ele>
        <time>2020-05-12T10:33:50Z</time>
      </trkpt>
      <trkpt lat="46.52435" lon="4.5129">
        <ele>283.5950012207</ele>
        <time>2020-05-12T10:33:55Z</time>
      </trkpt>
      <trkpt lat="46.52429" lon="4.51287">
        <ele>280.5950012207</ele>
        <time>2020-05-12T10:34:00Z</time>
      </trkpt>
      <trkpt lat="46.52422" lon="4.51285">
        <ele>278.5950012207</ele>
        <time>2020-05-12T10:34:05Z</time>
      </trkpt>
      <trkpt lat="46.52414" lon="4.51285">
        <ele>279.5950012207</ele>
        <time>2020-05-12T10:34:10Z</time>
      </trkpt>
      <trkpt lat="46.52408" lon="4.51282">
        <ele>279.5950012207</ele>
        <time>2020-05-12T10:34:16Z</time>
      </trkpt>
      <trkpt lat="46.524" lon="4.51283">
        <ele>277.5950012207</ele>
        <time>2020-05-12T10:34:22Z</time>
      </trkpt>
      <trkpt lat="46.52391" lon="4.51286">
        <ele>280.5950012207</ele>
        <time>2020-05-12T10:34:27Z</time>
      </trkpt>
      <trkpt lat="46.52385" lon="4.51288">
        <ele>282.5950012207</ele>
        <time>2020-05-12T10:34:32Z</time>
      </trkpt>
      <trkpt lat="46.52379" lon="4.51295">
        <ele>283.5950012207</ele>
        <time>2020-05-12T10:34:38Z</time>
      </trkpt>
      <trkpt lat="46.52373" lon="4.51301">
        <ele>283.5950012207</ele>
        <time>2020-05-12T10:34:43Z</time>
      </trkpt>
      <trkpt lat="46.52365" lon="4.51308">
        <ele>283.5950012207</ele>
        <time>2020-05-12T10:34:48Z</time>
      </trkpt>
      <trkpt lat="46.52358" lon="4.51314">
        <ele>281.5950012207</ele>
        <time>2020-05-12T10:34:55Z</time>
      </trkpt>
      <trkpt lat="46.52352" lon="4.51321">
        <ele>281.5950012207</ele>
        <time>2020-05-12T10:35:00Z</time>
      </trkpt>
      <trkpt lat="46.52346" lon="4.51328">
        <ele>282.5950012207</ele>
        <time>2020-05-12T10:35:05Z</time>
      </trkpt>
      <trkpt lat="46.5234" lon="4.51335">
        <ele>281.5950012207</ele>
        <time>2020-05-12T10:35:10Z</time>
      </trkpt>
      <trkpt lat="46.52335" lon="4.51343">
        <ele>281.5950012207</ele>
        <time>2020-05-12T10:35:15Z</time>
      </trkpt>
      <trkpt lat="46.52329" lon="4.51352">
        <ele>281.5950012207</ele>
        <time>2020-05-12T10:35:20Z</time>
      </trkpt>
      <trkpt lat="46.52324" lon="4.5136">
        <ele>281.5950012207</ele>
        <time>2020-05-12T10:35:25Z</time>
      </trkpt>
      <trkpt lat="46.52318" lon="4.51364">
        <ele>280.5950012207</ele>
        <time>2020-05-12T10:35:31Z</time>
      </trkpt>
      <trkpt lat="46.52313" lon="4.5137">
        <ele>279.5950012207</ele>
        <time>2020-05-12T10:35:36Z</time>
      </trkpt>
      <trkpt lat="46.52308" lon="4.51378">
        <ele>278.5950012207</ele>
        <time>2020-05-12T10:35:41Z</time>
      </trkpt>
      <trkpt lat="46.52303" lon="4.51387">
        <ele>278.5950012207</ele>
        <time>2020-05-12T10:35:46Z</time>
      </trkpt>
      <trkpt lat="46.52297" lon="4.51393">
        <ele>277.5950012207</ele>
        <time>2020-05-12T10:35:51Z</time>
      </trkpt>
      <trkpt lat="46.52293" lon="4.51401">
        <ele>276.5950012207</ele>
        <time>2020-05-12T10:35:56Z</time>
      </trkpt>
      <trkpt lat="46.52288" lon="4.5141">
        <ele>276.5950012207</ele>
        <time>2020-05-12T10:36:01Z</time>
      </trkpt>
      <trkpt lat="46.52283" lon="4.51417">
        <ele>276.5950012207</ele>
        <time>2020-05-12T10:36:06Z</time>
      </trkpt>
      <trkpt lat="46.52278" lon="4.51424">
        <ele>275.5950012207</ele>
        <time>2020-05-12T10:36:11Z</time>
      </trkpt>
      <trkpt lat="46.52273" lon="4.51431">
        <ele>275.5950012207</ele>
        <time>2020-05-12T10:36:16Z</time>
      </trkpt>
      <trkpt lat="46.52268" lon="4.51439">
        <ele>275.5950012207</ele>
        <time>2020-05-12T10:36:21Z</time>
      </trkpt>
      <trkpt lat="46.52263" lon="4.51448">
        <ele>276.5950012207</ele>
        <time>2020-05-12T10:36:26Z</time>
      </trkpt>
      <trkpt lat="46.52259" lon="4.51456">
        <ele>277.5950012207</ele>
        <time>2020-05-12T10:36:31Z</time>
      </trkpt>
      <trkpt lat="46.52254" lon="4.51465">
        <ele>277.5950012207</ele>
        <time>2020-05-12T10:36:36Z</time>
      </trkpt>
      <trkpt lat="46.52249" lon="4.51474">
        <ele>276.5950012207</ele>
        <time>2020-05-12T10:36:41Z</time>
      </trkpt>
      <trkpt lat="46.52245" lon="4.51484">
        <ele>277.5950012207</ele>
        <time>2020-05-12T10:36:46Z</time>
      </trkpt>
      <trkpt lat="46.52241" lon="4.51492">
        <ele>278.5950012207</ele>
        <time>2020-05-12T10:36:51Z</time>
      </trkpt>
      <trkpt lat="46.52235" lon="4.51496">
        <ele>276.5950012207</ele>
        <time>2020-05-12T10:36:56Z</time>
      </trkpt>
      <trkpt lat="46.52228" lon="4.51494">
        <ele>275.5950012207</ele>
        <time>2020-05-12T10:37:01Z</time>
      </trkpt>
      <trkpt lat="46.52222" lon="4.51488">
        <ele>273.5950012207</ele>
        <time>2020-05-12T10:37:06Z</time>
      </trkpt>
      <trkpt lat="46.52217" lon="4.51481">
        <ele>273.5950012207</ele>
        <time>2020-05-12T10:37:11Z</time>
      </trkpt>
      <trkpt lat="46.52211" lon="4.51473">
        <ele>270.5950012207</ele>
        <time>2020-05-12T10:37:22Z</time>
      </trkpt>
      <trkpt lat="46.52207" lon="4.51463">
        <ele>268.5950012207</ele>
        <time>2020-05-12T10:37:27Z</time>
      </trkpt>
      <trkpt lat="46.52201" lon="4.51453">
        <ele>269.5950012207</ele>
        <time>2020-05-12T10:37:32Z</time>
      </trkpt>
      <trkpt lat="46.52194" lon="4.51443">
        <ele>269.5950012207</ele>
        <time>2020-05-12T10:37:37Z</time>
      </trkpt>
      <trkpt lat="46.52189" lon="4.51435">
        <ele>269.5950012207</ele>
        <time>2020-05-12T10:37:42Z</time>
      </trkpt>
      <trkpt lat="46.52185" lon="4.51426">
        <ele>269.5950012207</ele>
        <time>2020-05-12T10:37:47Z</time>
      </trkpt>
      <trkpt lat="46.52179" lon="4.51417">
        <ele>270.5950012207</ele>
        <time>2020-05-12T10:37:52Z</time>
      </trkpt>
      <trkpt lat="46.52176" lon="4.51409">
        <ele>270.5950012207</ele>
        <time>2020-05-12T10:37:57Z</time>
      </trkpt>
      <trkpt lat="46.52169" lon="4.514">
        <ele>273.59399414062</ele>
        <time>2020-05-12T10:38:02Z</time>
      </trkpt>
      <trkpt lat="46.52163" lon="4.51391">
        <ele>275.59399414062</ele>
        <time>2020-05-12T10:38:07Z</time>
      </trkpt>
      <trkpt lat="46.52159" lon="4.51383">
        <ele>272.59399414062</ele>
        <time>2020-05-12T10:38:12Z</time>
      </trkpt>
      <trkpt lat="46.52154" lon="4.51375">
        <ele>272.59399414062</ele>
        <time>2020-05-12T10:38:17Z</time>
      </trkpt>
      <trkpt lat="46.5215" lon="4.51366">
        <ele>272.59399414062</ele>
        <time>2020-05-12T10:38:22Z</time>
      </trkpt>
      <trkpt lat="46.52145" lon="4.5136">
        <ele>269.59399414062</ele>
        <time>2020-05-12T10:38:27Z</time>
      </trkpt>
      <trkpt lat="46.52141" lon="4.51351">
        <ele>269.59399414062</ele>
        <time>2020-05-12T10:38:32Z</time>
      </trkpt>
      <trkpt lat="46.52136" lon="4.51342">
        <ele>269.59399414062</ele>
        <time>2020-05-12T10:38:37Z</time>
      </trkpt>
      <trkpt lat="46.52131" lon="4.51334">
        <ele>268.59399414062</ele>
        <time>2020-05-12T10:38:42Z</time>
      </trkpt>
      <trkpt lat="46.52125" lon="4.51326">
        <ele>269.59399414062</ele>
        <time>2020-05-12T10:38:47Z</time>
      </trkpt>
      <trkpt lat="46.52119" lon="4.51318">
        <ele>268.59399414062</ele>
        <time>2020-05-12T10:38:52Z</time>
      </trkpt>
      <trkpt lat="46.52115" lon="4.51309">
        <ele>268.59399414062</ele>
        <time>2020-05-12T10:38:57Z</time>
      </trkpt>
      <trkpt lat="46.5211" lon="4.513">
        <ele>269.59399414062</ele>
        <time>2020-05-12T10:39:02Z</time>
      </trkpt>
      <trkpt lat="46.52106" lon="4.5129">
        <ele>269.59399414062</ele>
        <time>2020-05-12T10:39:07Z</time>
      </trkpt>
      <trkpt lat="46.521" lon="4.5128">
        <ele>269.59399414062</ele>
        <time>2020-05-12T10:39:12Z</time>
      </trkpt>
      <trkpt lat="46.52097" lon="4.51271">
        <ele>269.59399414062</ele>
        <time>2020-05-12T10:39:17Z</time>
      </trkpt>
      <trkpt lat="46.52094" lon="4.51262">
        <ele>268.59399414062</ele>
        <time>2020-05-12T10:39:22Z</time>
      </trkpt>
      <trkpt lat="46.5209" lon="4.51252">
        <ele>267.59399414062</ele>
        <time>2020-05-12T10:39:27Z</time>
      </trkpt>
      <trkpt lat="46.52087" lon="4.51243">
        <ele>268.59399414062</ele>
        <time>2020-05-12T10:39:32Z</time>
      </trkpt>
      <trkpt lat="46.52083" lon="4.51232">
        <ele>268.59399414062</ele>
        <time>2020-05-12T10:39:37Z</time>
      </trkpt>
      <trkpt lat="46.52079" lon="4.51222">
        <ele>268.59399414062</ele>
        <time>2020-05-12T10:39:42Z</time>
      </trkpt>
      <trkpt lat="46.52076" lon="4.51213">
        <ele>269.59399414062</ele>
        <time>2020-05-12T10:39:47Z</time>
      </trkpt>
      <trkpt lat="46.52072" lon="4.51204">
        <ele>269.59399414062</ele>
        <time>2020-05-12T10:39:52Z</time>
      </trkpt>
      <trkpt lat="46.52067" lon="4.51195">
        <ele>267.59399414062</ele>
        <time>2020-05-12T10:39:58Z</time>
      </trkpt>
      <trkpt lat="46.52061" lon="4.51186">
        <ele>267.59399414062</ele>
        <time>2020-05-12T10:40:03Z</time>
      </trkpt>
      <trkpt lat="46.52055" lon="4.51178">
        <ele>267.59399414062</ele>
        <time>2020-05-12T10:40:08Z</time>
      </trkpt>
      <trkpt lat="46.5205" lon="4.51169">
        <ele>268.59399414062</ele>
        <time>2020-05-12T10:40:13Z</time>
      </trkpt>
      <trkpt lat="46.52045" lon="4.5116">
        <ele>267.59399414062</ele>
        <time>2020-05-12T10:40:18Z</time>
      </trkpt>
      <trkpt lat="46.52041" lon="4.51153">
        <ele>266.59399414062</ele>
        <time>2020-05-12T10:40:23Z</time>
      </trkpt>
      <trkpt lat="46.52034" lon="4.51146">
        <ele>266.59399414062</ele>
        <time>2020-05-12T10:40:28Z</time>
      </trkpt>
      <trkpt lat="46.52028" lon="4.51139">
        <ele>266.59399414062</ele>
        <time>2020-05-12T10:40:33Z</time>
      </trkpt>
      <trkpt lat="46.52021" lon="4.51132">
        <ele>267.59399414062</ele>
        <time>2020-05-12T10:40:38Z</time>
      </trkpt>
      <trkpt lat="46.52015" lon="4.51126">
        <ele>265.59399414062</ele>
        <time>2020-05-12T10:40:43Z</time>
      </trkpt>
      <trkpt lat="46.52008" lon="4.51121">
        <ele>266.59399414062</ele>
        <time>2020-05-12T10:40:48Z</time>
      </trkpt>
      <trkpt lat="46.52002" lon="4.51115">
        <ele>263.59399414062</ele>
        <time>2020-05-12T10:40:53Z</time>
      </trkpt>
      <trkpt lat="46.51996" lon="4.51108">
        <ele>264.59399414062</ele>
        <time>2020-05-12T10:40:58Z</time>
      </trkpt>
      <trkpt lat="46.51989" lon="4.51104">
        <ele>265.59399414062</ele>
        <time>2020-05-12T10:41:03Z</time>
      </trkpt>
      <trkpt lat="46.51981" lon="4.51097">
        <ele>264.59399414062</ele>
        <time>2020-05-12T10:41:08Z</time>
      </trkpt>
      <trkpt lat="46.51975" lon="4.51092">
        <ele>263.59399414062</ele>
        <time>2020-05-12T10:41:13Z</time>
      </trkpt>
      <trkpt lat="46.51969" lon="4.51087">
        <ele>262.59399414062</ele>
        <time>2020-05-12T10:41:18Z</time>
      </trkpt>
      <trkpt lat="46.51962" lon="4.5108">
        <ele>262.59399414062</ele>
        <time>2020-05-12T10:41:23Z</time>
      </trkpt>
      <trkpt lat="46.51956" lon="4.51075">
        <ele>260.59399414062</ele>
        <time>2020-05-12T10:41:28Z</time>
      </trkpt>
      <trkpt lat="46.5195" lon="4.51069">
        <ele>260.59399414062</ele>
        <time>2020-05-12T10:41:33Z</time>
      </trkpt>
      <trkpt lat="46.51943" lon="4.51062">
        <ele>259.59399414062</ele>
        <time>2020-05-12T10:41:38Z</time>
      </trkpt>
      <trkpt lat="46.51936" lon="4.51056">
        <ele>260.59399414062</ele>
        <time>2020-05-12T10:41:43Z</time>
      </trkpt>
      <trkpt lat="46.51928" lon="4.51052">
        <ele>261.59399414062</ele>
        <time>2020-05-12T10:41:48Z</time>
      </trkpt>
      <trkpt lat="46.51923" lon="4.51042">
        <ele>260.59399414062</ele>
        <time>2020-05-12T10:41:54Z</time>
      </trkpt>
      <trkpt lat="46.51916" lon="4.51035">
        <ele>260.59399414062</ele>
        <time>2020-05-12T10:41:59Z</time>
      </trkpt>
      <trkpt lat="46.51912" lon="4.51028">
        <ele>260.59399414062</ele>
        <time>2020-05-12T10:42:04Z</time>
      </trkpt>
      <trkpt lat="46.51909" lon="4.51018">
        <ele>259.59399414062</ele>
        <time>2020-05-12T10:42:09Z</time>
      </trkpt>
      <trkpt lat="46.51904" lon="4.51008">
        <ele>260.59298706055</ele>
        <time>2020-05-12T10:42:14Z</time>
      </trkpt>
      <trkpt lat="46.51899" lon="4.50999">
        <ele>259.59298706055</ele>
        <time>2020-05-12T10:42:19Z</time>
      </trkpt>
      <trkpt lat="46.51894" lon="4.50993">
        <ele>260.59298706055</ele>
        <time>2020-05-12T10:42:24Z</time>
      </trkpt>
      <trkpt lat="46.51886" lon="4.50989">
        <ele>259.59298706055</ele>
        <time>2020-05-12T10:42:30Z</time>
      </trkpt>
      <trkpt lat="46.5188" lon="4.50984">
        <ele>259.59298706055</ele>
        <time>2020-05-12T10:42:35Z</time>
      </trkpt>
      <trkpt lat="46.51872" lon="4.50981">
        <ele>259.59298706055</ele>
        <time>2020-05-12T10:42:40Z</time>
      </trkpt>
      <trkpt lat="46.51866" lon="4.50977">
        <ele>262.59298706055</ele>
        <time>2020-05-12T10:42:45Z</time>
      </trkpt>
      <trkpt lat="46.5186" lon="4.50972">
        <ele>261.59298706055</ele>
        <time>2020-05-12T10:42:50Z</time>
      </trkpt>
      <trkpt lat="46.51853" lon="4.50969">
        <ele>263.59298706055</ele>
        <time>2020-05-12T10:42:55Z</time>
      </trkpt>
      <trkpt lat="46.51847" lon="4.50965">
        <ele>263.59298706055</ele>
        <time>2020-05-12T10:43:00Z</time>
      </trkpt>
      <trkpt lat="46.51841" lon="4.50961">
        <ele>262.59298706055</ele>
        <time>2020-05-12T10:43:05Z</time>
      </trkpt>
      <trkpt lat="46.51835" lon="4.50957">
        <ele>262.59298706055</ele>
        <time>2020-05-12T10:43:10Z</time>
      </trkpt>
      <trkpt lat="46.51828" lon="4.50954">
        <ele>262.59298706055</ele>
        <time>2020-05-12T10:43:15Z</time>
      </trkpt>
      <trkpt lat="46.51822" lon="4.50949">
        <ele>264.59298706055</ele>
        <time>2020-05-12T10:43:20Z</time>
      </trkpt>
      <trkpt lat="46.51815" lon="4.50944">
        <ele>264.59298706055</ele>
        <time>2020-05-12T10:43:26Z</time>
      </trkpt>
      <trkpt lat="46.51808" lon="4.50939">
        <ele>264.59298706055</ele>
        <time>2020-05-12T10:43:31Z</time>
      </trkpt>
      <trkpt lat="46.51802" lon="4.50935">
        <ele>264.59298706055</ele>
        <time>2020-05-12T10:43:36Z</time>
      </trkpt>
      <trkpt lat="46.51795" lon="4.50931">
        <ele>265.59298706055</ele>
        <time>2020-05-12T10:43:42Z</time>
      </trkpt>
      <trkpt lat="46.51789" lon="4.50925">
        <ele>264.59298706055</ele>
        <time>2020-05-12T10:43:47Z</time>
      </trkpt>
      <trkpt lat="46.51783" lon="4.50922">
        <ele>265.59298706055</ele>
        <time>2020-05-12T10:43:52Z</time>
      </trkpt>
      <trkpt lat="46.51776" lon="4.50919">
        <ele>266.59298706055</ele>
        <time>2020-05-12T10:43:57Z</time>
      </trkpt>
      <trkpt lat="46.51769" lon="4.50914">
        <ele>267.59298706055</ele>
        <time>2020-05-12T10:44:02Z</time>
      </trkpt>
      <trkpt lat="46.51764" lon="4.50907">
        <ele>266.59298706055</ele>
        <time>2020-05-12T10:44:07Z</time>
      </trkpt>
      <trkpt lat="46.51757" lon="4.50904">
        <ele>266.59298706055</ele>
        <time>2020-05-12T10:44:12Z</time>
      </trkpt>
      <trkpt lat="46.5175" lon="4.50902">
        <ele>268.59298706055</ele>
        <time>2020-05-12T10:44:17Z</time>
      </trkpt>
      <trkpt lat="46.51743" lon="4.50899">
        <ele>268.59298706055</ele>
        <time>2020-05-12T10:44:22Z</time>
      </trkpt>
      <trkpt lat="46.51736" lon="4.50895">
        <ele>267.59298706055</ele>
        <time>2020-05-12T10:44:28Z</time>
      </trkpt>
      <trkpt lat="46.51729" lon="4.50892">
        <ele>268.59298706055</ele>
        <time>2020-05-12T10:44:33Z</time>
      </trkpt>
      <trkpt lat="46.51722" lon="4.50888">
        <ele>269.59298706055</ele>
        <time>2020-05-12T10:44:38Z</time>
      </trkpt>
      <trkpt lat="46.51716" lon="4.50884">
        <ele>269.59298706055</ele>
        <time>2020-05-12T10:44:43Z</time>
      </trkpt>
      <trkpt lat="46.5171" lon="4.50881">
        <ele>271.59298706055</ele>
        <time>2020-05-12T10:44:48Z</time>
      </trkpt>
      <trkpt lat="46.51702" lon="4.50877">
        <ele>272.59298706055</ele>
        <time>2020-05-12T10:44:53Z</time>
      </trkpt>
      <trkpt lat="46.51695" lon="4.50875">
        <ele>271.59298706055</ele>
        <time>2020-05-12T10:44:58Z</time>
      </trkpt>
      <trkpt lat="46.51689" lon="4.5087">
        <ele>272.59298706055</ele>
        <time>2020-05-12T10:45:04Z</time>
      </trkpt>
      <trkpt lat="46.51682" lon="4.50865">
        <ele>271.59298706055</ele>
        <time>2020-05-12T10:45:10Z</time>
      </trkpt>
      <trkpt lat="46.51676" lon="4.50861">
        <ele>270.59298706055</ele>
        <time>2020-05-12T10:45:15Z</time>
      </trkpt>
      <trkpt lat="46.51669" lon="4.50857">
        <ele>272.59298706055</ele>
        <time>2020-05-12T10:45:20Z</time>
      </trkpt>
      <trkpt lat="46.51662" lon="4.50852">
        <ele>273.59298706055</ele>
        <time>2020-05-12T10:45:26Z</time>
      </trkpt>
      <trkpt lat="46.51655" lon="4.5085">
        <ele>273.59298706055</ele>
        <time>2020-05-12T10:45:31Z</time>
      </trkpt>
      <trkpt lat="46.51649" lon="4.50845">
        <ele>275.59298706055</ele>
        <time>2020-05-12T10:46:38Z</time>
      </trkpt>
      <trkpt lat="46.51643" lon="4.50842">
        <ele>274.59298706055</ele>
        <time>2020-05-12T10:46:43Z</time>
      </trkpt>
      <trkpt lat="46.51636" lon="4.50838">
        <ele>274.59298706055</ele>
        <time>2020-05-12T10:46:48Z</time>
      </trkpt>
      <trkpt lat="46.51629" lon="4.50833">
        <ele>275.59298706055</ele>
        <time>2020-05-12T10:46:54Z</time>
      </trkpt>
      <trkpt lat="46.51624" lon="4.50827">
        <ele>274.59298706055</ele>
        <time>2020-05-12T10:46:59Z</time>
      </trkpt>
      <trkpt lat="46.51618" lon="4.50821">
        <ele>275.59298706055</ele>
        <time>2020-05-12T10:47:04Z</time>
      </trkpt>
      <trkpt lat="46.51616" lon="4.50811">
        <ele>274.59298706055</ele>
        <time>2020-05-12T10:47:10Z</time>
      </trkpt>
      <trkpt lat="46.51619" lon="4.50801">
        <ele>274.59298706055</ele>
        <time>2020-05-12T10:47:15Z</time>
      </trkpt>
      <trkpt lat="46.51622" lon="4.50792">
        <ele>274.59298706055</ele>
        <time>2020-05-12T10:47:20Z</time>
      </trkpt>
      <trkpt lat="46.51624" lon="4.50782">
        <ele>274.59298706055</ele>
        <time>2020-05-12T10:47:25Z</time>
      </trkpt>
      <trkpt lat="46.51626" lon="4.50773">
        <ele>274.59298706055</ele>
        <time>2020-05-12T10:47:30Z</time>
      </trkpt>
      <trkpt lat="46.51628" lon="4.50763">
        <ele>274.59298706055</ele>
        <time>2020-05-12T10:47:35Z</time>
      </trkpt>
      <trkpt lat="46.51632" lon="4.50753">
        <ele>273.59298706055</ele>
        <time>2020-05-12T10:47:40Z</time>
      </trkpt>
      <trkpt lat="46.51634" lon="4.50744">
        <ele>273.59298706055</ele>
        <time>2020-05-12T10:47:45Z</time>
      </trkpt>
      <trkpt lat="46.51637" lon="4.50734">
        <ele>272.59298706055</ele>
        <time>2020-05-12T10:47:50Z</time>
      </trkpt>
      <trkpt lat="46.51642" lon="4.50726">
        <ele>271.59298706055</ele>
        <time>2020-05-12T10:47:55Z</time>
      </trkpt>
      <trkpt lat="46.51648" lon="4.50722">
        <ele>267.59298706055</ele>
        <time>2020-05-12T10:48:00Z</time>
      </trkpt>
      <trkpt lat="46.51655" lon="4.50718">
        <ele>264.59298706055</ele>
        <time>2020-05-12T10:48:05Z</time>
      </trkpt>
      <trkpt lat="46.5166" lon="4.50711">
        <ele>266.59298706055</ele>
        <time>2020-05-12T10:48:10Z</time>
      </trkpt>
      <trkpt lat="46.51666" lon="4.50704">
        <ele>270.59298706055</ele>
        <time>2020-05-12T10:48:15Z</time>
      </trkpt>
      <trkpt lat="46.51672" lon="4.50699">
        <ele>274.59298706055</ele>
        <time>2020-05-12T10:48:20Z</time>
      </trkpt>
      <trkpt lat="46.51679" lon="4.50697">
        <ele>275.59298706055</ele>
        <time>2020-05-12T10:48:25Z</time>
      </trkpt>
      <trkpt lat="46.51688" lon="4.50698">
        <ele>278.59298706055</ele>
        <time>2020-05-12T10:48:30Z</time>
      </trkpt>
      <trkpt lat="46.51692" lon="4.50689">
        <ele>278.59298706055</ele>
        <time>2020-05-12T10:48:35Z</time>
      </trkpt>
      <trkpt lat="46.51699" lon="4.50685">
        <ele>276.59298706055</ele>
        <time>2020-05-12T10:48:40Z</time>
      </trkpt>
      <trkpt lat="46.51709" lon="4.50692">
        <ele>273.59298706055</ele>
        <time>2020-05-12T10:48:45Z</time>
      </trkpt>
      <trkpt lat="46.51711" lon="4.50679">
        <ele>275.59298706055</ele>
        <time>2020-05-12T10:48:50Z</time>
      </trkpt>
      <trkpt lat="46.5171" lon="4.50664">
        <ele>275.59298706055</ele>
        <time>2020-05-12T10:48:55Z</time>
      </trkpt>
      <trkpt lat="46.51713" lon="4.50654">
        <ele>276.59298706055</ele>
        <time>2020-05-12T10:49:00Z</time>
      </trkpt>
      <trkpt lat="46.51718" lon="4.50647">
        <ele>274.59298706055</ele>
        <time>2020-05-12T10:49:05Z</time>
      </trkpt>
      <trkpt lat="46.51723" lon="4.5064">
        <ele>274.59298706055</ele>
        <time>2020-05-12T10:49:10Z</time>
      </trkpt>
      <trkpt lat="46.51728" lon="4.50632">
        <ele>273.59298706055</ele>
        <time>2020-05-12T10:49:15Z</time>
      </trkpt>
      <trkpt lat="46.51733" lon="4.50624">
        <ele>272.59298706055</ele>
        <time>2020-05-12T10:49:20Z</time>
      </trkpt>
      <trkpt lat="46.51736" lon="4.50614">
        <ele>273.59298706055</ele>
        <time>2020-05-12T10:49:25Z</time>
      </trkpt>
      <trkpt lat="46.51738" lon="4.50601">
        <ele>274.59298706055</ele>
        <time>2020-05-12T10:49:30Z</time>
      </trkpt>
      <trkpt lat="46.5174" lon="4.5059">
        <ele>275.59298706055</ele>
        <time>2020-05-12T10:49:35Z</time>
      </trkpt>
      <trkpt lat="46.51741" lon="4.5058">
        <ele>276.59298706055</ele>
        <time>2020-05-12T10:49:40Z</time>
      </trkpt>
      <trkpt lat="46.51742" lon="4.50569">
        <ele>275.59298706055</ele>
        <time>2020-05-12T10:49:45Z</time>
      </trkpt>
      <trkpt lat="46.51742" lon="4.50557">
        <ele>277.59298706055</ele>
        <time>2020-05-12T10:49:50Z</time>
      </trkpt>
      <trkpt lat="46.51741" lon="4.50546">
        <ele>279.59298706055</ele>
        <time>2020-05-12T10:49:55Z</time>
      </trkpt>
      <trkpt lat="46.51741" lon="4.50535">
        <ele>279.59298706055</ele>
        <time>2020-05-12T10:50:00Z</time>
      </trkpt>
      <trkpt lat="46.51739" lon="4.50526">
        <ele>278.59298706055</ele>
        <time>2020-05-12T10:50:05Z</time>
      </trkpt>
      <trkpt lat="46.51738" lon="4.50515">
        <ele>280.59298706055</ele>
        <time>2020-05-12T10:50:10Z</time>
      </trkpt>
      <trkpt lat="46.51737" lon="4.50504">
        <ele>277.59298706055</ele>
        <time>2020-05-12T10:50:16Z</time>
      </trkpt>
      <trkpt lat="46.51735" lon="4.50495">
        <ele>273.59298706055</ele>
        <time>2020-05-12T10:50:22Z</time>
      </trkpt>
      <trkpt lat="46.51731" lon="4.50485">
        <ele>273.59298706055</ele>
        <time>2020-05-12T10:50:27Z</time>
      </trkpt>
      <trkpt lat="46.51725" lon="4.50477">
        <ele>274.59298706055</ele>
        <time>2020-05-12T10:50:33Z</time>
      </trkpt>
      <trkpt lat="46.51719" lon="4.50471">
        <ele>275.59298706055</ele>
        <time>2020-05-12T10:50:38Z</time>
      </trkpt>
      <trkpt lat="46.51714" lon="4.50463">
        <ele>275.59298706055</ele>
        <time>2020-05-12T10:50:43Z</time>
      </trkpt>
      <trkpt lat="46.51709" lon="4.50454">
        <ele>274.59298706055</ele>
        <time>2020-05-12T10:50:48Z</time>
      </trkpt>
      <trkpt lat="46.51706" lon="4.50445">
        <ele>274.59298706055</ele>
        <time>2020-05-12T10:50:53Z</time>
      </trkpt>
      <trkpt lat="46.51704" lon="4.50436">
        <ele>273.59298706055</ele>
        <time>2020-05-12T10:50:58Z</time>
      </trkpt>
      <trkpt lat="46.51703" lon="4.50426">
        <ele>273.59298706055</ele>
        <time>2020-05-12T10:51:03Z</time>
      </trkpt>
      <trkpt lat="46.51701" lon="4.50415">
        <ele>275.59201049805</ele>
        <time>2020-05-12T10:51:08Z</time>
      </trkpt>
      <trkpt lat="46.517" lon="4.50405">
        <ele>274.59201049805</ele>
        <time>2020-05-12T10:51:13Z</time>
      </trkpt>
      <trkpt lat="46.51699" lon="4.50395">
        <ele>275.59201049805</ele>
        <time>2020-05-12T10:51:19Z</time>
      </trkpt>
      <trkpt lat="46.51699" lon="4.50383">
        <ele>275.59201049805</ele>
        <time>2020-05-12T10:51:25Z</time>
      </trkpt>
      <trkpt lat="46.51701" lon="4.50372">
        <ele>275.59201049805</ele>
        <time>2020-05-12T10:51:31Z</time>
      </trkpt>
      <trkpt lat="46.517" lon="4.50362">
        <ele>275.59201049805</ele>
        <time>2020-05-12T10:51:36Z</time>
      </trkpt>
      <trkpt lat="46.51701" lon="4.50351">
        <ele>275.59201049805</ele>
        <time>2020-05-12T10:51:42Z</time>
      </trkpt>
      <trkpt lat="46.51701" lon="4.5034">
        <ele>277.59201049805</ele>
        <time>2020-05-12T10:51:48Z</time>
      </trkpt>
      <trkpt lat="46.51704" lon="4.5033">
        <ele>278.59201049805</ele>
        <time>2020-05-12T10:51:54Z</time>
      </trkpt>
      <trkpt lat="46.51706" lon="4.50318">
        <ele>280.59201049805</ele>
        <time>2020-05-12T10:51:59Z</time>
      </trkpt>
      <trkpt lat="46.51707" lon="4.50307">
        <ele>280.59201049805</ele>
        <time>2020-05-12T10:52:04Z</time>
      </trkpt>
      <trkpt lat="46.51708" lon="4.50294">
        <ele>283.59201049805</ele>
        <time>2020-05-12T10:52:09Z</time>
      </trkpt>
      <trkpt lat="46.51708" lon="4.50283">
        <ele>281.59201049805</ele>
        <time>2020-05-12T10:52:14Z</time>
      </trkpt>
      <trkpt lat="46.51706" lon="4.50271">
        <ele>280.59201049805</ele>
        <time>2020-05-12T10:52:19Z</time>
      </trkpt>
      <trkpt lat="46.51704" lon="4.5026">
        <ele>281.59201049805</ele>
        <time>2020-05-12T10:52:24Z</time>
      </trkpt>
      <trkpt lat="46.51702" lon="4.50248">
        <ele>282.59201049805</ele>
        <time>2020-05-12T10:52:29Z</time>
      </trkpt>
      <trkpt lat="46.517" lon="4.50237">
        <ele>282.59201049805</ele>
        <time>2020-05-12T10:52:34Z</time>
      </trkpt>
      <trkpt lat="46.51698" lon="4.50228">
        <ele>281.59201049805</ele>
        <time>2020-05-12T10:52:39Z</time>
      </trkpt>
      <trkpt lat="46.51696" lon="4.50218">
        <ele>281.59201049805</ele>
        <time>2020-05-12T10:52:44Z</time>
      </trkpt>
      <trkpt lat="46.51692" lon="4.50206">
        <ele>281.59201049805</ele>
        <time>2020-05-12T10:52:49Z</time>
      </trkpt>
      <trkpt lat="46.51689" lon="4.50195">
        <ele>280.59201049805</ele>
        <time>2020-05-12T10:52:54Z</time>
      </trkpt>
      <trkpt lat="46.51687" lon="4.50187">
        <ele>278.59201049805</ele>
        <time>2020-05-12T10:52:59Z</time>
      </trkpt>
      <trkpt lat="46.51684" lon="4.50177">
        <ele>276.59201049805</ele>
        <time>2020-05-12T10:53:04Z</time>
      </trkpt>
      <trkpt lat="46.51681" lon="4.50165">
        <ele>275.59201049805</ele>
        <time>2020-05-12T10:53:09Z</time>
      </trkpt>
      <trkpt lat="46.51678" lon="4.50154">
        <ele>275.59201049805</ele>
        <time>2020-05-12T10:53:14Z</time>
      </trkpt>
      <trkpt lat="46.51676" lon="4.50143">
        <ele>275.59201049805</ele>
        <time>2020-05-12T10:53:19Z</time>
      </trkpt>
      <trkpt lat="46.51674" lon="4.50134">
        <ele>275.59201049805</ele>
        <time>2020-05-12T10:53:24Z</time>
      </trkpt>
      <trkpt lat="46.51672" lon="4.50124">
        <ele>273.59201049805</ele>
        <time>2020-05-12T10:53:29Z</time>
      </trkpt>
      <trkpt lat="46.51669" lon="4.50113">
        <ele>273.59201049805</ele>
        <time>2020-05-12T10:53:34Z</time>
      </trkpt>
      <trkpt lat="46.51666" lon="4.50102">
        <ele>274.59201049805</ele>
        <time>2020-05-12T10:53:39Z</time>
      </trkpt>
      <trkpt lat="46.51664" lon="4.50092">
        <ele>274.59201049805</ele>
        <time>2020-05-12T10:53:44Z</time>
      </trkpt>
      <trkpt lat="46.51664" lon="4.50082">
        <ele>273.59201049805</ele>
        <time>2020-05-12T10:53:49Z</time>
      </trkpt>
      <trkpt lat="46.51663" lon="4.50071">
        <ele>272.59201049805</ele>
        <time>2020-05-12T10:53:55Z</time>
      </trkpt>
      <trkpt lat="46.51663" lon="4.5006">
        <ele>271.59201049805</ele>
        <time>2020-05-12T10:54:00Z</time>
      </trkpt>
      <trkpt lat="46.51664" lon="4.5005">
        <ele>270.59201049805</ele>
        <time>2020-05-12T10:54:05Z</time>
      </trkpt>
      <trkpt lat="46.51668" lon="4.50041">
        <ele>268.59201049805</ele>
        <time>2020-05-12T10:54:10Z</time>
      </trkpt>
      <trkpt lat="46.51673" lon="4.50033">
        <ele>267.59201049805</ele>
        <time>2020-05-12T10:54:15Z</time>
      </trkpt>
      <trkpt lat="46.51675" lon="4.50024">
        <ele>269.59201049805</ele>
        <time>2020-05-12T10:54:20Z</time>
      </trkpt>
      <trkpt lat="46.51678" lon="4.50014">
        <ele>267.59201049805</ele>
        <time>2020-05-12T10:54:25Z</time>
      </trkpt>
      <trkpt lat="46.51683" lon="4.50006">
        <ele>265.59201049805</ele>
        <time>2020-05-12T10:54:31Z</time>
      </trkpt>
      <trkpt lat="46.51686" lon="4.49997">
        <ele>268.59201049805</ele>
        <time>2020-05-12T10:54:38Z</time>
      </trkpt>
      <trkpt lat="46.51682" lon="4.49985">
        <ele>271.59201049805</ele>
        <time>2020-05-12T10:54:43Z</time>
      </trkpt>
      <trkpt lat="46.51678" lon="4.49976">
        <ele>270.59201049805</ele>
        <time>2020-05-12T10:54:49Z</time>
      </trkpt>
      <trkpt lat="46.51676" lon="4.49966">
        <ele>270.59201049805</ele>
        <time>2020-05-12T10:54:54Z</time>
      </trkpt>
      <trkpt lat="46.51673" lon="4.49955">
        <ele>271.59201049805</ele>
        <time>2020-05-12T10:54:59Z</time>
      </trkpt>
      <trkpt lat="46.5167" lon="4.49945">
        <ele>271.59201049805</ele>
        <time>2020-05-12T10:55:04Z</time>
      </trkpt>
      <trkpt lat="46.51667" lon="4.49935">
        <ele>270.59201049805</ele>
        <time>2020-05-12T10:55:09Z</time>
      </trkpt>
      <trkpt lat="46.51665" lon="4.49925">
        <ele>270.59201049805</ele>
        <time>2020-05-12T10:55:15Z</time>
      </trkpt>
      <trkpt lat="46.51663" lon="4.49914">
        <ele>271.59201049805</ele>
        <time>2020-05-12T10:55:20Z</time>
      </trkpt>
      <trkpt lat="46.51661" lon="4.49903">
        <ele>270.59201049805</ele>
        <time>2020-05-12T10:55:25Z</time>
      </trkpt>
      <trkpt lat="46.51658" lon="4.49894">
        <ele>269.59201049805</ele>
        <time>2020-05-12T10:55:30Z</time>
      </trkpt>
      <trkpt lat="46.51655" lon="4.49884">
        <ele>269.59201049805</ele>
        <time>2020-05-12T10:55:35Z</time>
      </trkpt>
      <trkpt lat="46.51654" lon="4.49874">
        <ele>269.59201049805</ele>
        <time>2020-05-12T10:55:40Z</time>
      </trkpt>
      <trkpt lat="46.51653" lon="4.49862">
        <ele>268.59201049805</ele>
        <time>2020-05-12T10:55:46Z</time>
      </trkpt>
      <trkpt lat="46.51652" lon="4.49852">
        <ele>269.59201049805</ele>
        <time>2020-05-12T10:55:51Z</time>
      </trkpt>
      <trkpt lat="46.51652" lon="4.49841">
        <ele>271.59201049805</ele>
        <time>2020-05-12T10:55:56Z</time>
      </trkpt>
      <trkpt lat="46.51655" lon="4.49829">
        <ele>271.59201049805</ele>
        <time>2020-05-12T10:56:02Z</time>
      </trkpt>
      <trkpt lat="46.51654" lon="4.49818">
        <ele>271.59201049805</ele>
        <time>2020-05-12T10:56:07Z</time>
      </trkpt>
      <trkpt lat="46.51653" lon="4.49809">
        <ele>271.59201049805</ele>
        <time>2020-05-12T10:56:12Z</time>
      </trkpt>
      <trkpt lat="46.51652" lon="4.49799">
        <ele>271.59201049805</ele>
        <time>2020-05-12T10:56:17Z</time>
      </trkpt>
      <trkpt lat="46.51653" lon="4.49789">
        <ele>270.59201049805</ele>
        <time>2020-05-12T10:56:22Z</time>
      </trkpt>
      <trkpt lat="46.51652" lon="4.49779">
        <ele>271.59201049805</ele>
        <time>2020-05-12T10:56:27Z</time>
      </trkpt>
      <trkpt lat="46.51652" lon="4.49768">
        <ele>271.59201049805</ele>
        <time>2020-05-12T10:56:32Z</time>
      </trkpt>
      <trkpt lat="46.51653" lon="4.49757">
        <ele>270.59201049805</ele>
        <time>2020-05-12T10:56:37Z</time>
      </trkpt>
      <trkpt lat="46.51653" lon="4.49747">
        <ele>270.59201049805</ele>
        <time>2020-05-12T10:56:42Z</time>
      </trkpt>
      <trkpt lat="46.51655" lon="4.49737">
        <ele>270.59201049805</ele>
        <time>2020-05-12T10:56:47Z</time>
      </trkpt>
      <trkpt lat="46.51655" lon="4.49727">
        <ele>270.59201049805</ele>
        <time>2020-05-12T10:56:52Z</time>
      </trkpt>
      <trkpt lat="46.51657" lon="4.49717">
        <ele>268.59201049805</ele>
        <time>2020-05-12T10:56:58Z</time>
      </trkpt>
      <trkpt lat="46.5166" lon="4.49708">
        <ele>268.59201049805</ele>
        <time>2020-05-12T10:57:03Z</time>
      </trkpt>
      <trkpt lat="46.51664" lon="4.497">
        <ele>267.59201049805</ele>
        <time>2020-05-12T10:57:08Z</time>
      </trkpt>
      <trkpt lat="46.51666" lon="4.49691">
        <ele>265.59201049805</ele>
        <time>2020-05-12T10:57:13Z</time>
      </trkpt>
      <trkpt lat="46.51669" lon="4.4968">
        <ele>266.59201049805</ele>
        <time>2020-05-12T10:57:19Z</time>
      </trkpt>
      <trkpt lat="46.51671" lon="4.49667">
        <ele>269.59201049805</ele>
        <time>2020-05-12T10:57:24Z</time>
      </trkpt>
      <trkpt lat="46.51677" lon="4.49658">
        <ele>270.59201049805</ele>
        <time>2020-05-12T10:57:29Z</time>
      </trkpt>
      <trkpt lat="46.51681" lon="4.49651">
        <ele>271.59201049805</ele>
        <time>2020-05-12T10:57:34Z</time>
      </trkpt>
      <trkpt lat="46.51685" lon="4.49642">
        <ele>271.59201049805</ele>
        <time>2020-05-12T10:57:39Z</time>
      </trkpt>
      <trkpt lat="46.51689" lon="4.49634">
        <ele>269.59201049805</ele>
        <time>2020-05-12T10:57:44Z</time>
      </trkpt>
      <trkpt lat="46.51691" lon="4.49625">
        <ele>270.59201049805</ele>
        <time>2020-05-12T10:57:49Z</time>
      </trkpt>
      <trkpt lat="46.51695" lon="4.49616">
        <ele>270.59201049805</ele>
        <time>2020-05-12T10:57:54Z</time>
      </trkpt>
      <trkpt lat="46.51698" lon="4.49607">
        <ele>271.59201049805</ele>
        <time>2020-05-12T10:57:59Z</time>
      </trkpt>
      <trkpt lat="46.51702" lon="4.49598">
        <ele>270.59201049805</ele>
        <time>2020-05-12T10:58:05Z</time>
      </trkpt>
      <trkpt lat="46.51704" lon="4.49589">
        <ele>270.59201049805</ele>
        <time>2020-05-12T10:58:10Z</time>
      </trkpt>
      <trkpt lat="46.51708" lon="4.4958">
        <ele>270.59201049805</ele>
        <time>2020-05-12T10:58:15Z</time>
      </trkpt>
      <trkpt lat="46.51711" lon="4.49571">
        <ele>271.59201049805</ele>
        <time>2020-05-12T10:58:20Z</time>
      </trkpt>
      <trkpt lat="46.51714" lon="4.49561">
        <ele>270.59201049805</ele>
        <time>2020-05-12T10:58:26Z</time>
      </trkpt>
      <trkpt lat="46.51716" lon="4.49551">
        <ele>269.59201049805</ele>
        <time>2020-05-12T10:58:32Z</time>
      </trkpt>
      <trkpt lat="46.51715" lon="4.4954">
        <ele>271.59201049805</ele>
        <time>2020-05-12T10:58:37Z</time>
      </trkpt>
      <trkpt lat="46.51713" lon="4.49529">
        <ele>272.59201049805</ele>
        <time>2020-05-12T10:58:42Z</time>
      </trkpt>
      <trkpt lat="46.51711" lon="4.49518">
        <ele>273.59201049805</ele>
        <time>2020-05-12T10:58:47Z</time>
      </trkpt>
      <trkpt lat="46.51709" lon="4.49508">
        <ele>274.59201049805</ele>
        <time>2020-05-12T10:58:52Z</time>
      </trkpt>
      <trkpt lat="46.51706" lon="4.49498">
        <ele>275.59201049805</ele>
        <time>2020-05-12T10:58:57Z</time>
      </trkpt>
      <trkpt lat="46.51704" lon="4.49488">
        <ele>274.59201049805</ele>
        <time>2020-05-12T10:59:02Z</time>
      </trkpt>
      <trkpt lat="46.51701" lon="4.49477">
        <ele>273.59201049805</ele>
        <time>2020-05-12T10:59:09Z</time>
      </trkpt>
      <trkpt lat="46.51698" lon="4.49467">
        <ele>273.59201049805</ele>
        <time>2020-05-12T10:59:14Z</time>
      </trkpt>
      <trkpt lat="46.51696" lon="4.49458">
        <ele>274.59201049805</ele>
        <time>2020-05-12T10:59:19Z</time>
      </trkpt>
      <trkpt lat="46.51694" lon="4.49448">
        <ele>274.59201049805</ele>
        <time>2020-05-12T10:59:24Z</time>
      </trkpt>
      <trkpt lat="46.51691" lon="4.49439">
        <ele>276.59201049805</ele>
        <time>2020-05-12T10:59:29Z</time>
      </trkpt>
      <trkpt lat="46.5169" lon="4.49429">
        <ele>276.59201049805</ele>
        <time>2020-05-12T10:59:34Z</time>
      </trkpt>
      <trkpt lat="46.5169" lon="4.49418">
        <ele>276.59201049805</ele>
        <time>2020-05-12T10:59:40Z</time>
      </trkpt>
      <trkpt lat="46.51689" lon="4.49408">
        <ele>276.59201049805</ele>
        <time>2020-05-12T10:59:45Z</time>
      </trkpt>
      <trkpt lat="46.51687" lon="4.49397">
        <ele>276.59201049805</ele>
        <time>2020-05-12T10:59:51Z</time>
      </trkpt>
      <trkpt lat="46.51685" lon="4.49387">
        <ele>276.59201049805</ele>
        <time>2020-05-12T10:59:56Z</time>
      </trkpt>
      <trkpt lat="46.51683" lon="4.49376">
        <ele>277.59201049805</ele>
        <time>2020-05-12T11:00:02Z</time>
      </trkpt>
      <trkpt lat="46.51681" lon="4.49367">
        <ele>277.59201049805</ele>
        <time>2020-05-12T11:00:07Z</time>
      </trkpt>
      <trkpt lat="46.51678" lon="4.49357">
        <ele>276.59201049805</ele>
        <time>2020-05-12T11:00:12Z</time>
      </trkpt>
      <trkpt lat="46.51674" lon="4.49348">
        <ele>276.59201049805</ele>
        <time>2020-05-12T11:00:17Z</time>
      </trkpt>
      <trkpt lat="46.51671" lon="4.4934">
        <ele>276.59201049805</ele>
        <time>2020-05-12T11:00:22Z</time>
      </trkpt>
      <trkpt lat="46.51666" lon="4.49332">
        <ele>277.59201049805</ele>
        <time>2020-05-12T11:00:27Z</time>
      </trkpt>
      <trkpt lat="46.51662" lon="4.49323">
        <ele>277.59201049805</ele>
        <time>2020-05-12T11:00:32Z</time>
      </trkpt>
      <trkpt lat="46.51658" lon="4.49314">
        <ele>277.59201049805</ele>
        <time>2020-05-12T11:00:38Z</time>
      </trkpt>
      <trkpt lat="46.51654" lon="4.49305">
        <ele>277.59201049805</ele>
        <time>2020-05-12T11:00:43Z</time>
      </trkpt>
      <trkpt lat="46.51652" lon="4.49295">
        <ele>279.59201049805</ele>
        <time>2020-05-12T11:00:48Z</time>
      </trkpt>
      <trkpt lat="46.51649" lon="4.49285">
        <ele>281.59201049805</ele>
        <time>2020-05-12T11:00:53Z</time>
      </trkpt>
      <trkpt lat="46.51647" lon="4.49275">
        <ele>282.59100341797</ele>
        <time>2020-05-12T11:00:58Z</time>
      </trkpt>
      <trkpt lat="46.51647" lon="4.49264">
        <ele>283.59100341797</ele>
        <time>2020-05-12T11:01:04Z</time>
      </trkpt>
      <trkpt lat="46.51648" lon="4.49253">
        <ele>284.59100341797</ele>
        <time>2020-05-12T11:01:09Z</time>
      </trkpt>
      <trkpt lat="46.51649" lon="4.49243">
        <ele>282.59100341797</ele>
        <time>2020-05-12T11:02:19Z</time>
      </trkpt>
      <trkpt lat="46.51651" lon="4.49233">
        <ele>282.59100341797</ele>
        <time>2020-05-12T11:02:24Z</time>
      </trkpt>
      <trkpt lat="46.51654" lon="4.49224">
        <ele>279.59100341797</ele>
        <time>2020-05-12T11:02:30Z</time>
      </trkpt>
      <trkpt lat="46.51656" lon="4.49214">
        <ele>281.59100341797</ele>
        <time>2020-05-12T11:02:35Z</time>
      </trkpt>
      <trkpt lat="46.51659" lon="4.49203">
        <ele>280.59100341797</ele>
        <time>2020-05-12T11:02:41Z</time>
      </trkpt>
      <trkpt lat="46.51663" lon="4.49194">
        <ele>280.59100341797</ele>
        <time>2020-05-12T11:02:47Z</time>
      </trkpt>
      <trkpt lat="46.51666" lon="4.49185">
        <ele>280.59100341797</ele>
        <time>2020-05-12T11:02:52Z</time>
      </trkpt>
      <trkpt lat="46.5167" lon="4.49177">
        <ele>279.59100341797</ele>
        <time>2020-05-12T11:02:57Z</time>
      </trkpt>
      <trkpt lat="46.51672" lon="4.49166">
        <ele>282.59100341797</ele>
        <time>2020-05-12T11:03:02Z</time>
      </trkpt>
      <trkpt lat="46.51675" lon="4.49157">
        <ele>282.59100341797</ele>
        <time>2020-05-12T11:03:07Z</time>
      </trkpt>
      <trkpt lat="46.51678" lon="4.49148">
        <ele>281.59100341797</ele>
        <time>2020-05-12T11:03:13Z</time>
      </trkpt>
      <trkpt lat="46.51679" lon="4.49137">
        <ele>281.59100341797</ele>
        <time>2020-05-12T11:03:19Z</time>
      </trkpt>
      <trkpt lat="46.51677" lon="4.49125">
        <ele>281.59100341797</ele>
        <time>2020-05-12T11:03:25Z</time>
      </trkpt>
      <trkpt lat="46.51677" lon="4.49114">
        <ele>283.59100341797</ele>
        <time>2020-05-12T11:03:30Z</time>
      </trkpt>
      <trkpt lat="46.51677" lon="4.49104">
        <ele>282.59100341797</ele>
        <time>2020-05-12T11:03:35Z</time>
      </trkpt>
      <trkpt lat="46.51679" lon="4.49095">
        <ele>281.59100341797</ele>
        <time>2020-05-12T11:03:41Z</time>
      </trkpt>
      <trkpt lat="46.51683" lon="4.49086">
        <ele>278.59100341797</ele>
        <time>2020-05-12T11:03:48Z</time>
      </trkpt>
      <trkpt lat="46.51685" lon="4.49075">
        <ele>275.59100341797</ele>
        <time>2020-05-12T11:03:56Z</time>
      </trkpt>
      <trkpt lat="46.51686" lon="4.49062">
        <ele>278.59100341797</ele>
        <time>2020-05-12T11:04:01Z</time>
      </trkpt>
      <trkpt lat="46.51687" lon="4.49051">
        <ele>280.59100341797</ele>
        <time>2020-05-12T11:04:06Z</time>
      </trkpt>
      <trkpt lat="46.51687" lon="4.4904">
        <ele>281.59100341797</ele>
        <time>2020-05-12T11:04:11Z</time>
      </trkpt>
      <trkpt lat="46.51687" lon="4.49029">
        <ele>281.59100341797</ele>
        <time>2020-05-12T11:04:16Z</time>
      </trkpt>
      <trkpt lat="46.51687" lon="4.49017">
        <ele>283.59100341797</ele>
        <time>2020-05-12T11:04:21Z</time>
      </trkpt>
      <trkpt lat="46.51689" lon="4.49008">
        <ele>283.59100341797</ele>
        <time>2020-05-12T11:04:26Z</time>
      </trkpt>
      <trkpt lat="46.51691" lon="4.48997">
        <ele>282.59100341797</ele>
        <time>2020-05-12T11:04:31Z</time>
      </trkpt>
      <trkpt lat="46.51691" lon="4.48988">
        <ele>282.59100341797</ele>
        <time>2020-05-12T11:04:36Z</time>
      </trkpt>
      <trkpt lat="46.51692" lon="4.48978">
        <ele>282.59100341797</ele>
        <time>2020-05-12T11:04:41Z</time>
      </trkpt>
      <trkpt lat="46.51692" lon="4.48968">
        <ele>283.59100341797</ele>
        <time>2020-05-12T11:04:46Z</time>
      </trkpt>
      <trkpt lat="46.51692" lon="4.48957">
        <ele>285.59100341797</ele>
        <time>2020-05-12T11:04:51Z</time>
      </trkpt>
      <trkpt lat="46.51692" lon="4.48946">
        <ele>286.59100341797</ele>
        <time>2020-05-12T11:04:56Z</time>
      </trkpt>
      <trkpt lat="46.51691" lon="4.48935">
        <ele>287.59100341797</ele>
        <time>2020-05-12T11:05:01Z</time>
      </trkpt>
      <trkpt lat="46.5169" lon="4.48925">
        <ele>288.59100341797</ele>
        <time>2020-05-12T11:05:06Z</time>
      </trkpt>
      <trkpt lat="46.51688" lon="4.48915">
        <ele>288.59100341797</ele>
        <time>2020-05-12T11:05:11Z</time>
      </trkpt>
      <trkpt lat="46.51685" lon="4.48905">
        <ele>290.59100341797</ele>
        <time>2020-05-12T11:05:16Z</time>
      </trkpt>
      <trkpt lat="46.51681" lon="4.48895">
        <ele>287.59100341797</ele>
        <time>2020-05-12T11:05:23Z</time>
      </trkpt>
      <trkpt lat="46.51676" lon="4.48886">
        <ele>287.59100341797</ele>
        <time>2020-05-12T11:05:29Z</time>
      </trkpt>
      <trkpt lat="46.51673" lon="4.48877">
        <ele>285.59100341797</ele>
        <time>2020-05-12T11:05:36Z</time>
      </trkpt>
      <trkpt lat="46.51671" lon="4.48868">
        <ele>285.59100341797</ele>
        <time>2020-05-12T11:05:41Z</time>
      </trkpt>
      <trkpt lat="46.51669" lon="4.48858">
        <ele>287.59100341797</ele>
        <time>2020-05-12T11:05:46Z</time>
      </trkpt>
      <trkpt lat="46.51657" lon="4.48854">
        <ele>289.59100341797</ele>
        <time>2020-05-12T11:05:51Z</time>
      </trkpt>
      <trkpt lat="46.51653" lon="4.48846">
        <ele>291.59100341797</ele>
        <time>2020-05-12T11:05:56Z</time>
      </trkpt>
      <trkpt lat="46.51647" lon="4.48839">
        <ele>292.59100341797</ele>
        <time>2020-05-12T11:06:01Z</time>
      </trkpt>
      <trkpt lat="46.51646" lon="4.48828">
        <ele>290.59100341797</ele>
        <time>2020-05-12T11:06:06Z</time>
      </trkpt>
      <trkpt lat="46.51637" lon="4.48823">
        <ele>293.59100341797</ele>
        <time>2020-05-12T11:06:11Z</time>
      </trkpt>
      <trkpt lat="46.51633" lon="4.48811">
        <ele>295.59100341797</ele>
        <time>2020-05-12T11:06:16Z</time>
      </trkpt>
      <trkpt lat="46.51628" lon="4.48805">
        <ele>295.59100341797</ele>
        <time>2020-05-12T11:06:21Z</time>
      </trkpt>
      <trkpt lat="46.51627" lon="4.48795">
        <ele>294.59100341797</ele>
        <time>2020-05-12T11:06:27Z</time>
      </trkpt>
      <trkpt lat="46.51622" lon="4.48788">
        <ele>297.59100341797</ele>
        <time>2020-05-12T11:06:32Z</time>
      </trkpt>
      <trkpt lat="46.51617" lon="4.48781">
        <ele>296.59100341797</ele>
        <time>2020-05-12T11:06:37Z</time>
      </trkpt>
      <trkpt lat="46.51613" lon="4.48773">
        <ele>294.59100341797</ele>
        <time>2020-05-12T11:06:43Z</time>
      </trkpt>
      <trkpt lat="46.51613" lon="4.48763">
        <ele>293.59100341797</ele>
        <time>2020-05-12T11:06:48Z</time>
      </trkpt>
      <trkpt lat="46.51616" lon="4.48752">
        <ele>292.59100341797</ele>
        <time>2020-05-12T11:06:53Z</time>
      </trkpt>
      <trkpt lat="46.51617" lon="4.48742">
        <ele>292.59100341797</ele>
        <time>2020-05-12T11:06:58Z</time>
      </trkpt>
      <trkpt lat="46.51617" lon="4.48731">
        <ele>292.59100341797</ele>
        <time>2020-05-12T11:07:03Z</time>
      </trkpt>
      <trkpt lat="46.51617" lon="4.4872">
        <ele>292.59100341797</ele>
        <time>2020-05-12T11:07:09Z</time>
      </trkpt>
      <trkpt lat="46.51613" lon="4.48708">
        <ele>298.59100341797</ele>
        <time>2020-05-12T11:07:15Z</time>
      </trkpt>
      <trkpt lat="46.51611" lon="4.48697">
        <ele>300.59100341797</ele>
        <time>2020-05-12T11:07:21Z</time>
      </trkpt>
      <trkpt lat="46.5161" lon="4.48687">
        <ele>301.59100341797</ele>
        <time>2020-05-12T11:07:26Z</time>
      </trkpt>
      <trkpt lat="46.5161" lon="4.48677">
        <ele>303.59100341797</ele>
        <time>2020-05-12T11:07:31Z</time>
      </trkpt>
      <trkpt lat="46.51609" lon="4.48667">
        <ele>307.59100341797</ele>
        <time>2020-05-12T11:07:37Z</time>
      </trkpt>
      <trkpt lat="46.5161" lon="4.48657">
        <ele>306.59100341797</ele>
        <time>2020-05-12T11:07:43Z</time>
      </trkpt>
      <trkpt lat="46.51609" lon="4.48646">
        <ele>309.59100341797</ele>
        <time>2020-05-12T11:07:48Z</time>
      </trkpt>
      <trkpt lat="46.51608" lon="4.48636">
        <ele>310.59100341797</ele>
        <time>2020-05-12T11:07:53Z</time>
      </trkpt>
      <trkpt lat="46.51608" lon="4.48626">
        <ele>310.59100341797</ele>
        <time>2020-05-12T11:07:58Z</time>
      </trkpt>
      <trkpt lat="46.51606" lon="4.48615">
        <ele>310.59100341797</ele>
        <time>2020-05-12T11:08:03Z</time>
      </trkpt>
      <trkpt lat="46.51607" lon="4.48605">
        <ele>309.59100341797</ele>
        <time>2020-05-12T11:08:09Z</time>
      </trkpt>
      <trkpt lat="46.51604" lon="4.48596">
        <ele>307.59100341797</ele>
        <time>2020-05-12T11:08:14Z</time>
      </trkpt>
      <trkpt lat="46.51602" lon="4.48586">
        <ele>308.59100341797</ele>
        <time>2020-05-12T11:08:20Z</time>
      </trkpt>
      <trkpt lat="46.51597" lon="4.48577">
        <ele>311.59100341797</ele>
        <time>2020-05-12T11:08:25Z</time>
      </trkpt>
      <trkpt lat="46.51594" lon="4.48569">
        <ele>310.59100341797</ele>
        <time>2020-05-12T11:08:30Z</time>
      </trkpt>
      <trkpt lat="46.51592" lon="4.4856">
        <ele>309.59100341797</ele>
        <time>2020-05-12T11:08:36Z</time>
      </trkpt>
      <trkpt lat="46.51589" lon="4.4855">
        <ele>308.59100341797</ele>
        <time>2020-05-12T11:08:42Z</time>
      </trkpt>
      <trkpt lat="46.51585" lon="4.48542">
        <ele>308.59100341797</ele>
        <time>2020-05-12T11:08:47Z</time>
      </trkpt>
      <trkpt lat="46.5158" lon="4.48534">
        <ele>309.59100341797</ele>
        <time>2020-05-12T11:08:52Z</time>
      </trkpt>
      <trkpt lat="46.51574" lon="4.48527">
        <ele>311.59100341797</ele>
        <time>2020-05-12T11:08:57Z</time>
      </trkpt>
      <trkpt lat="46.51569" lon="4.48519">
        <ele>310.59100341797</ele>
        <time>2020-05-12T11:09:04Z</time>
      </trkpt>
      <trkpt lat="46.51565" lon="4.4851">
        <ele>311.59100341797</ele>
        <time>2020-05-12T11:09:10Z</time>
      </trkpt>
      <trkpt lat="46.51559" lon="4.48503">
        <ele>312.59100341797</ele>
        <time>2020-05-12T11:09:15Z</time>
      </trkpt>
      <trkpt lat="46.51555" lon="4.48495">
        <ele>311.59100341797</ele>
        <time>2020-05-12T11:09:22Z</time>
      </trkpt>
      <trkpt lat="46.51548" lon="4.48489">
        <ele>311.59100341797</ele>
        <time>2020-05-12T11:09:27Z</time>
      </trkpt>
      <trkpt lat="46.51543" lon="4.48483">
        <ele>312.59100341797</ele>
        <time>2020-05-12T11:09:34Z</time>
      </trkpt>
      <trkpt lat="46.51539" lon="4.48474">
        <ele>312.59100341797</ele>
        <time>2020-05-12T11:09:41Z</time>
      </trkpt>
      <trkpt lat="46.51534" lon="4.48465">
        <ele>311.59100341797</ele>
        <time>2020-05-12T11:09:48Z</time>
      </trkpt>
      <trkpt lat="46.51531" lon="4.48457">
        <ele>312.59100341797</ele>
        <time>2020-05-12T11:09:54Z</time>
      </trkpt>
      <trkpt lat="46.51527" lon="4.48449">
        <ele>309.59100341797</ele>
        <time>2020-05-12T11:10:00Z</time>
      </trkpt>
      <trkpt lat="46.5152" lon="4.48446">
        <ele>310.59100341797</ele>
        <time>2020-05-12T11:10:05Z</time>
      </trkpt>
      <trkpt lat="46.51514" lon="4.48441">
        <ele>309.59100341797</ele>
        <time>2020-05-12T11:10:10Z</time>
      </trkpt>
      <trkpt lat="46.51508" lon="4.48436">
        <ele>309.58999633789</ele>
        <time>2020-05-12T11:10:16Z</time>
      </trkpt>
      <trkpt lat="46.51501" lon="4.4843">
        <ele>308.58999633789</ele>
        <time>2020-05-12T11:10:21Z</time>
      </trkpt>
      <trkpt lat="46.51495" lon="4.48422">
        <ele>306.58999633789</ele>
        <time>2020-05-12T11:10:27Z</time>
      </trkpt>
      <trkpt lat="46.51487" lon="4.48422">
        <ele>306.58999633789</ele>
        <time>2020-05-12T11:10:33Z</time>
      </trkpt>
      <trkpt lat="46.51481" lon="4.48425">
        <ele>306.58999633789</ele>
        <time>2020-05-12T11:10:38Z</time>
      </trkpt>
      <trkpt lat="46.51476" lon="4.48431">
        <ele>305.58999633789</ele>
        <time>2020-05-12T11:10:43Z</time>
      </trkpt>
      <trkpt lat="46.51469" lon="4.48441">
        <ele>306.58999633789</ele>
        <time>2020-05-12T11:10:52Z</time>
      </trkpt>
      <trkpt lat="46.51467" lon="4.48451">
        <ele>303.58999633789</ele>
        <time>2020-05-12T11:11:04Z</time>
      </trkpt>
      <trkpt lat="46.5146" lon="4.48458">
        <ele>304.58999633789</ele>
        <time>2020-05-12T11:11:17Z</time>
      </trkpt>
      <trkpt lat="46.51453" lon="4.48461">
        <ele>306.58999633789</ele>
        <time>2020-05-12T11:11:22Z</time>
      </trkpt>
      <trkpt lat="46.51446" lon="4.48459">
        <ele>305.58999633789</ele>
        <time>2020-05-12T11:11:27Z</time>
      </trkpt>
      <trkpt lat="46.51439" lon="4.48455">
        <ele>307.58999633789</ele>
        <time>2020-05-12T11:11:33Z</time>
      </trkpt>
      <trkpt lat="46.51435" lon="4.48446">
        <ele>311.58999633789</ele>
        <time>2020-05-12T11:11:43Z</time>
      </trkpt>
      <trkpt lat="46.51429" lon="4.48443">
        <ele>315.58999633789</ele>
        <time>2020-05-12T11:11:48Z</time>
      </trkpt>
      <trkpt lat="46.51422" lon="4.48444">
        <ele>315.58999633789</ele>
        <time>2020-05-12T11:11:54Z</time>
      </trkpt>
      <trkpt lat="46.51415" lon="4.48447">
        <ele>313.58999633789</ele>
        <time>2020-05-12T11:11:59Z</time>
      </trkpt>
      <trkpt lat="46.51407" lon="4.48444">
        <ele>316.58999633789</ele>
        <time>2020-05-12T11:12:04Z</time>
      </trkpt>
      <trkpt lat="46.514" lon="4.48447">
        <ele>312.58999633789</ele>
        <time>2020-05-12T11:12:12Z</time>
      </trkpt>
      <trkpt lat="46.51394" lon="4.48447">
        <ele>314.58999633789</ele>
        <time>2020-05-12T11:12:18Z</time>
      </trkpt>
      <trkpt lat="46.51386" lon="4.48448">
        <ele>316.58999633789</ele>
        <time>2020-05-12T11:12:28Z</time>
      </trkpt>
      <trkpt lat="46.51381" lon="4.48454">
        <ele>317.58999633789</ele>
        <time>2020-05-12T11:12:37Z</time>
      </trkpt>
      <trkpt lat="46.51376" lon="4.48461">
        <ele>317.58999633789</ele>
        <time>2020-05-12T11:12:46Z</time>
      </trkpt>
      <trkpt lat="46.51374" lon="4.4847">
        <ele>319.58999633789</ele>
        <time>2020-05-12T11:12:53Z</time>
      </trkpt>
      <trkpt lat="46.5137" lon="4.48479">
        <ele>321.58999633789</ele>
        <time>2020-05-12T11:13:00Z</time>
      </trkpt>
      <trkpt lat="46.51364" lon="4.48484">
        <ele>322.58999633789</ele>
        <time>2020-05-12T11:13:06Z</time>
      </trkpt>
      <trkpt lat="46.51357" lon="4.48484">
        <ele>317.58999633789</ele>
        <time>2020-05-12T11:13:12Z</time>
      </trkpt>
      <trkpt lat="46.5135" lon="4.48486">
        <ele>316.58999633789</ele>
        <time>2020-05-12T11:13:17Z</time>
      </trkpt>
      <trkpt lat="46.51342" lon="4.48482">
        <ele>317.58999633789</ele>
        <time>2020-05-12T11:13:23Z</time>
      </trkpt>
      <trkpt lat="46.51336" lon="4.48481">
        <ele>312.58999633789</ele>
        <time>2020-05-12T11:13:30Z</time>
      </trkpt>
      <trkpt lat="46.51328" lon="4.48477">
        <ele>306.58999633789</ele>
        <time>2020-05-12T11:13:38Z</time>
      </trkpt>
      <trkpt lat="46.51319" lon="4.48481">
        <ele>308.58999633789</ele>
        <time>2020-05-12T11:13:43Z</time>
      </trkpt>
      <trkpt lat="46.51313" lon="4.48484">
        <ele>306.58999633789</ele>
        <time>2020-05-12T11:13:49Z</time>
      </trkpt>
      <trkpt lat="46.51306" lon="4.48487">
        <ele>308.58999633789</ele>
        <time>2020-05-12T11:13:55Z</time>
      </trkpt>
      <trkpt lat="46.51295" lon="4.48486">
        <ele>309.58999633789</ele>
        <time>2020-05-12T11:14:00Z</time>
      </trkpt>
      <trkpt lat="46.51288" lon="4.48493">
        <ele>308.58999633789</ele>
        <time>2020-05-12T11:14:06Z</time>
      </trkpt>
      <trkpt lat="46.51284" lon="4.48501">
        <ele>309.58999633789</ele>
        <time>2020-05-12T11:14:11Z</time>
      </trkpt>
      <trkpt lat="46.51279" lon="4.48511">
        <ele>314.58999633789</ele>
        <time>2020-05-12T11:14:16Z</time>
      </trkpt>
      <trkpt lat="46.5128" lon="4.48522">
        <ele>315.58999633789</ele>
        <time>2020-05-12T11:14:23Z</time>
      </trkpt>
      <trkpt lat="46.51287" lon="4.48528">
        <ele>315.58999633789</ele>
        <time>2020-05-12T11:14:31Z</time>
      </trkpt>
      <trkpt lat="46.51294" lon="4.48531">
        <ele>316.58999633789</ele>
        <time>2020-05-12T11:14:36Z</time>
      </trkpt>
      <trkpt lat="46.51298" lon="4.48539">
        <ele>317.58999633789</ele>
        <time>2020-05-12T11:14:44Z</time>
      </trkpt>
      <trkpt lat="46.51305" lon="4.48541">
        <ele>316.58999633789</ele>
        <time>2020-05-12T11:14:50Z</time>
      </trkpt>
      <trkpt lat="46.5131" lon="4.48548">
        <ele>318.58999633789</ele>
        <time>2020-05-12T11:14:55Z</time>
      </trkpt>
      <trkpt lat="46.51316" lon="4.48558">
        <ele>318.58999633789</ele>
        <time>2020-05-12T11:15:05Z</time>
      </trkpt>
      <trkpt lat="46.51319" lon="4.48567">
        <ele>321.58999633789</ele>
        <time>2020-05-12T11:15:10Z</time>
      </trkpt>
      <trkpt lat="46.51321" lon="4.48577">
        <ele>324.58999633789</ele>
        <time>2020-05-12T11:15:18Z</time>
      </trkpt>
      <trkpt lat="46.51325" lon="4.48585">
        <ele>325.58999633789</ele>
        <time>2020-05-12T11:15:25Z</time>
      </trkpt>
      <trkpt lat="46.51326" lon="4.48595">
        <ele>327.58999633789</ele>
        <time>2020-05-12T11:15:32Z</time>
      </trkpt>
      <trkpt lat="46.51328" lon="4.48605">
        <ele>324.58999633789</ele>
        <time>2020-05-12T11:15:38Z</time>
      </trkpt>
      <trkpt lat="46.51332" lon="4.48616">
        <ele>323.58999633789</ele>
        <time>2020-05-12T11:15:45Z</time>
      </trkpt>
      <trkpt lat="46.51335" lon="4.48625">
        <ele>328.58999633789</ele>
        <time>2020-05-12T11:15:52Z</time>
      </trkpt>
      <trkpt lat="46.51341" lon="4.48634">
        <ele>328.58999633789</ele>
        <time>2020-05-12T11:15:58Z</time>
      </trkpt>
      <trkpt lat="46.5134" lon="4.48644">
        <ele>328.58999633789</ele>
        <time>2020-05-12T11:16:04Z</time>
      </trkpt>
      <trkpt lat="46.5134" lon="4.48654">
        <ele>329.58999633789</ele>
        <time>2020-05-12T11:16:10Z</time>
      </trkpt>
      <trkpt lat="46.51342" lon="4.48664">
        <ele>331.58999633789</ele>
        <time>2020-05-12T11:16:18Z</time>
      </trkpt>
      <trkpt lat="46.51349" lon="4.48672">
        <ele>333.58999633789</ele>
        <time>2020-05-12T11:16:25Z</time>
      </trkpt>
      <trkpt lat="46.51349" lon="4.48683">
        <ele>334.58999633789</ele>
        <time>2020-05-12T11:16:32Z</time>
      </trkpt>
      <trkpt lat="46.51351" lon="4.48693">
        <ele>335.58999633789</ele>
        <time>2020-05-12T11:16:39Z</time>
      </trkpt>
      <trkpt lat="46.51348" lon="4.48703">
        <ele>337.58999633789</ele>
        <time>2020-05-12T11:16:45Z</time>
      </trkpt>
      <trkpt lat="46.51348" lon="4.48715">
        <ele>337.58999633789</ele>
        <time>2020-05-12T11:16:50Z</time>
      </trkpt>
      <trkpt lat="46.51351" lon="4.48725">
        <ele>340.58999633789</ele>
        <time>2020-05-12T11:16:59Z</time>
      </trkpt>
      <trkpt lat="46.51349" lon="4.48734">
        <ele>341.58999633789</ele>
        <time>2020-05-12T11:17:06Z</time>
      </trkpt>
      <trkpt lat="46.5135" lon="4.48744">
        <ele>341.58999633789</ele>
        <time>2020-05-12T11:17:19Z</time>
      </trkpt>
      <trkpt lat="46.51346" lon="4.48754">
        <ele>336.58999633789</ele>
        <time>2020-05-12T11:17:26Z</time>
      </trkpt>
      <trkpt lat="46.51344" lon="4.48764">
        <ele>336.58999633789</ele>
        <time>2020-05-12T11:17:32Z</time>
      </trkpt>
      <trkpt lat="46.51346" lon="4.48773">
        <ele>334.58999633789</ele>
        <time>2020-05-12T11:17:38Z</time>
      </trkpt>
      <trkpt lat="46.51345" lon="4.48784">
        <ele>331.58999633789</ele>
        <time>2020-05-12T11:17:44Z</time>
      </trkpt>
      <trkpt lat="46.51346" lon="4.48794">
        <ele>334.58999633789</ele>
        <time>2020-05-12T11:17:50Z</time>
      </trkpt>
      <trkpt lat="46.51347" lon="4.48808">
        <ele>337.58999633789</ele>
        <time>2020-05-12T11:17:55Z</time>
      </trkpt>
      <trkpt lat="46.51348" lon="4.4882">
        <ele>342.58999633789</ele>
        <time>2020-05-12T11:18:00Z</time>
      </trkpt>
      <trkpt lat="46.51345" lon="4.4883">
        <ele>343.58999633789</ele>
        <time>2020-05-12T11:18:05Z</time>
      </trkpt>
      <trkpt lat="46.5134" lon="4.48837">
        <ele>341.58999633789</ele>
        <time>2020-05-12T11:18:10Z</time>
      </trkpt>
      <trkpt lat="46.51336" lon="4.48846">
        <ele>341.58999633789</ele>
        <time>2020-05-12T11:18:16Z</time>
      </trkpt>
      <trkpt lat="46.51334" lon="4.48856">
        <ele>344.58999633789</ele>
        <time>2020-05-12T11:18:32Z</time>
      </trkpt>
      <trkpt lat="46.51333" lon="4.48865">
        <ele>343.58999633789</ele>
        <time>2020-05-12T11:18:43Z</time>
      </trkpt>
      <trkpt lat="46.51323" lon="4.48873">
        <ele>347.58999633789</ele>
        <time>2020-05-12T11:18:48Z</time>
      </trkpt>
      <trkpt lat="46.51316" lon="4.48876">
        <ele>349.58999633789</ele>
        <time>2020-05-12T11:18:53Z</time>
      </trkpt>
      <trkpt lat="46.51313" lon="4.48887">
        <ele>355.58999633789</ele>
        <time>2020-05-12T11:19:01Z</time>
      </trkpt>
      <trkpt lat="46.51306" lon="4.4889">
        <ele>352.58999633789</ele>
        <time>2020-05-12T11:19:06Z</time>
      </trkpt>
      <trkpt lat="46.51301" lon="4.48896">
        <ele>351.58999633789</ele>
        <time>2020-05-12T11:19:14Z</time>
      </trkpt>
      <trkpt lat="46.51294" lon="4.48902">
        <ele>352.58999633789</ele>
        <time>2020-05-12T11:19:19Z</time>
      </trkpt>
      <trkpt lat="46.51289" lon="4.4891">
        <ele>355.58999633789</ele>
        <time>2020-05-12T11:19:24Z</time>
      </trkpt>
      <trkpt lat="46.51282" lon="4.48912">
        <ele>356.58999633789</ele>
        <time>2020-05-12T11:19:29Z</time>
      </trkpt>
      <trkpt lat="46.51274" lon="4.48914">
        <ele>356.58999633789</ele>
        <time>2020-05-12T11:19:35Z</time>
      </trkpt>
      <trkpt lat="46.51268" lon="4.48919">
        <ele>354.58999633789</ele>
        <time>2020-05-12T11:19:40Z</time>
      </trkpt>
      <trkpt lat="46.51261" lon="4.48926">
        <ele>357.58999633789</ele>
        <time>2020-05-12T11:19:45Z</time>
      </trkpt>
      <trkpt lat="46.51255" lon="4.4893">
        <ele>355.58999633789</ele>
        <time>2020-05-12T11:19:50Z</time>
      </trkpt>
      <trkpt lat="46.51247" lon="4.48934">
        <ele>358.58999633789</ele>
        <time>2020-05-12T11:19:55Z</time>
      </trkpt>
      <trkpt lat="46.51241" lon="4.48928">
        <ele>359.58999633789</ele>
        <time>2020-05-12T11:20:01Z</time>
      </trkpt>
      <trkpt lat="46.51238" lon="4.48919">
        <ele>361.58999633789</ele>
        <time>2020-05-12T11:20:06Z</time>
      </trkpt>
      <trkpt lat="46.51233" lon="4.48912">
        <ele>361.58999633789</ele>
        <time>2020-05-12T11:20:12Z</time>
      </trkpt>
      <trkpt lat="46.51227" lon="4.48906">
        <ele>362.58999633789</ele>
        <time>2020-05-12T11:20:18Z</time>
      </trkpt>
      <trkpt lat="46.51223" lon="4.48898">
        <ele>361.58999633789</ele>
        <time>2020-05-12T11:20:23Z</time>
      </trkpt>
      <trkpt lat="46.51216" lon="4.4889">
        <ele>357.58999633789</ele>
        <time>2020-05-12T11:20:31Z</time>
      </trkpt>
      <trkpt lat="46.51213" lon="4.4888">
        <ele>359.58999633789</ele>
        <time>2020-05-12T11:20:36Z</time>
      </trkpt>
      <trkpt lat="46.5121" lon="4.48871">
        <ele>359.58999633789</ele>
        <time>2020-05-12T11:20:42Z</time>
      </trkpt>
      <trkpt lat="46.51208" lon="4.48862">
        <ele>360.58999633789</ele>
        <time>2020-05-12T11:20:48Z</time>
      </trkpt>
      <trkpt lat="46.51205" lon="4.48853">
        <ele>358.58999633789</ele>
        <time>2020-05-12T11:20:53Z</time>
      </trkpt>
      <trkpt lat="46.512" lon="4.48847">
        <ele>357.58999633789</ele>
        <time>2020-05-12T11:20:59Z</time>
      </trkpt>
      <trkpt lat="46.51195" lon="4.48841">
        <ele>358.58999633789</ele>
        <time>2020-05-12T11:21:04Z</time>
      </trkpt>
      <trkpt lat="46.51189" lon="4.48836">
        <ele>360.58999633789</ele>
        <time>2020-05-12T11:21:09Z</time>
      </trkpt>
      <trkpt lat="46.51183" lon="4.48828">
        <ele>360.58999633789</ele>
        <time>2020-05-12T11:21:15Z</time>
      </trkpt>
      <trkpt lat="46.51178" lon="4.4882">
        <ele>361.58999633789</ele>
        <time>2020-05-12T11:21:21Z</time>
      </trkpt>
      <trkpt lat="46.51173" lon="4.48812">
        <ele>359.58999633789</ele>
        <time>2020-05-12T11:21:27Z</time>
      </trkpt>
      <trkpt lat="46.51168" lon="4.48804">
        <ele>360.58999633789</ele>
        <time>2020-05-12T11:21:32Z</time>
      </trkpt>
      <trkpt lat="46.51164" lon="4.48797">
        <ele>363.58999633789</ele>
        <time>2020-05-12T11:21:39Z</time>
      </trkpt>
      <trkpt lat="46.51159" lon="4.4879">
        <ele>364.58999633789</ele>
        <time>2020-05-12T11:21:44Z</time>
      </trkpt>
      <trkpt lat="46.51153" lon="4.48784">
        <ele>365.58999633789</ele>
        <time>2020-05-12T11:21:49Z</time>
      </trkpt>
      <trkpt lat="46.51147" lon="4.48775">
        <ele>365.58999633789</ele>
        <time>2020-05-12T11:21:54Z</time>
      </trkpt>
      <trkpt lat="46.51143" lon="4.48768">
        <ele>364.58999633789</ele>
        <time>2020-05-12T11:22:01Z</time>
      </trkpt>
      <trkpt lat="46.51138" lon="4.48761">
        <ele>364.58999633789</ele>
        <time>2020-05-12T11:22:07Z</time>
      </trkpt>
      <trkpt lat="46.51133" lon="4.48755">
        <ele>363.58999633789</ele>
        <time>2020-05-12T11:22:12Z</time>
      </trkpt>
      <trkpt lat="46.51127" lon="4.48749">
        <ele>363.58999633789</ele>
        <time>2020-05-12T11:22:18Z</time>
      </trkpt>
      <trkpt lat="46.51122" lon="4.48744">
        <ele>364.58999633789</ele>
        <time>2020-05-12T11:22:23Z</time>
      </trkpt>
      <trkpt lat="46.51116" lon="4.48736">
        <ele>361.58999633789</ele>
        <time>2020-05-12T11:22:29Z</time>
      </trkpt>
      <trkpt lat="46.5111" lon="4.48731">
        <ele>361.58999633789</ele>
        <time>2020-05-12T11:22:35Z</time>
      </trkpt>
      <trkpt lat="46.51105" lon="4.48725">
        <ele>364.58999633789</ele>
        <time>2020-05-12T11:22:41Z</time>
      </trkpt>
      <trkpt lat="46.511" lon="4.48719">
        <ele>366.58999633789</ele>
        <time>2020-05-12T11:22:48Z</time>
      </trkpt>
      <trkpt lat="46.51094" lon="4.48714">
        <ele>363.58999633789</ele>
        <time>2020-05-12T11:22:54Z</time>
      </trkpt>
      <trkpt lat="46.51088" lon="4.48707">
        <ele>363.58999633789</ele>
        <time>2020-05-12T11:23:00Z</time>
      </trkpt>
      <trkpt lat="46.51083" lon="4.487">
        <ele>367.58999633789</ele>
        <time>2020-05-12T11:23:05Z</time>
      </trkpt>
      <trkpt lat="46.51078" lon="4.48694">
        <ele>367.58898925781</ele>
        <time>2020-05-12T11:23:11Z</time>
      </trkpt>
      <trkpt lat="46.51071" lon="4.48688">
        <ele>373.58898925781</ele>
        <time>2020-05-12T11:23:17Z</time>
      </trkpt>
      <trkpt lat="46.51066" lon="4.48682">
        <ele>374.58898925781</ele>
        <time>2020-05-12T11:23:22Z</time>
      </trkpt>
      <trkpt lat="46.51064" lon="4.48673">
        <ele>374.58898925781</ele>
        <time>2020-05-12T11:23:27Z</time>
      </trkpt>
      <trkpt lat="46.51058" lon="4.48667">
        <ele>374.58898925781</ele>
        <time>2020-05-12T11:23:33Z</time>
      </trkpt>
      <trkpt lat="46.51051" lon="4.48663">
        <ele>375.58898925781</ele>
        <time>2020-05-12T11:23:39Z</time>
      </trkpt>
      <trkpt lat="46.51045" lon="4.48658">
        <ele>372.58898925781</ele>
        <time>2020-05-12T11:23:44Z</time>
      </trkpt>
      <trkpt lat="46.51039" lon="4.48651">
        <ele>369.58898925781</ele>
        <time>2020-05-12T11:23:50Z</time>
      </trkpt>
      <trkpt lat="46.51035" lon="4.48644">
        <ele>366.58898925781</ele>
        <time>2020-05-12T11:23:56Z</time>
      </trkpt>
      <trkpt lat="46.51029" lon="4.48637">
        <ele>365.58898925781</ele>
        <time>2020-05-12T11:24:01Z</time>
      </trkpt>
      <trkpt lat="46.51022" lon="4.48631">
        <ele>367.58898925781</ele>
        <time>2020-05-12T11:24:08Z</time>
      </trkpt>
      <trkpt lat="46.51016" lon="4.48636">
        <ele>366.58898925781</ele>
        <time>2020-05-12T11:24:14Z</time>
      </trkpt>
      <trkpt lat="46.51009" lon="4.4864">
        <ele>366.58898925781</ele>
        <time>2020-05-12T11:24:20Z</time>
      </trkpt>
      <trkpt lat="46.51002" lon="4.48643">
        <ele>367.58898925781</ele>
        <time>2020-05-12T11:25:31Z</time>
      </trkpt>
      <trkpt lat="46.50995" lon="4.48644">
        <ele>369.58898925781</ele>
        <time>2020-05-12T11:25:36Z</time>
      </trkpt>
      <trkpt lat="46.50989" lon="4.48646">
        <ele>367.58898925781</ele>
        <time>2020-05-12T11:25:43Z</time>
      </trkpt>
      <trkpt lat="46.50982" lon="4.48648">
        <ele>367.58898925781</ele>
        <time>2020-05-12T11:25:50Z</time>
      </trkpt>
      <trkpt lat="46.50974" lon="4.4865">
        <ele>370.58898925781</ele>
        <time>2020-05-12T11:25:55Z</time>
      </trkpt>
      <trkpt lat="46.50969" lon="4.48645">
        <ele>368.58898925781</ele>
        <time>2020-05-12T11:26:02Z</time>
      </trkpt>
      <trkpt lat="46.50962" lon="4.48645">
        <ele>368.58898925781</ele>
        <time>2020-05-12T11:26:07Z</time>
      </trkpt>
      <trkpt lat="46.50955" lon="4.48644">
        <ele>371.58898925781</ele>
        <time>2020-05-12T11:26:14Z</time>
      </trkpt>
      <trkpt lat="46.50947" lon="4.48644">
        <ele>373.58898925781</ele>
        <time>2020-05-12T11:26:21Z</time>
      </trkpt>
      <trkpt lat="46.50941" lon="4.48646">
        <ele>377.58898925781</ele>
        <time>2020-05-12T11:26:28Z</time>
      </trkpt>
      <trkpt lat="46.50933" lon="4.48645">
        <ele>375.58898925781</ele>
        <time>2020-05-12T11:26:35Z</time>
      </trkpt>
      <trkpt lat="46.50926" lon="4.48644">
        <ele>378.58898925781</ele>
        <time>2020-05-12T11:26:42Z</time>
      </trkpt>
      <trkpt lat="46.5092" lon="4.48642">
        <ele>378.58898925781</ele>
        <time>2020-05-12T11:26:48Z</time>
      </trkpt>
      <trkpt lat="46.50913" lon="4.48643">
        <ele>378.58898925781</ele>
        <time>2020-05-12T11:26:56Z</time>
      </trkpt>
      <trkpt lat="46.50906" lon="4.4864">
        <ele>377.58898925781</ele>
        <time>2020-05-12T11:27:02Z</time>
      </trkpt>
      <trkpt lat="46.509" lon="4.48636">
        <ele>375.58898925781</ele>
        <time>2020-05-12T11:27:10Z</time>
      </trkpt>
      <trkpt lat="46.50893" lon="4.48634">
        <ele>377.58898925781</ele>
        <time>2020-05-12T11:27:17Z</time>
      </trkpt>
      <trkpt lat="46.50886" lon="4.48633">
        <ele>379.58898925781</ele>
        <time>2020-05-12T11:27:23Z</time>
      </trkpt>
      <trkpt lat="46.5088" lon="4.48631">
        <ele>381.58898925781</ele>
        <time>2020-05-12T11:27:33Z</time>
      </trkpt>
      <trkpt lat="46.50874" lon="4.48628">
        <ele>387.58898925781</ele>
        <time>2020-05-12T11:27:43Z</time>
      </trkpt>
      <trkpt lat="46.50867" lon="4.48627">
        <ele>391.58898925781</ele>
        <time>2020-05-12T11:27:52Z</time>
      </trkpt>
      <trkpt lat="46.5086" lon="4.48621">
        <ele>392.58898925781</ele>
        <time>2020-05-12T11:28:01Z</time>
      </trkpt>
      <trkpt lat="46.50855" lon="4.48614">
        <ele>391.58898925781</ele>
        <time>2020-05-12T11:28:07Z</time>
      </trkpt>
      <trkpt lat="46.50849" lon="4.48611">
        <ele>393.58898925781</ele>
        <time>2020-05-12T11:28:16Z</time>
      </trkpt>
      <trkpt lat="46.50842" lon="4.48607">
        <ele>395.58898925781</ele>
        <time>2020-05-12T11:28:23Z</time>
      </trkpt>
      <trkpt lat="46.50838" lon="4.48598">
        <ele>399.58898925781</ele>
        <time>2020-05-12T11:28:35Z</time>
      </trkpt>
      <trkpt lat="46.50834" lon="4.4859">
        <ele>402.58898925781</ele>
        <time>2020-05-12T11:28:41Z</time>
      </trkpt>
      <trkpt lat="46.50828" lon="4.48585">
        <ele>404.58898925781</ele>
        <time>2020-05-12T11:28:49Z</time>
      </trkpt>
      <trkpt lat="46.50822" lon="4.48579">
        <ele>402.58898925781</ele>
        <time>2020-05-12T11:28:54Z</time>
      </trkpt>
      <trkpt lat="46.50818" lon="4.48569">
        <ele>401.58898925781</ele>
        <time>2020-05-12T11:28:59Z</time>
      </trkpt>
      <trkpt lat="46.50812" lon="4.48563">
        <ele>405.58898925781</ele>
        <time>2020-05-12T11:29:04Z</time>
      </trkpt>
      <trkpt lat="46.50806" lon="4.48561">
        <ele>409.58898925781</ele>
        <time>2020-05-12T11:29:10Z</time>
      </trkpt>
      <trkpt lat="46.50801" lon="4.48553">
        <ele>408.58898925781</ele>
        <time>2020-05-12T11:29:18Z</time>
      </trkpt>
      <trkpt lat="46.50795" lon="4.48546">
        <ele>406.58898925781</ele>
        <time>2020-05-12T11:29:24Z</time>
      </trkpt>
      <trkpt lat="46.50788" lon="4.48543">
        <ele>406.58898925781</ele>
        <time>2020-05-12T11:29:32Z</time>
      </trkpt>
      <trkpt lat="46.50783" lon="4.48534">
        <ele>409.58898925781</ele>
        <time>2020-05-12T11:29:38Z</time>
      </trkpt>
      <trkpt lat="46.50777" lon="4.4853">
        <ele>408.58898925781</ele>
        <time>2020-05-12T11:29:45Z</time>
      </trkpt>
      <trkpt lat="46.5077" lon="4.48531">
        <ele>412.58898925781</ele>
        <time>2020-05-12T11:29:50Z</time>
      </trkpt>
      <trkpt lat="46.50762" lon="4.48528">
        <ele>414.58801269531</ele>
        <time>2020-05-12T11:29:57Z</time>
      </trkpt>
      <trkpt lat="46.50755" lon="4.4853">
        <ele>414.58801269531</ele>
        <time>2020-05-12T11:30:02Z</time>
      </trkpt>
      <trkpt lat="46.50749" lon="4.48529">
        <ele>414.58801269531</ele>
        <time>2020-05-12T11:30:10Z</time>
      </trkpt>
      <trkpt lat="46.50742" lon="4.48529">
        <ele>415.58801269531</ele>
        <time>2020-05-12T11:30:31Z</time>
      </trkpt>
      <trkpt lat="46.50734" lon="4.48527">
        <ele>416.58801269531</ele>
        <time>2020-05-12T11:30:38Z</time>
      </trkpt>
      <trkpt lat="46.50724" lon="4.48523">
        <ele>418.58801269531</ele>
        <time>2020-05-12T11:30:43Z</time>
      </trkpt>
      <trkpt lat="46.50716" lon="4.48516">
        <ele>417.58801269531</ele>
        <time>2020-05-12T11:30:48Z</time>
      </trkpt>
      <trkpt lat="46.50712" lon="4.48509">
        <ele>418.58801269531</ele>
        <time>2020-05-12T11:30:56Z</time>
      </trkpt>
      <trkpt lat="46.50706" lon="4.48503">
        <ele>417.58801269531</ele>
        <time>2020-05-12T11:31:01Z</time>
      </trkpt>
      <trkpt lat="46.507" lon="4.48497">
        <ele>419.58801269531</ele>
        <time>2020-05-12T11:31:06Z</time>
      </trkpt>
      <trkpt lat="46.50698" lon="4.48486">
        <ele>421.58801269531</ele>
        <time>2020-05-12T11:31:12Z</time>
      </trkpt>
      <trkpt lat="46.50695" lon="4.48477">
        <ele>418.58801269531</ele>
        <time>2020-05-12T11:31:18Z</time>
      </trkpt>
      <trkpt lat="46.50691" lon="4.48469">
        <ele>418.58801269531</ele>
        <time>2020-05-12T11:31:25Z</time>
      </trkpt>
      <trkpt lat="46.50691" lon="4.48459">
        <ele>418.58801269531</ele>
        <time>2020-05-12T11:31:33Z</time>
      </trkpt>
      <trkpt lat="46.50686" lon="4.48451">
        <ele>419.58801269531</ele>
        <time>2020-05-12T11:31:38Z</time>
      </trkpt>
      <trkpt lat="46.50683" lon="4.48443">
        <ele>416.58801269531</ele>
        <time>2020-05-12T11:31:46Z</time>
      </trkpt>
      <trkpt lat="46.50677" lon="4.48434">
        <ele>415.58801269531</ele>
        <time>2020-05-12T11:31:51Z</time>
      </trkpt>
      <trkpt lat="46.50671" lon="4.48429">
        <ele>416.58801269531</ele>
        <time>2020-05-12T11:31:58Z</time>
      </trkpt>
      <trkpt lat="46.50664" lon="4.48425">
        <ele>417.58801269531</ele>
        <time>2020-05-12T11:32:03Z</time>
      </trkpt>
      <trkpt lat="46.50659" lon="4.48431">
        <ele>420.58801269531</ele>
        <time>2020-05-12T11:32:17Z</time>
      </trkpt>
      <trkpt lat="46.50653" lon="4.48434">
        <ele>424.58801269531</ele>
        <time>2020-05-12T11:32:30Z</time>
      </trkpt>
      <trkpt lat="46.50645" lon="4.48437">
        <ele>425.58801269531</ele>
        <time>2020-05-12T11:32:35Z</time>
      </trkpt>
      <trkpt lat="46.50639" lon="4.4844">
        <ele>425.58801269531</ele>
        <time>2020-05-12T11:32:40Z</time>
      </trkpt>
      <trkpt lat="46.50634" lon="4.48447">
        <ele>429.58801269531</ele>
        <time>2020-05-12T11:32:46Z</time>
      </trkpt>
      <trkpt lat="46.50628" lon="4.48451">
        <ele>429.58801269531</ele>
        <time>2020-05-12T11:32:51Z</time>
      </trkpt>
      <trkpt lat="46.50625" lon="4.4846">
        <ele>431.58801269531</ele>
        <time>2020-05-12T11:33:04Z</time>
      </trkpt>
      <trkpt lat="46.5062" lon="4.48465">
        <ele>432.58801269531</ele>
        <time>2020-05-12T11:33:11Z</time>
      </trkpt>
      <trkpt lat="46.50615" lon="4.48474">
        <ele>431.58801269531</ele>
        <time>2020-05-12T11:33:17Z</time>
      </trkpt>
      <trkpt lat="46.50611" lon="4.48484">
        <ele>436.58801269531</ele>
        <time>2020-05-12T11:33:24Z</time>
      </trkpt>
      <trkpt lat="46.50609" lon="4.48494">
        <ele>435.58801269531</ele>
        <time>2020-05-12T11:33:31Z</time>
      </trkpt>
      <trkpt lat="46.50605" lon="4.48503">
        <ele>437.58801269531</ele>
        <time>2020-05-12T11:33:38Z</time>
      </trkpt>
      <trkpt lat="46.506" lon="4.4851">
        <ele>437.58801269531</ele>
        <time>2020-05-12T11:33:43Z</time>
      </trkpt>
      <trkpt lat="46.50595" lon="4.48517">
        <ele>436.58801269531</ele>
        <time>2020-05-12T11:33:50Z</time>
      </trkpt>
      <trkpt lat="46.50591" lon="4.48526">
        <ele>437.58801269531</ele>
        <time>2020-05-12T11:33:59Z</time>
      </trkpt>
      <trkpt lat="46.50585" lon="4.48534">
        <ele>433.58801269531</ele>
        <time>2020-05-12T11:34:06Z</time>
      </trkpt>
      <trkpt lat="46.50581" lon="4.48543">
        <ele>433.58801269531</ele>
        <time>2020-05-12T11:34:14Z</time>
      </trkpt>
      <trkpt lat="46.50578" lon="4.48552">
        <ele>435.58801269531</ele>
        <time>2020-05-12T11:34:19Z</time>
      </trkpt>
      <trkpt lat="46.50574" lon="4.4856">
        <ele>436.58801269531</ele>
        <time>2020-05-12T11:34:24Z</time>
      </trkpt>
      <trkpt lat="46.50567" lon="4.48563">
        <ele>438.58801269531</ele>
        <time>2020-05-12T11:34:29Z</time>
      </trkpt>
      <trkpt lat="46.50563" lon="4.48574">
        <ele>441.58801269531</ele>
        <time>2020-05-12T11:34:35Z</time>
      </trkpt>
      <trkpt lat="46.50559" lon="4.48582">
        <ele>444.58801269531</ele>
        <time>2020-05-12T11:34:41Z</time>
      </trkpt>
      <trkpt lat="46.50554" lon="4.48588">
        <ele>445.58801269531</ele>
        <time>2020-05-12T11:34:49Z</time>
      </trkpt>
      <trkpt lat="46.50548" lon="4.48594">
        <ele>442.58801269531</ele>
        <time>2020-05-12T11:34:54Z</time>
      </trkpt>
      <trkpt lat="46.50542" lon="4.48601">
        <ele>441.58801269531</ele>
        <time>2020-05-12T11:35:00Z</time>
      </trkpt>
      <trkpt lat="46.50538" lon="4.48609">
        <ele>443.58801269531</ele>
        <time>2020-05-12T11:35:07Z</time>
      </trkpt>
      <trkpt lat="46.50533" lon="4.48618">
        <ele>445.58801269531</ele>
        <time>2020-05-12T11:35:13Z</time>
      </trkpt>
      <trkpt lat="46.5053" lon="4.48626">
        <ele>446.58801269531</ele>
        <time>2020-05-12T11:35:19Z</time>
      </trkpt>
      <trkpt lat="46.50525" lon="4.48633">
        <ele>444.58801269531</ele>
        <time>2020-05-12T11:35:24Z</time>
      </trkpt>
      <trkpt lat="46.50518" lon="4.48639">
        <ele>442.58801269531</ele>
        <time>2020-05-12T11:35:31Z</time>
      </trkpt>
      <trkpt lat="46.50511" lon="4.48643">
        <ele>440.58801269531</ele>
        <time>2020-05-12T11:35:37Z</time>
      </trkpt>
      <trkpt lat="46.50505" lon="4.48649">
        <ele>442.58801269531</ele>
        <time>2020-05-12T11:35:44Z</time>
      </trkpt>
      <trkpt lat="46.50499" lon="4.48653">
        <ele>443.58801269531</ele>
        <time>2020-05-12T11:35:50Z</time>
      </trkpt>
      <trkpt lat="46.5049" lon="4.48652">
        <ele>442.58801269531</ele>
        <time>2020-05-12T11:35:56Z</time>
      </trkpt>
      <trkpt lat="46.50484" lon="4.48657">
        <ele>444.58801269531</ele>
        <time>2020-05-12T11:36:02Z</time>
      </trkpt>
      <trkpt lat="46.50476" lon="4.48659">
        <ele>444.58801269531</ele>
        <time>2020-05-12T11:36:08Z</time>
      </trkpt>
      <trkpt lat="46.50471" lon="4.48665">
        <ele>446.58801269531</ele>
        <time>2020-05-12T11:36:13Z</time>
      </trkpt>
      <trkpt lat="46.50464" lon="4.48665">
        <ele>445.58801269531</ele>
        <time>2020-05-12T11:36:18Z</time>
      </trkpt>
      <trkpt lat="46.50459" lon="4.48671">
        <ele>445.58801269531</ele>
        <time>2020-05-12T11:36:24Z</time>
      </trkpt>
      <trkpt lat="46.50457" lon="4.48683">
        <ele>448.58801269531</ele>
        <time>2020-05-12T11:36:29Z</time>
      </trkpt>
      <trkpt lat="46.50458" lon="4.48695">
        <ele>452.58801269531</ele>
        <time>2020-05-12T11:36:34Z</time>
      </trkpt>
      <trkpt lat="46.50457" lon="4.48705">
        <ele>448.58801269531</ele>
        <time>2020-05-12T11:36:42Z</time>
      </trkpt>
      <trkpt lat="46.50453" lon="4.48715">
        <ele>444.58801269531</ele>
        <time>2020-05-12T11:36:47Z</time>
      </trkpt>
      <trkpt lat="46.50452" lon="4.48727">
        <ele>444.58801269531</ele>
        <time>2020-05-12T11:36:52Z</time>
      </trkpt>
      <trkpt lat="46.50449" lon="4.48737">
        <ele>440.58801269531</ele>
        <time>2020-05-12T11:36:58Z</time>
      </trkpt>
      <trkpt lat="46.50445" lon="4.48745">
        <ele>441.58801269531</ele>
        <time>2020-05-12T11:37:03Z</time>
      </trkpt>
      <trkpt lat="46.50442" lon="4.48755">
        <ele>441.58801269531</ele>
        <time>2020-05-12T11:37:11Z</time>
      </trkpt>
      <trkpt lat="46.50436" lon="4.48762">
        <ele>440.58801269531</ele>
        <time>2020-05-12T11:37:16Z</time>
      </trkpt>
      <trkpt lat="46.50431" lon="4.48768">
        <ele>440.58801269531</ele>
        <time>2020-05-12T11:37:23Z</time>
      </trkpt>
      <trkpt lat="46.50426" lon="4.48775">
        <ele>440.58801269531</ele>
        <time>2020-05-12T11:37:31Z</time>
      </trkpt>
      <trkpt lat="46.50419" lon="4.48779">
        <ele>438.58801269531</ele>
        <time>2020-05-12T11:37:36Z</time>
      </trkpt>
      <trkpt lat="46.50413" lon="4.48783">
        <ele>443.58801269531</ele>
        <time>2020-05-12T11:37:47Z</time>
      </trkpt>
      <trkpt lat="46.50406" lon="4.48783">
        <ele>442.58801269531</ele>
        <time>2020-05-12T11:37:55Z</time>
      </trkpt>
      <trkpt lat="46.50399" lon="4.48791">
        <ele>442.58801269531</ele>
        <time>2020-05-12T11:38:00Z</time>
      </trkpt>
      <trkpt lat="46.50393" lon="4.48788">
        <ele>444.58801269531</ele>
        <time>2020-05-12T11:38:07Z</time>
      </trkpt>
      <trkpt lat="46.50386" lon="4.48784">
        <ele>444.58801269531</ele>
        <time>2020-05-12T11:38:14Z</time>
      </trkpt>
      <trkpt lat="46.50379" lon="4.48781">
        <ele>447.58801269531</ele>
        <time>2020-05-12T11:38:23Z</time>
      </trkpt>
      <trkpt lat="46.50374" lon="4.48771">
        <ele>449.58801269531</ele>
        <time>2020-05-12T11:38:29Z</time>
      </trkpt>
      <trkpt lat="46.50366" lon="4.48777">
        <ele>450.58801269531</ele>
        <time>2020-05-12T11:38:37Z</time>
      </trkpt>
      <trkpt lat="46.5036" lon="4.48771">
        <ele>452.58801269531</ele>
        <time>2020-05-12T11:38:45Z</time>
      </trkpt>
      <trkpt lat="46.50354" lon="4.48768">
        <ele>453.58801269531</ele>
        <time>2020-05-12T11:38:52Z</time>
      </trkpt>
      <trkpt lat="46.50348" lon="4.48763">
        <ele>456.58801269531</ele>
        <time>2020-05-12T11:39:00Z</time>
      </trkpt>
      <trkpt lat="46.50341" lon="4.4876">
        <ele>456.58801269531</ele>
        <time>2020-05-12T11:39:08Z</time>
      </trkpt>
      <trkpt lat="46.50334" lon="4.48762">
        <ele>459.58700561523</ele>
        <time>2020-05-12T11:39:18Z</time>
      </trkpt>
      <trkpt lat="46.50328" lon="4.48758">
        <ele>459.58700561523</ele>
        <time>2020-05-12T11:39:25Z</time>
      </trkpt>
      <trkpt lat="46.50322" lon="4.48755">
        <ele>462.58700561523</ele>
        <time>2020-05-12T11:39:37Z</time>
      </trkpt>
      <trkpt lat="46.50315" lon="4.48751">
        <ele>468.58700561523</ele>
        <time>2020-05-12T11:39:48Z</time>
      </trkpt>
      <trkpt lat="46.50309" lon="4.48747">
        <ele>469.58700561523</ele>
        <time>2020-05-12T11:39:54Z</time>
      </trkpt>
      <trkpt lat="46.50303" lon="4.48741">
        <ele>461.58700561523</ele>
        <time>2020-05-12T11:40:04Z</time>
      </trkpt>
      <trkpt lat="46.50298" lon="4.48747">
        <ele>462.58700561523</ele>
        <time>2020-05-12T11:40:11Z</time>
      </trkpt>
      <trkpt lat="46.50292" lon="4.48752">
        <ele>467.58700561523</ele>
        <time>2020-05-12T11:40:20Z</time>
      </trkpt>
      <trkpt lat="46.50287" lon="4.48758">
        <ele>467.58700561523</ele>
        <time>2020-05-12T11:40:26Z</time>
      </trkpt>
      <trkpt lat="46.50279" lon="4.4876">
        <ele>466.58700561523</ele>
        <time>2020-05-12T11:40:34Z</time>
      </trkpt>
      <trkpt lat="46.5027" lon="4.48766">
        <ele>468.58700561523</ele>
        <time>2020-05-12T11:40:39Z</time>
      </trkpt>
      <trkpt lat="46.50263" lon="4.48764">
        <ele>470.58700561523</ele>
        <time>2020-05-12T11:40:44Z</time>
      </trkpt>
      <trkpt lat="46.50254" lon="4.48768">
        <ele>471.58700561523</ele>
        <time>2020-05-12T11:40:49Z</time>
      </trkpt>
      <trkpt lat="46.50248" lon="4.4877">
        <ele>470.58700561523</ele>
        <time>2020-05-12T11:40:55Z</time>
      </trkpt>
      <trkpt lat="46.50241" lon="4.48771">
        <ele>470.58700561523</ele>
        <time>2020-05-12T11:41:01Z</time>
      </trkpt>
      <trkpt lat="46.50234" lon="4.48769">
        <ele>469.58700561523</ele>
        <time>2020-05-12T11:41:14Z</time>
      </trkpt>
      <trkpt lat="46.50228" lon="4.48773">
        <ele>469.58700561523</ele>
        <time>2020-05-12T11:41:21Z</time>
      </trkpt>
      <trkpt lat="46.50222" lon="4.48779">
        <ele>472.58700561523</ele>
        <time>2020-05-12T11:41:26Z</time>
      </trkpt>
      <trkpt lat="46.50215" lon="4.4878">
        <ele>474.58700561523</ele>
        <time>2020-05-12T11:41:32Z</time>
      </trkpt>
      <trkpt lat="46.50209" lon="4.48777">
        <ele>474.58700561523</ele>
        <time>2020-05-12T11:41:41Z</time>
      </trkpt>
      <trkpt lat="46.50202" lon="4.4878">
        <ele>474.58700561523</ele>
        <time>2020-05-12T11:41:50Z</time>
      </trkpt>
      <trkpt lat="46.50195" lon="4.48779">
        <ele>473.58700561523</ele>
        <time>2020-05-12T11:41:56Z</time>
      </trkpt>
      <trkpt lat="46.50189" lon="4.48775">
        <ele>477.58700561523</ele>
        <time>2020-05-12T11:42:04Z</time>
      </trkpt>
      <trkpt lat="46.50183" lon="4.48771">
        <ele>477.58700561523</ele>
        <time>2020-05-12T11:42:09Z</time>
      </trkpt>
      <trkpt lat="46.50176" lon="4.48768">
        <ele>480.58700561523</ele>
        <time>2020-05-12T11:42:17Z</time>
      </trkpt>
      <trkpt lat="46.50169" lon="4.48762">
        <ele>481.58700561523</ele>
        <time>2020-05-12T11:42:24Z</time>
      </trkpt>
      <trkpt lat="46.50163" lon="4.48759">
        <ele>481.58700561523</ele>
        <time>2020-05-12T11:42:29Z</time>
      </trkpt>
      <trkpt lat="46.50156" lon="4.48752">
        <ele>486.58700561523</ele>
        <time>2020-05-12T11:42:35Z</time>
      </trkpt>
      <trkpt lat="46.50157" lon="4.48742">
        <ele>485.58700561523</ele>
        <time>2020-05-12T11:42:41Z</time>
      </trkpt>
      <trkpt lat="46.50157" lon="4.48731">
        <ele>484.58700561523</ele>
        <time>2020-05-12T11:42:48Z</time>
      </trkpt>
      <trkpt lat="46.50157" lon="4.48721">
        <ele>486.58700561523</ele>
        <time>2020-05-12T11:42:53Z</time>
      </trkpt>
      <trkpt lat="46.50156" lon="4.48711">
        <ele>484.58700561523</ele>
        <time>2020-05-12T11:42:59Z</time>
      </trkpt>
      <trkpt lat="46.50153" lon="4.48701">
        <ele>484.58700561523</ele>
        <time>2020-05-12T11:43:07Z</time>
      </trkpt>
      <trkpt lat="46.50152" lon="4.4869">
        <ele>483.58700561523</ele>
        <time>2020-05-12T11:43:14Z</time>
      </trkpt>
      <trkpt lat="46.50152" lon="4.4868">
        <ele>486.58700561523</ele>
        <time>2020-05-12T11:43:20Z</time>
      </trkpt>
      <trkpt lat="46.50152" lon="4.48669">
        <ele>485.58700561523</ele>
        <time>2020-05-12T11:43:27Z</time>
      </trkpt>
      <trkpt lat="46.50152" lon="4.48659">
        <ele>487.58700561523</ele>
        <time>2020-05-12T11:43:33Z</time>
      </trkpt>
      <trkpt lat="46.50152" lon="4.48649">
        <ele>490.58700561523</ele>
        <time>2020-05-12T11:43:39Z</time>
      </trkpt>
      <trkpt lat="46.5015" lon="4.4864">
        <ele>490.58700561523</ele>
        <time>2020-05-12T11:43:46Z</time>
      </trkpt>
      <trkpt lat="46.50148" lon="4.48631">
        <ele>488.58700561523</ele>
        <time>2020-05-12T11:43:53Z</time>
      </trkpt>
      <trkpt lat="46.50146" lon="4.48621">
        <ele>489.58700561523</ele>
        <time>2020-05-12T11:43:59Z</time>
      </trkpt>
      <trkpt lat="46.50146" lon="4.4861">
        <ele>492.58700561523</ele>
        <time>2020-05-12T11:44:05Z</time>
      </trkpt>
      <trkpt lat="46.50145" lon="4.486">
        <ele>494.58700561523</ele>
        <time>2020-05-12T11:44:12Z</time>
      </trkpt>
      <trkpt lat="46.50145" lon="4.48589">
        <ele>494.58700561523</ele>
        <time>2020-05-12T11:44:19Z</time>
      </trkpt>
      <trkpt lat="46.50145" lon="4.4858">
        <ele>491.58700561523</ele>
        <time>2020-05-12T11:44:24Z</time>
      </trkpt>
      <trkpt lat="46.50147" lon="4.4857">
        <ele>489.58700561523</ele>
        <time>2020-05-12T11:44:30Z</time>
      </trkpt>
      <trkpt lat="46.50146" lon="4.4856">
        <ele>493.58700561523</ele>
        <time>2020-05-12T11:44:37Z</time>
      </trkpt>
      <trkpt lat="46.50146" lon="4.4855">
        <ele>493.58700561523</ele>
        <time>2020-05-12T11:44:42Z</time>
      </trkpt>
      <trkpt lat="46.50149" lon="4.48541">
        <ele>490.58700561523</ele>
        <time>2020-05-12T11:44:50Z</time>
      </trkpt>
      <trkpt lat="46.50151" lon="4.4853">
        <ele>491.58700561523</ele>
        <time>2020-05-12T11:44:56Z</time>
      </trkpt>
      <trkpt lat="46.50152" lon="4.4852">
        <ele>489.58700561523</ele>
        <time>2020-05-12T11:45:01Z</time>
      </trkpt>
      <trkpt lat="46.50152" lon="4.48509">
        <ele>491.58700561523</ele>
        <time>2020-05-12T11:45:07Z</time>
      </trkpt>
      <trkpt lat="46.50155" lon="4.48499">
        <ele>494.58700561523</ele>
        <time>2020-05-12T11:45:14Z</time>
      </trkpt>
      <trkpt lat="46.50157" lon="4.48489">
        <ele>495.58700561523</ele>
        <time>2020-05-12T11:45:20Z</time>
      </trkpt>
      <trkpt lat="46.50158" lon="4.48478">
        <ele>495.58700561523</ele>
        <time>2020-05-12T11:45:26Z</time>
      </trkpt>
      <trkpt lat="46.50158" lon="4.48467">
        <ele>496.58700561523</ele>
        <time>2020-05-12T11:45:33Z</time>
      </trkpt>
      <trkpt lat="46.50158" lon="4.48457">
        <ele>496.58700561523</ele>
        <time>2020-05-12T11:45:40Z</time>
      </trkpt>
      <trkpt lat="46.50159" lon="4.48447">
        <ele>499.58700561523</ele>
        <time>2020-05-12T11:47:45Z</time>
      </trkpt>
      <trkpt lat="46.50158" lon="4.48437">
        <ele>498.58700561523</ele>
        <time>2020-05-12T11:47:51Z</time>
      </trkpt>
      <trkpt lat="46.50157" lon="4.48427">
        <ele>498.58700561523</ele>
        <time>2020-05-12T11:47:57Z</time>
      </trkpt>
      <trkpt lat="46.50157" lon="4.48417">
        <ele>498.58700561523</ele>
        <time>2020-05-12T11:48:02Z</time>
      </trkpt>
      <trkpt lat="46.50155" lon="4.48408">
        <ele>497.58700561523</ele>
        <time>2020-05-12T11:48:07Z</time>
      </trkpt>
      <trkpt lat="46.50155" lon="4.48397">
        <ele>498.58700561523</ele>
        <time>2020-05-12T11:48:13Z</time>
      </trkpt>
      <trkpt lat="46.50154" lon="4.48386">
        <ele>497.58700561523</ele>
        <time>2020-05-12T11:48:19Z</time>
      </trkpt>
      <trkpt lat="46.50153" lon="4.48376">
        <ele>496.58700561523</ele>
        <time>2020-05-12T11:48:25Z</time>
      </trkpt>
      <trkpt lat="46.50151" lon="4.48365">
        <ele>495.58700561523</ele>
        <time>2020-05-12T11:48:31Z</time>
      </trkpt>
      <trkpt lat="46.50152" lon="4.48355">
        <ele>497.58700561523</ele>
        <time>2020-05-12T11:48:37Z</time>
      </trkpt>
      <trkpt lat="46.50155" lon="4.48364">
        <ele>496.58700561523</ele>
        <time>2020-05-12T11:48:47Z</time>
      </trkpt>
      <trkpt lat="46.50155" lon="4.48375">
        <ele>496.58700561523</ele>
        <time>2020-05-12T11:48:54Z</time>
      </trkpt>
      <trkpt lat="46.50156" lon="4.48385">
        <ele>496.58700561523</ele>
        <time>2020-05-12T11:51:33Z</time>
      </trkpt>
      <trkpt lat="46.50155" lon="4.48395">
        <ele>495.58700561523</ele>
        <time>2020-05-12T11:51:41Z</time>
      </trkpt>
      <trkpt lat="46.50157" lon="4.48404">
        <ele>496.58700561523</ele>
        <time>2020-05-12T11:51:47Z</time>
      </trkpt>
      <trkpt lat="46.50158" lon="4.48415">
        <ele>497.58700561523</ele>
        <time>2020-05-12T11:51:52Z</time>
      </trkpt>
      <trkpt lat="46.50158" lon="4.48425">
        <ele>498.58700561523</ele>
        <time>2020-05-12T11:51:58Z</time>
      </trkpt>
      <trkpt lat="46.5016" lon="4.48434">
        <ele>500.58700561523</ele>
        <time>2020-05-12T11:52:04Z</time>
      </trkpt>
      <trkpt lat="46.50159" lon="4.48444">
        <ele>499.58700561523</ele>
        <time>2020-05-12T11:52:09Z</time>
      </trkpt>
      <trkpt lat="46.50158" lon="4.48455">
        <ele>500.58700561523</ele>
        <time>2020-05-12T11:52:18Z</time>
      </trkpt>
      <trkpt lat="46.50156" lon="4.48466">
        <ele>501.58700561523</ele>
        <time>2020-05-12T11:52:23Z</time>
      </trkpt>
      <trkpt lat="46.50155" lon="4.48476">
        <ele>498.58700561523</ele>
        <time>2020-05-12T11:52:33Z</time>
      </trkpt>
      <trkpt lat="46.50155" lon="4.48486">
        <ele>494.58700561523</ele>
        <time>2020-05-12T11:52:38Z</time>
      </trkpt>
      <trkpt lat="46.50151" lon="4.48495">
        <ele>494.58700561523</ele>
        <time>2020-05-12T11:52:43Z</time>
      </trkpt>
      <trkpt lat="46.50147" lon="4.48504">
        <ele>500.58700561523</ele>
        <time>2020-05-12T11:52:57Z</time>
      </trkpt>
      <trkpt lat="46.5014" lon="4.48506">
        <ele>503.58700561523</ele>
        <time>2020-05-12T11:53:14Z</time>
      </trkpt>
      <trkpt lat="46.50144" lon="4.48514">
        <ele>502.58700561523</ele>
        <time>2020-05-12T11:57:11Z</time>
      </trkpt>
      <trkpt lat="46.5015" lon="4.48517">
        <ele>504.58700561523</ele>
        <time>2020-05-12T11:57:23Z</time>
      </trkpt>
      <trkpt lat="46.50148" lon="4.48527">
        <ele>501.58700561523</ele>
        <time>2020-05-12T11:57:31Z</time>
      </trkpt>
      <trkpt lat="46.50147" lon="4.48536">
        <ele>500.58700561523</ele>
        <time>2020-05-12T11:57:37Z</time>
      </trkpt>
      <trkpt lat="46.50146" lon="4.48546">
        <ele>498.58700561523</ele>
        <time>2020-05-12T11:57:42Z</time>
      </trkpt>
      <trkpt lat="46.50146" lon="4.48556">
        <ele>497.58700561523</ele>
        <time>2020-05-12T11:57:47Z</time>
      </trkpt>
      <trkpt lat="46.50145" lon="4.48566">
        <ele>495.58700561523</ele>
        <time>2020-05-12T11:57:53Z</time>
      </trkpt>
      <trkpt lat="46.50143" lon="4.48577">
        <ele>493.58700561523</ele>
        <time>2020-05-12T11:57:59Z</time>
      </trkpt>
      <trkpt lat="46.50142" lon="4.48589">
        <ele>492.58700561523</ele>
        <time>2020-05-12T11:58:05Z</time>
      </trkpt>
      <trkpt lat="46.50144" lon="4.48598">
        <ele>493.58700561523</ele>
        <time>2020-05-12T11:58:10Z</time>
      </trkpt>
      <trkpt lat="46.50145" lon="4.48608">
        <ele>492.58700561523</ele>
        <time>2020-05-12T11:58:15Z</time>
      </trkpt>
      <trkpt lat="46.50146" lon="4.4862">
        <ele>493.58700561523</ele>
        <time>2020-05-12T11:58:21Z</time>
      </trkpt>
      <trkpt lat="46.5015" lon="4.48631">
        <ele>492.58700561523</ele>
        <time>2020-05-12T11:58:28Z</time>
      </trkpt>
      <trkpt lat="46.50152" lon="4.4864">
        <ele>493.58700561523</ele>
        <time>2020-05-12T11:58:33Z</time>
      </trkpt>
      <trkpt lat="46.50153" lon="4.48652">
        <ele>493.58700561523</ele>
        <time>2020-05-12T11:58:39Z</time>
      </trkpt>
      <trkpt lat="46.50155" lon="4.48662">
        <ele>490.58700561523</ele>
        <time>2020-05-12T11:58:46Z</time>
      </trkpt>
      <trkpt lat="46.50155" lon="4.48671">
        <ele>487.58700561523</ele>
        <time>2020-05-12T11:58:52Z</time>
      </trkpt>
      <trkpt lat="46.50157" lon="4.48681">
        <ele>485.58700561523</ele>
        <time>2020-05-12T11:58:57Z</time>
      </trkpt>
      <trkpt lat="46.50156" lon="4.48692">
        <ele>484.58700561523</ele>
        <time>2020-05-12T11:59:03Z</time>
      </trkpt>
      <trkpt lat="46.50158" lon="4.48703">
        <ele>484.58700561523</ele>
        <time>2020-05-12T11:59:09Z</time>
      </trkpt>
      <trkpt lat="46.50159" lon="4.48714">
        <ele>481.58700561523</ele>
        <time>2020-05-12T11:59:15Z</time>
      </trkpt>
      <trkpt lat="46.50159" lon="4.48726">
        <ele>481.58700561523</ele>
        <time>2020-05-12T11:59:23Z</time>
      </trkpt>
      <trkpt lat="46.50163" lon="4.48735">
        <ele>480.58700561523</ele>
        <time>2020-05-12T11:59:29Z</time>
      </trkpt>
      <trkpt lat="46.50168" lon="4.48748">
        <ele>473.58700561523</ele>
        <time>2020-05-12T11:59:36Z</time>
      </trkpt>
      <trkpt lat="46.50173" lon="4.48761">
        <ele>471.58700561523</ele>
        <time>2020-05-12T11:59:41Z</time>
      </trkpt>
      <trkpt lat="46.50173" lon="4.48772">
        <ele>470.58700561523</ele>
        <time>2020-05-12T11:59:47Z</time>
      </trkpt>
      <trkpt lat="46.5017" lon="4.48781">
        <ele>470.58700561523</ele>
        <time>2020-05-12T11:59:52Z</time>
      </trkpt>
      <trkpt lat="46.50166" lon="4.48792">
        <ele>471.58700561523</ele>
        <time>2020-05-12T11:59:57Z</time>
      </trkpt>
      <trkpt lat="46.5016" lon="4.488">
        <ele>475.58700561523</ele>
        <time>2020-05-12T12:00:02Z</time>
      </trkpt>
      <trkpt lat="46.50155" lon="4.48808">
        <ele>478.58700561523</ele>
        <time>2020-05-12T12:00:07Z</time>
      </trkpt>
      <trkpt lat="46.50151" lon="4.48817">
        <ele>477.58700561523</ele>
        <time>2020-05-12T12:00:12Z</time>
      </trkpt>
      <trkpt lat="46.50146" lon="4.48825">
        <ele>479.58700561523</ele>
        <time>2020-05-12T12:00:17Z</time>
      </trkpt>
      <trkpt lat="46.50141" lon="4.48834">
        <ele>483.58700561523</ele>
        <time>2020-05-12T12:00:22Z</time>
      </trkpt>
      <trkpt lat="46.50136" lon="4.48843">
        <ele>483.58700561523</ele>
        <time>2020-05-12T12:00:27Z</time>
      </trkpt>
      <trkpt lat="46.5013" lon="4.48852">
        <ele>482.58700561523</ele>
        <time>2020-05-12T12:00:32Z</time>
      </trkpt>
      <trkpt lat="46.50125" lon="4.48862">
        <ele>484.58700561523</ele>
        <time>2020-05-12T12:00:38Z</time>
      </trkpt>
      <trkpt lat="46.50126" lon="4.48873">
        <ele>472.58700561523</ele>
        <time>2020-05-12T12:00:43Z</time>
      </trkpt>
      <trkpt lat="46.50123" lon="4.48882">
        <ele>472.58700561523</ele>
        <time>2020-05-12T12:00:48Z</time>
      </trkpt>
      <trkpt lat="46.50122" lon="4.48893">
        <ele>470.58700561523</ele>
        <time>2020-05-12T12:00:54Z</time>
      </trkpt>
      <trkpt lat="46.50119" lon="4.48903">
        <ele>470.58700561523</ele>
        <time>2020-05-12T12:00:59Z</time>
      </trkpt>
      <trkpt lat="46.50119" lon="4.48914">
        <ele>467.58700561523</ele>
        <time>2020-05-12T12:01:06Z</time>
      </trkpt>
      <trkpt lat="46.50117" lon="4.48926">
        <ele>470.58700561523</ele>
        <time>2020-05-12T12:01:11Z</time>
      </trkpt>
      <trkpt lat="46.50114" lon="4.48937">
        <ele>469.58700561523</ele>
        <time>2020-05-12T12:01:16Z</time>
      </trkpt>
      <trkpt lat="46.50113" lon="4.48948">
        <ele>465.58700561523</ele>
        <time>2020-05-12T12:01:22Z</time>
      </trkpt>
      <trkpt lat="46.50112" lon="4.48959">
        <ele>465.58700561523</ele>
        <time>2020-05-12T12:01:28Z</time>
      </trkpt>
      <trkpt lat="46.50111" lon="4.4897">
        <ele>464.58700561523</ele>
        <time>2020-05-12T12:01:33Z</time>
      </trkpt>
      <trkpt lat="46.50114" lon="4.4898">
        <ele>463.58700561523</ele>
        <time>2020-05-12T12:01:40Z</time>
      </trkpt>
      <trkpt lat="46.50117" lon="4.4899">
        <ele>461.58700561523</ele>
        <time>2020-05-12T12:01:45Z</time>
      </trkpt>
      <trkpt lat="46.50121" lon="4.49001">
        <ele>459.58700561523</ele>
        <time>2020-05-12T12:01:53Z</time>
      </trkpt>
      <trkpt lat="46.50124" lon="4.4901">
        <ele>459.58700561523</ele>
        <time>2020-05-12T12:01:58Z</time>
      </trkpt>
      <trkpt lat="46.50123" lon="4.4902">
        <ele>460.58700561523</ele>
        <time>2020-05-12T12:02:03Z</time>
      </trkpt>
      <trkpt lat="46.5012" lon="4.49028">
        <ele>460.58700561523</ele>
        <time>2020-05-12T12:02:08Z</time>
      </trkpt>
      <trkpt lat="46.50114" lon="4.49037">
        <ele>460.58700561523</ele>
        <time>2020-05-12T12:02:13Z</time>
      </trkpt>
      <trkpt lat="46.50106" lon="4.49041">
        <ele>459.58700561523</ele>
        <time>2020-05-12T12:03:25Z</time>
      </trkpt>
      <trkpt lat="46.501" lon="4.49039">
        <ele>460.58700561523</ele>
        <time>2020-05-12T12:03:30Z</time>
      </trkpt>
      <trkpt lat="46.50093" lon="4.49036">
        <ele>459.58700561523</ele>
        <time>2020-05-12T12:03:35Z</time>
      </trkpt>
      <trkpt lat="46.50086" lon="4.49031">
        <ele>458.58700561523</ele>
        <time>2020-05-12T12:03:40Z</time>
      </trkpt>
      <trkpt lat="46.50079" lon="4.49029">
        <ele>457.58700561523</ele>
        <time>2020-05-12T12:03:45Z</time>
      </trkpt>
      <trkpt lat="46.50071" lon="4.49023">
        <ele>461.58700561523</ele>
        <time>2020-05-12T12:03:50Z</time>
      </trkpt>
      <trkpt lat="46.50064" lon="4.49021">
        <ele>459.58700561523</ele>
        <time>2020-05-12T12:03:55Z</time>
      </trkpt>
      <trkpt lat="46.50057" lon="4.4902">
        <ele>457.58700561523</ele>
        <time>2020-05-12T12:04:00Z</time>
      </trkpt>
      <trkpt lat="46.5005" lon="4.49018">
        <ele>456.58700561523</ele>
        <time>2020-05-12T12:04:05Z</time>
      </trkpt>
      <trkpt lat="46.50042" lon="4.49019">
        <ele>455.58700561523</ele>
        <time>2020-05-12T12:04:10Z</time>
      </trkpt>
      <trkpt lat="46.50034" lon="4.4902">
        <ele>453.58700561523</ele>
        <time>2020-05-12T12:04:17Z</time>
      </trkpt>
      <trkpt lat="46.50025" lon="4.49022">
        <ele>454.58700561523</ele>
        <time>2020-05-12T12:04:22Z</time>
      </trkpt>
      <trkpt lat="46.50018" lon="4.49018">
        <ele>455.58700561523</ele>
        <time>2020-05-12T12:04:28Z</time>
      </trkpt>
      <trkpt lat="46.50011" lon="4.49013">
        <ele>454.58700561523</ele>
        <time>2020-05-12T12:04:34Z</time>
      </trkpt>
      <trkpt lat="46.50003" lon="4.49008">
        <ele>456.58700561523</ele>
        <time>2020-05-12T12:04:39Z</time>
      </trkpt>
      <trkpt lat="46.5" lon="4.48998">
        <ele>457.58700561523</ele>
        <time>2020-05-12T12:04:44Z</time>
      </trkpt>
      <trkpt lat="46.49995" lon="4.48989">
        <ele>455.58700561523</ele>
        <time>2020-05-12T12:04:49Z</time>
      </trkpt>
      <trkpt lat="46.49992" lon="4.48979">
        <ele>456.58700561523</ele>
        <time>2020-05-12T12:04:54Z</time>
      </trkpt>
      <trkpt lat="46.49989" lon="4.4897">
        <ele>454.58700561523</ele>
        <time>2020-05-12T12:04:59Z</time>
      </trkpt>
      <trkpt lat="46.49985" lon="4.48961">
        <ele>451.58700561523</ele>
        <time>2020-05-12T12:05:04Z</time>
      </trkpt>
      <trkpt lat="46.49981" lon="4.48952">
        <ele>450.58700561523</ele>
        <time>2020-05-12T12:05:10Z</time>
      </trkpt>
      <trkpt lat="46.49978" lon="4.48943">
        <ele>449.58700561523</ele>
        <time>2020-05-12T12:05:16Z</time>
      </trkpt>
      <trkpt lat="46.49971" lon="4.48937">
        <ele>448.58700561523</ele>
        <time>2020-05-12T12:05:21Z</time>
      </trkpt>
      <trkpt lat="46.49965" lon="4.48934">
        <ele>447.58700561523</ele>
        <time>2020-05-12T12:05:26Z</time>
      </trkpt>
      <trkpt lat="46.49959" lon="4.4894">
        <ele>443.58700561523</ele>
        <time>2020-05-12T12:05:34Z</time>
      </trkpt>
      <trkpt lat="46.49954" lon="4.48948">
        <ele>442.58700561523</ele>
        <time>2020-05-12T12:05:41Z</time>
      </trkpt>
      <trkpt lat="46.49952" lon="4.48958">
        <ele>439.58700561523</ele>
        <time>2020-05-12T12:05:46Z</time>
      </trkpt>
      <trkpt lat="46.4995" lon="4.48969">
        <ele>439.58700561523</ele>
        <time>2020-05-12T12:05:52Z</time>
      </trkpt>
      <trkpt lat="46.49948" lon="4.48979">
        <ele>438.58700561523</ele>
        <time>2020-05-12T12:05:57Z</time>
      </trkpt>
      <trkpt lat="46.49946" lon="4.4899">
        <ele>438.58700561523</ele>
        <time>2020-05-12T12:06:03Z</time>
      </trkpt>
      <trkpt lat="46.49942" lon="4.49001">
        <ele>436.58700561523</ele>
        <time>2020-05-12T12:06:08Z</time>
      </trkpt>
      <trkpt lat="46.49938" lon="4.49011">
        <ele>434.58700561523</ele>
        <time>2020-05-12T12:06:15Z</time>
      </trkpt>
      <trkpt lat="46.49936" lon="4.49021">
        <ele>433.58700561523</ele>
        <time>2020-05-12T12:06:20Z</time>
      </trkpt>
      <trkpt lat="46.49931" lon="4.4903">
        <ele>433.58700561523</ele>
        <time>2020-05-12T12:06:27Z</time>
      </trkpt>
      <trkpt lat="46.4993" lon="4.49041">
        <ele>432.58700561523</ele>
        <time>2020-05-12T12:06:32Z</time>
      </trkpt>
      <trkpt lat="46.49927" lon="4.49053">
        <ele>428.58700561523</ele>
        <time>2020-05-12T12:06:37Z</time>
      </trkpt>
      <trkpt lat="46.49923" lon="4.49064">
        <ele>430.58700561523</ele>
        <time>2020-05-12T12:06:42Z</time>
      </trkpt>
      <trkpt lat="46.4992" lon="4.49072">
        <ele>430.58700561523</ele>
        <time>2020-05-12T12:06:47Z</time>
      </trkpt>
      <trkpt lat="46.4992" lon="4.49083">
        <ele>430.58700561523</ele>
        <time>2020-05-12T12:06:52Z</time>
      </trkpt>
      <trkpt lat="46.49919" lon="4.49095">
        <ele>433.58700561523</ele>
        <time>2020-05-12T12:06:57Z</time>
      </trkpt>
      <trkpt lat="46.49919" lon="4.49106">
        <ele>431.58700561523</ele>
        <time>2020-05-12T12:07:02Z</time>
      </trkpt>
      <trkpt lat="46.49918" lon="4.49117">
        <ele>429.58700561523</ele>
        <time>2020-05-12T12:07:09Z</time>
      </trkpt>
      <trkpt lat="46.49917" lon="4.49128">
        <ele>425.58700561523</ele>
        <time>2020-05-12T12:07:16Z</time>
      </trkpt>
      <trkpt lat="46.49918" lon="4.49141">
        <ele>426.58700561523</ele>
        <time>2020-05-12T12:07:21Z</time>
      </trkpt>
      <trkpt lat="46.49917" lon="4.49151">
        <ele>424.58700561523</ele>
        <time>2020-05-12T12:07:26Z</time>
      </trkpt>
      <trkpt lat="46.49921" lon="4.49162">
        <ele>424.58700561523</ele>
        <time>2020-05-12T12:07:31Z</time>
      </trkpt>
      <trkpt lat="46.49924" lon="4.49171">
        <ele>424.58700561523</ele>
        <time>2020-05-12T12:07:36Z</time>
      </trkpt>
      <trkpt lat="46.4993" lon="4.49179">
        <ele>423.58700561523</ele>
        <time>2020-05-12T12:07:41Z</time>
      </trkpt>
      <trkpt lat="46.49937" lon="4.49187">
        <ele>422.58700561523</ele>
        <time>2020-05-12T12:07:46Z</time>
      </trkpt>
      <trkpt lat="46.49943" lon="4.49196">
        <ele>419.58700561523</ele>
        <time>2020-05-12T12:07:51Z</time>
      </trkpt>
      <trkpt lat="46.49949" lon="4.49202">
        <ele>418.58700561523</ele>
        <time>2020-05-12T12:07:56Z</time>
      </trkpt>
      <trkpt lat="46.49955" lon="4.49209">
        <ele>416.58700561523</ele>
        <time>2020-05-12T12:08:01Z</time>
      </trkpt>
      <trkpt lat="46.49961" lon="4.49216">
        <ele>417.58700561523</ele>
        <time>2020-05-12T12:08:06Z</time>
      </trkpt>
      <trkpt lat="46.49968" lon="4.49222">
        <ele>415.58700561523</ele>
        <time>2020-05-12T12:08:11Z</time>
      </trkpt>
      <trkpt lat="46.49974" lon="4.49229">
        <ele>414.58700561523</ele>
        <time>2020-05-12T12:08:17Z</time>
      </trkpt>
      <trkpt lat="46.4998" lon="4.49238">
        <ele>415.58700561523</ele>
        <time>2020-05-12T12:08:22Z</time>
      </trkpt>
      <trkpt lat="46.49985" lon="4.49244">
        <ele>412.58700561523</ele>
        <time>2020-05-12T12:08:27Z</time>
      </trkpt>
      <trkpt lat="46.4999" lon="4.4925">
        <ele>413.58700561523</ele>
        <time>2020-05-12T12:08:32Z</time>
      </trkpt>
      <trkpt lat="46.49997" lon="4.49254">
        <ele>412.58700561523</ele>
        <time>2020-05-12T12:08:37Z</time>
      </trkpt>
      <trkpt lat="46.50002" lon="4.4926">
        <ele>412.58700561523</ele>
        <time>2020-05-12T12:08:44Z</time>
      </trkpt>
      <trkpt lat="46.50011" lon="4.49265">
        <ele>411.58700561523</ele>
        <time>2020-05-12T12:08:49Z</time>
      </trkpt>
      <trkpt lat="46.50019" lon="4.49267">
        <ele>410.58700561523</ele>
        <time>2020-05-12T12:08:55Z</time>
      </trkpt>
      <trkpt lat="46.50026" lon="4.49268">
        <ele>408.58700561523</ele>
        <time>2020-05-12T12:09:00Z</time>
      </trkpt>
      <trkpt lat="46.50034" lon="4.49271">
        <ele>409.58700561523</ele>
        <time>2020-05-12T12:09:05Z</time>
      </trkpt>
      <trkpt lat="46.50041" lon="4.49278">
        <ele>407.58700561523</ele>
        <time>2020-05-12T12:09:10Z</time>
      </trkpt>
      <trkpt lat="46.50042" lon="4.49288">
        <ele>407.58700561523</ele>
        <time>2020-05-12T12:09:15Z</time>
      </trkpt>
      <trkpt lat="46.50039" lon="4.49298">
        <ele>406.58700561523</ele>
        <time>2020-05-12T12:09:20Z</time>
      </trkpt>
      <trkpt lat="46.50036" lon="4.49307">
        <ele>406.58700561523</ele>
        <time>2020-05-12T12:09:26Z</time>
      </trkpt>
      <trkpt lat="46.50031" lon="4.49319">
        <ele>406.58700561523</ele>
        <time>2020-05-12T12:09:31Z</time>
      </trkpt>
      <trkpt lat="46.50026" lon="4.49325">
        <ele>404.58700561523</ele>
        <time>2020-05-12T12:09:37Z</time>
      </trkpt>
      <trkpt lat="46.50022" lon="4.49333">
        <ele>400.58700561523</ele>
        <time>2020-05-12T12:09:42Z</time>
      </trkpt>
      <trkpt lat="46.50018" lon="4.49342">
        <ele>398.58700561523</ele>
        <time>2020-05-12T12:09:47Z</time>
      </trkpt>
      <trkpt lat="46.50015" lon="4.49352">
        <ele>397.58700561523</ele>
        <time>2020-05-12T12:09:53Z</time>
      </trkpt>
      <trkpt lat="46.50015" lon="4.49363">
        <ele>390.58700561523</ele>
        <time>2020-05-12T12:09:59Z</time>
      </trkpt>
      <trkpt lat="46.50013" lon="4.49377">
        <ele>392.58700561523</ele>
        <time>2020-05-12T12:10:04Z</time>
      </trkpt>
      <trkpt lat="46.50013" lon="4.49389">
        <ele>392.58700561523</ele>
        <time>2020-05-12T12:10:10Z</time>
      </trkpt>
      <trkpt lat="46.50012" lon="4.49399">
        <ele>393.58700561523</ele>
        <time>2020-05-12T12:10:16Z</time>
      </trkpt>
      <trkpt lat="46.50014" lon="4.49411">
        <ele>393.58700561523</ele>
        <time>2020-05-12T12:10:21Z</time>
      </trkpt>
      <trkpt lat="46.50017" lon="4.49422">
        <ele>392.58700561523</ele>
        <time>2020-05-12T12:10:26Z</time>
      </trkpt>
      <trkpt lat="46.50021" lon="4.49434">
        <ele>393.58700561523</ele>
        <time>2020-05-12T12:10:31Z</time>
      </trkpt>
      <trkpt lat="46.50024" lon="4.49446">
        <ele>391.58700561523</ele>
        <time>2020-05-12T12:10:36Z</time>
      </trkpt>
      <trkpt lat="46.50027" lon="4.49454">
        <ele>390.58700561523</ele>
        <time>2020-05-12T12:10:41Z</time>
      </trkpt>
      <trkpt lat="46.50031" lon="4.49463">
        <ele>394.58700561523</ele>
        <time>2020-05-12T12:10:46Z</time>
      </trkpt>
      <trkpt lat="46.50034" lon="4.49474">
        <ele>392.58700561523</ele>
        <time>2020-05-12T12:10:52Z</time>
      </trkpt>
      <trkpt lat="46.50037" lon="4.49484">
        <ele>391.58700561523</ele>
        <time>2020-05-12T12:10:57Z</time>
      </trkpt>
      <trkpt lat="46.50041" lon="4.49495">
        <ele>387.58700561523</ele>
        <time>2020-05-12T12:11:02Z</time>
      </trkpt>
      <trkpt lat="46.50045" lon="4.49503">
        <ele>388.58700561523</ele>
        <time>2020-05-12T12:11:07Z</time>
      </trkpt>
      <trkpt lat="46.5005" lon="4.49512">
        <ele>385.58700561523</ele>
        <time>2020-05-12T12:11:13Z</time>
      </trkpt>
      <trkpt lat="46.50054" lon="4.49521">
        <ele>385.58700561523</ele>
        <time>2020-05-12T12:11:18Z</time>
      </trkpt>
      <trkpt lat="46.50057" lon="4.49533">
        <ele>385.58700561523</ele>
        <time>2020-05-12T12:11:23Z</time>
      </trkpt>
      <trkpt lat="46.50061" lon="4.49541">
        <ele>383.58700561523</ele>
        <time>2020-05-12T12:11:28Z</time>
      </trkpt>
      <trkpt lat="46.50065" lon="4.49551">
        <ele>383.58700561523</ele>
        <time>2020-05-12T12:11:33Z</time>
      </trkpt>
      <trkpt lat="46.50068" lon="4.49563">
        <ele>382.58700561523</ele>
        <time>2020-05-12T12:11:38Z</time>
      </trkpt>
      <trkpt lat="46.50072" lon="4.49571">
        <ele>383.58700561523</ele>
        <time>2020-05-12T12:11:43Z</time>
      </trkpt>
      <trkpt lat="46.50076" lon="4.49581">
        <ele>383.58700561523</ele>
        <time>2020-05-12T12:11:48Z</time>
      </trkpt>
      <trkpt lat="46.50081" lon="4.49588">
        <ele>381.58700561523</ele>
        <time>2020-05-12T12:11:53Z</time>
      </trkpt>
      <trkpt lat="46.50084" lon="4.49598">
        <ele>381.58700561523</ele>
        <time>2020-05-12T12:11:58Z</time>
      </trkpt>
      <trkpt lat="46.50087" lon="4.49607">
        <ele>382.58700561523</ele>
        <time>2020-05-12T12:12:03Z</time>
      </trkpt>
      <trkpt lat="46.50091" lon="4.49615">
        <ele>381.58700561523</ele>
        <time>2020-05-12T12:12:09Z</time>
      </trkpt>
      <trkpt lat="46.50096" lon="4.49624">
        <ele>375.58700561523</ele>
        <time>2020-05-12T12:12:15Z</time>
      </trkpt>
      <trkpt lat="46.50097" lon="4.49634">
        <ele>378.58700561523</ele>
        <time>2020-05-12T12:12:20Z</time>
      </trkpt>
      <trkpt lat="46.50098" lon="4.49646">
        <ele>380.58801269531</ele>
        <time>2020-05-12T12:12:25Z</time>
      </trkpt>
      <trkpt lat="46.50103" lon="4.49657">
        <ele>382.58801269531</ele>
        <time>2020-05-12T12:12:30Z</time>
      </trkpt>
      <trkpt lat="46.50106" lon="4.49667">
        <ele>379.58801269531</ele>
        <time>2020-05-12T12:12:35Z</time>
      </trkpt>
      <trkpt lat="46.50108" lon="4.49676">
        <ele>380.58801269531</ele>
        <time>2020-05-12T12:12:40Z</time>
      </trkpt>
      <trkpt lat="46.50113" lon="4.49685">
        <ele>378.58801269531</ele>
        <time>2020-05-12T12:12:45Z</time>
      </trkpt>
      <trkpt lat="46.50116" lon="4.49695">
        <ele>377.58801269531</ele>
        <time>2020-05-12T12:12:50Z</time>
      </trkpt>
      <trkpt lat="46.50121" lon="4.49703">
        <ele>379.58801269531</ele>
        <time>2020-05-12T12:12:55Z</time>
      </trkpt>
      <trkpt lat="46.50125" lon="4.49714">
        <ele>377.58801269531</ele>
        <time>2020-05-12T12:13:00Z</time>
      </trkpt>
      <trkpt lat="46.5013" lon="4.49725">
        <ele>375.58801269531</ele>
        <time>2020-05-12T12:13:05Z</time>
      </trkpt>
      <trkpt lat="46.50133" lon="4.49733">
        <ele>377.58801269531</ele>
        <time>2020-05-12T12:13:10Z</time>
      </trkpt>
      <trkpt lat="46.50137" lon="4.49745">
        <ele>378.58801269531</ele>
        <time>2020-05-12T12:13:15Z</time>
      </trkpt>
      <trkpt lat="46.50141" lon="4.49754">
        <ele>377.58801269531</ele>
        <time>2020-05-12T12:13:20Z</time>
      </trkpt>
      <trkpt lat="46.50145" lon="4.49766">
        <ele>377.58801269531</ele>
        <time>2020-05-12T12:13:31Z</time>
      </trkpt>
      <trkpt lat="46.5015" lon="4.49776">
        <ele>375.58801269531</ele>
        <time>2020-05-12T12:13:36Z</time>
      </trkpt>
      <trkpt lat="46.50153" lon="4.49785">
        <ele>375.58801269531</ele>
        <time>2020-05-12T12:13:41Z</time>
      </trkpt>
      <trkpt lat="46.50157" lon="4.49794">
        <ele>375.58801269531</ele>
        <time>2020-05-12T12:13:46Z</time>
      </trkpt>
      <trkpt lat="46.50162" lon="4.49806">
        <ele>375.58801269531</ele>
        <time>2020-05-12T12:13:51Z</time>
      </trkpt>
      <trkpt lat="46.50165" lon="4.49817">
        <ele>373.58801269531</ele>
        <time>2020-05-12T12:13:56Z</time>
      </trkpt>
      <trkpt lat="46.50168" lon="4.49827">
        <ele>374.58801269531</ele>
        <time>2020-05-12T12:14:01Z</time>
      </trkpt>
      <trkpt lat="46.50173" lon="4.49836">
        <ele>370.58801269531</ele>
        <time>2020-05-12T12:14:07Z</time>
      </trkpt>
      <trkpt lat="46.50177" lon="4.49845">
        <ele>368.58801269531</ele>
        <time>2020-05-12T12:14:12Z</time>
      </trkpt>
      <trkpt lat="46.5018" lon="4.49855">
        <ele>370.58801269531</ele>
        <time>2020-05-12T12:14:17Z</time>
      </trkpt>
      <trkpt lat="46.50184" lon="4.49866">
        <ele>368.58801269531</ele>
        <time>2020-05-12T12:14:22Z</time>
      </trkpt>
      <trkpt lat="46.50187" lon="4.49876">
        <ele>367.58801269531</ele>
        <time>2020-05-12T12:14:27Z</time>
      </trkpt>
      <trkpt lat="46.5019" lon="4.49886">
        <ele>369.58801269531</ele>
        <time>2020-05-12T12:14:33Z</time>
      </trkpt>
      <trkpt lat="46.50193" lon="4.49897">
        <ele>367.58801269531</ele>
        <time>2020-05-12T12:14:38Z</time>
      </trkpt>
      <trkpt lat="46.50196" lon="4.49906">
        <ele>367.58801269531</ele>
        <time>2020-05-12T12:14:43Z</time>
      </trkpt>
      <trkpt lat="46.502" lon="4.49913">
        <ele>365.58801269531</ele>
        <time>2020-05-12T12:14:48Z</time>
      </trkpt>
      <trkpt lat="46.50203" lon="4.49926">
        <ele>367.58801269531</ele>
        <time>2020-05-12T12:14:53Z</time>
      </trkpt>
      <trkpt lat="46.50204" lon="4.49937">
        <ele>365.58801269531</ele>
        <time>2020-05-12T12:14:58Z</time>
      </trkpt>
      <trkpt lat="46.50206" lon="4.49945">
        <ele>368.58801269531</ele>
        <time>2020-05-12T12:15:04Z</time>
      </trkpt>
      <trkpt lat="46.5021" lon="4.49955">
        <ele>365.58801269531</ele>
        <time>2020-05-12T12:15:09Z</time>
      </trkpt>
      <trkpt lat="46.50212" lon="4.49966">
        <ele>366.58801269531</ele>
        <time>2020-05-12T12:15:16Z</time>
      </trkpt>
      <trkpt lat="46.50216" lon="4.49978">
        <ele>365.58801269531</ele>
        <time>2020-05-12T12:15:21Z</time>
      </trkpt>
      <trkpt lat="46.50217" lon="4.49988">
        <ele>367.58801269531</ele>
        <time>2020-05-12T12:15:26Z</time>
      </trkpt>
      <trkpt lat="46.50221" lon="4.49996">
        <ele>364.58801269531</ele>
        <time>2020-05-12T12:15:32Z</time>
      </trkpt>
      <trkpt lat="46.50225" lon="4.50007">
        <ele>361.58801269531</ele>
        <time>2020-05-12T12:15:40Z</time>
      </trkpt>
      <trkpt lat="46.5023" lon="4.50015">
        <ele>356.58801269531</ele>
        <time>2020-05-12T12:15:45Z</time>
      </trkpt>
      <trkpt lat="46.50237" lon="4.50026">
        <ele>355.58801269531</ele>
        <time>2020-05-12T12:15:50Z</time>
      </trkpt>
      <trkpt lat="46.50239" lon="4.50038">
        <ele>358.58801269531</ele>
        <time>2020-05-12T12:15:55Z</time>
      </trkpt>
      <trkpt lat="46.50241" lon="4.50047">
        <ele>358.58801269531</ele>
        <time>2020-05-12T12:16:00Z</time>
      </trkpt>
      <trkpt lat="46.50243" lon="4.50057">
        <ele>361.58801269531</ele>
        <time>2020-05-12T12:16:05Z</time>
      </trkpt>
      <trkpt lat="46.50248" lon="4.5007">
        <ele>360.58801269531</ele>
        <time>2020-05-12T12:16:10Z</time>
      </trkpt>
      <trkpt lat="46.5025" lon="4.50079">
        <ele>359.58801269531</ele>
        <time>2020-05-12T12:16:15Z</time>
      </trkpt>
      <trkpt lat="46.50251" lon="4.50089">
        <ele>357.58801269531</ele>
        <time>2020-05-12T12:16:20Z</time>
      </trkpt>
      <trkpt lat="46.50252" lon="4.50101">
        <ele>356.58801269531</ele>
        <time>2020-05-12T12:16:25Z</time>
      </trkpt>
      <trkpt lat="46.50253" lon="4.50111">
        <ele>357.58801269531</ele>
        <time>2020-05-12T12:16:31Z</time>
      </trkpt>
      <trkpt lat="46.50253" lon="4.50121">
        <ele>356.58801269531</ele>
        <time>2020-05-12T12:16:36Z</time>
      </trkpt>
      <trkpt lat="46.50255" lon="4.50132">
        <ele>355.58801269531</ele>
        <time>2020-05-12T12:16:41Z</time>
      </trkpt>
      <trkpt lat="46.50255" lon="4.50144">
        <ele>356.58801269531</ele>
        <time>2020-05-12T12:16:47Z</time>
      </trkpt>
      <trkpt lat="46.50256" lon="4.50156">
        <ele>357.58801269531</ele>
        <time>2020-05-12T12:16:52Z</time>
      </trkpt>
      <trkpt lat="46.50256" lon="4.50167">
        <ele>357.58801269531</ele>
        <time>2020-05-12T12:16:58Z</time>
      </trkpt>
      <trkpt lat="46.50256" lon="4.50176">
        <ele>355.58801269531</ele>
        <time>2020-05-12T12:17:03Z</time>
      </trkpt>
      <trkpt lat="46.50259" lon="4.50188">
        <ele>353.58801269531</ele>
        <time>2020-05-12T12:17:08Z</time>
      </trkpt>
      <trkpt lat="46.50261" lon="4.50199">
        <ele>351.58801269531</ele>
        <time>2020-05-12T12:17:14Z</time>
      </trkpt>
      <trkpt lat="46.50263" lon="4.50208">
        <ele>348.58801269531</ele>
        <time>2020-05-12T12:17:19Z</time>
      </trkpt>
      <trkpt lat="46.50266" lon="4.5022">
        <ele>351.58801269531</ele>
        <time>2020-05-12T12:17:24Z</time>
      </trkpt>
      <trkpt lat="46.5027" lon="4.50231">
        <ele>348.58801269531</ele>
        <time>2020-05-12T12:17:29Z</time>
      </trkpt>
      <trkpt lat="46.50273" lon="4.50243">
        <ele>349.58801269531</ele>
        <time>2020-05-12T12:17:34Z</time>
      </trkpt>
      <trkpt lat="46.50276" lon="4.50252">
        <ele>353.58801269531</ele>
        <time>2020-05-12T12:17:40Z</time>
      </trkpt>
      <trkpt lat="46.50278" lon="4.50262">
        <ele>352.58801269531</ele>
        <time>2020-05-12T12:17:45Z</time>
      </trkpt>
      <trkpt lat="46.50283" lon="4.5027">
        <ele>350.58801269531</ele>
        <time>2020-05-12T12:17:51Z</time>
      </trkpt>
      <trkpt lat="46.50287" lon="4.50279">
        <ele>348.58801269531</ele>
        <time>2020-05-12T12:17:57Z</time>
      </trkpt>
      <trkpt lat="46.50293" lon="4.5029">
        <ele>350.58898925781</ele>
        <time>2020-05-12T12:18:02Z</time>
      </trkpt>
      <trkpt lat="46.50295" lon="4.50302">
        <ele>350.58898925781</ele>
        <time>2020-05-12T12:18:07Z</time>
      </trkpt>
      <trkpt lat="46.50299" lon="4.5031">
        <ele>351.58898925781</ele>
        <time>2020-05-12T12:18:12Z</time>
      </trkpt>
      <trkpt lat="46.50303" lon="4.50321">
        <ele>351.58898925781</ele>
        <time>2020-05-12T12:18:17Z</time>
      </trkpt>
      <trkpt lat="46.50306" lon="4.5033">
        <ele>348.58898925781</ele>
        <time>2020-05-12T12:18:22Z</time>
      </trkpt>
      <trkpt lat="46.50309" lon="4.50343">
        <ele>348.58898925781</ele>
        <time>2020-05-12T12:18:27Z</time>
      </trkpt>
      <trkpt lat="46.50313" lon="4.50357">
        <ele>351.58898925781</ele>
        <time>2020-05-12T12:18:32Z</time>
      </trkpt>
      <trkpt lat="46.50319" lon="4.50365">
        <ele>351.58898925781</ele>
        <time>2020-05-12T12:18:37Z</time>
      </trkpt>
      <trkpt lat="46.50322" lon="4.50374">
        <ele>351.58898925781</ele>
        <time>2020-05-12T12:18:42Z</time>
      </trkpt>
      <trkpt lat="46.50325" lon="4.50383">
        <ele>352.58898925781</ele>
        <time>2020-05-12T12:18:47Z</time>
      </trkpt>
      <trkpt lat="46.50328" lon="4.50393">
        <ele>353.58898925781</ele>
        <time>2020-05-12T12:18:52Z</time>
      </trkpt>
      <trkpt lat="46.50332" lon="4.50403">
        <ele>351.58898925781</ele>
        <time>2020-05-12T12:18:58Z</time>
      </trkpt>
      <trkpt lat="46.50337" lon="4.5041">
        <ele>351.58898925781</ele>
        <time>2020-05-12T12:19:03Z</time>
      </trkpt>
      <trkpt lat="46.50341" lon="4.50419">
        <ele>351.58898925781</ele>
        <time>2020-05-12T12:19:08Z</time>
      </trkpt>
      <trkpt lat="46.50346" lon="4.50427">
        <ele>353.58898925781</ele>
        <time>2020-05-12T12:19:14Z</time>
      </trkpt>
      <trkpt lat="46.5035" lon="4.50438">
        <ele>350.58898925781</ele>
        <time>2020-05-12T12:19:19Z</time>
      </trkpt>
      <trkpt lat="46.50356" lon="4.5045">
        <ele>351.58898925781</ele>
        <time>2020-05-12T12:19:24Z</time>
      </trkpt>
      <trkpt lat="46.5036" lon="4.5046">
        <ele>352.58898925781</ele>
        <time>2020-05-12T12:19:31Z</time>
      </trkpt>
      <trkpt lat="46.50364" lon="4.50469">
        <ele>352.58898925781</ele>
        <time>2020-05-12T12:19:36Z</time>
      </trkpt>
      <trkpt lat="46.50366" lon="4.50479">
        <ele>350.58898925781</ele>
        <time>2020-05-12T12:19:42Z</time>
      </trkpt>
      <trkpt lat="46.50369" lon="4.50489">
        <ele>351.58898925781</ele>
        <time>2020-05-12T12:19:49Z</time>
      </trkpt>
      <trkpt lat="46.50372" lon="4.50499">
        <ele>350.58898925781</ele>
        <time>2020-05-12T12:19:54Z</time>
      </trkpt>
      <trkpt lat="46.50377" lon="4.5051">
        <ele>346.58898925781</ele>
        <time>2020-05-12T12:19:59Z</time>
      </trkpt>
      <trkpt lat="46.50381" lon="4.50521">
        <ele>347.58898925781</ele>
        <time>2020-05-12T12:20:04Z</time>
      </trkpt>
      <trkpt lat="46.50383" lon="4.50534">
        <ele>350.58898925781</ele>
        <time>2020-05-12T12:20:09Z</time>
      </trkpt>
      <trkpt lat="46.50387" lon="4.50545">
        <ele>352.58898925781</ele>
        <time>2020-05-12T12:20:14Z</time>
      </trkpt>
      <trkpt lat="46.50391" lon="4.50554">
        <ele>351.58898925781</ele>
        <time>2020-05-12T12:20:19Z</time>
      </trkpt>
      <trkpt lat="46.50393" lon="4.50564">
        <ele>351.58898925781</ele>
        <time>2020-05-12T12:20:24Z</time>
      </trkpt>
      <trkpt lat="46.50396" lon="4.50573">
        <ele>350.58898925781</ele>
        <time>2020-05-12T12:20:30Z</time>
      </trkpt>
      <trkpt lat="46.50399" lon="4.50583">
        <ele>353.58898925781</ele>
        <time>2020-05-12T12:20:37Z</time>
      </trkpt>
      <trkpt lat="46.50403" lon="4.50592">
        <ele>351.58898925781</ele>
        <time>2020-05-12T12:20:42Z</time>
      </trkpt>
      <trkpt lat="46.50406" lon="4.50601">
        <ele>350.58898925781</ele>
        <time>2020-05-12T12:20:47Z</time>
      </trkpt>
      <trkpt lat="46.5041" lon="4.50608">
        <ele>351.58898925781</ele>
        <time>2020-05-12T12:21:54Z</time>
      </trkpt>
      <trkpt lat="46.50414" lon="4.50618">
        <ele>353.58898925781</ele>
        <time>2020-05-12T12:22:00Z</time>
      </trkpt>
      <trkpt lat="46.50416" lon="4.50628">
        <ele>352.58898925781</ele>
        <time>2020-05-12T12:22:05Z</time>
      </trkpt>
      <trkpt lat="46.50419" lon="4.50638">
        <ele>354.58898925781</ele>
        <time>2020-05-12T12:22:11Z</time>
      </trkpt>
      <trkpt lat="46.50424" lon="4.50645">
        <ele>352.58898925781</ele>
        <time>2020-05-12T12:22:19Z</time>
      </trkpt>
      <trkpt lat="46.50425" lon="4.50655">
        <ele>351.58898925781</ele>
        <time>2020-05-12T12:22:27Z</time>
      </trkpt>
      <trkpt lat="46.50428" lon="4.50664">
        <ele>354.58898925781</ele>
        <time>2020-05-12T12:22:33Z</time>
      </trkpt>
      <trkpt lat="46.5043" lon="4.50675">
        <ele>353.58898925781</ele>
        <time>2020-05-12T12:22:38Z</time>
      </trkpt>
      <trkpt lat="46.50434" lon="4.50685">
        <ele>351.58898925781</ele>
        <time>2020-05-12T12:22:43Z</time>
      </trkpt>
      <trkpt lat="46.5044" lon="4.50693">
        <ele>351.58898925781</ele>
        <time>2020-05-12T12:22:48Z</time>
      </trkpt>
      <trkpt lat="46.50443" lon="4.50702">
        <ele>351.58898925781</ele>
        <time>2020-05-12T12:22:53Z</time>
      </trkpt>
      <trkpt lat="46.50447" lon="4.50714">
        <ele>352.58898925781</ele>
        <time>2020-05-12T12:22:58Z</time>
      </trkpt>
      <trkpt lat="46.5045" lon="4.50725">
        <ele>352.58898925781</ele>
        <time>2020-05-12T12:23:03Z</time>
      </trkpt>
      <trkpt lat="46.50455" lon="4.50733">
        <ele>351.58898925781</ele>
        <time>2020-05-12T12:23:08Z</time>
      </trkpt>
      <trkpt lat="46.50459" lon="4.50742">
        <ele>352.58898925781</ele>
        <time>2020-05-12T12:23:13Z</time>
      </trkpt>
      <trkpt lat="46.50461" lon="4.50751">
        <ele>353.58898925781</ele>
        <time>2020-05-12T12:23:19Z</time>
      </trkpt>
      <trkpt lat="46.50465" lon="4.50763">
        <ele>351.58898925781</ele>
        <time>2020-05-12T12:23:25Z</time>
      </trkpt>
      <trkpt lat="46.50468" lon="4.50774">
        <ele>350.58898925781</ele>
        <time>2020-05-12T12:23:30Z</time>
      </trkpt>
      <trkpt lat="46.50471" lon="4.50783">
        <ele>350.58898925781</ele>
        <time>2020-05-12T12:23:35Z</time>
      </trkpt>
      <trkpt lat="46.50476" lon="4.50793">
        <ele>349.58898925781</ele>
        <time>2020-05-12T12:23:40Z</time>
      </trkpt>
      <trkpt lat="46.5048" lon="4.50802">
        <ele>349.58898925781</ele>
        <time>2020-05-12T12:23:48Z</time>
      </trkpt>
      <trkpt lat="46.50482" lon="4.50814">
        <ele>349.58898925781</ele>
        <time>2020-05-12T12:23:54Z</time>
      </trkpt>
      <trkpt lat="46.50488" lon="4.50827">
        <ele>350.58898925781</ele>
        <time>2020-05-12T12:23:59Z</time>
      </trkpt>
      <trkpt lat="46.5049" lon="4.50836">
        <ele>355.58898925781</ele>
        <time>2020-05-12T12:24:04Z</time>
      </trkpt>
      <trkpt lat="46.50494" lon="4.50846">
        <ele>353.58898925781</ele>
        <time>2020-05-12T12:24:09Z</time>
      </trkpt>
      <trkpt lat="46.50498" lon="4.50857">
        <ele>352.58999633789</ele>
        <time>2020-05-12T12:24:14Z</time>
      </trkpt>
      <trkpt lat="46.50502" lon="4.50865">
        <ele>353.58999633789</ele>
        <time>2020-05-12T12:24:19Z</time>
      </trkpt>
      <trkpt lat="46.50505" lon="4.50876">
        <ele>353.58999633789</ele>
        <time>2020-05-12T12:24:24Z</time>
      </trkpt>
      <trkpt lat="46.5051" lon="4.50887">
        <ele>354.58999633789</ele>
        <time>2020-05-12T12:24:29Z</time>
      </trkpt>
      <trkpt lat="46.50516" lon="4.50898">
        <ele>352.58999633789</ele>
        <time>2020-05-12T12:24:34Z</time>
      </trkpt>
      <trkpt lat="46.50522" lon="4.50906">
        <ele>347.58999633789</ele>
        <time>2020-05-12T12:24:39Z</time>
      </trkpt>
      <trkpt lat="46.50527" lon="4.50912">
        <ele>347.58999633789</ele>
        <time>2020-05-12T12:24:45Z</time>
      </trkpt>
      <trkpt lat="46.50531" lon="4.50922">
        <ele>349.58999633789</ele>
        <time>2020-05-12T12:24:52Z</time>
      </trkpt>
      <trkpt lat="46.50538" lon="4.5093">
        <ele>349.58999633789</ele>
        <time>2020-05-12T12:24:57Z</time>
      </trkpt>
      <trkpt lat="46.50544" lon="4.50939">
        <ele>347.58999633789</ele>
        <time>2020-05-12T12:25:02Z</time>
      </trkpt>
      <trkpt lat="46.50549" lon="4.5095">
        <ele>345.58999633789</ele>
        <time>2020-05-12T12:25:07Z</time>
      </trkpt>
      <trkpt lat="46.50552" lon="4.50959">
        <ele>341.58999633789</ele>
        <time>2020-05-12T12:25:12Z</time>
      </trkpt>
      <trkpt lat="46.50555" lon="4.50969">
        <ele>342.58999633789</ele>
        <time>2020-05-12T12:25:18Z</time>
      </trkpt>
      <trkpt lat="46.50558" lon="4.50977">
        <ele>343.58999633789</ele>
        <time>2020-05-12T12:25:24Z</time>
      </trkpt>
      <trkpt lat="46.50562" lon="4.50986">
        <ele>341.58999633789</ele>
        <time>2020-05-12T12:25:29Z</time>
      </trkpt>
      <trkpt lat="46.50566" lon="4.50994">
        <ele>341.58999633789</ele>
        <time>2020-05-12T12:25:34Z</time>
      </trkpt>
      <trkpt lat="46.50571" lon="4.51002">
        <ele>340.58999633789</ele>
        <time>2020-05-12T12:25:41Z</time>
      </trkpt>
      <trkpt lat="46.50576" lon="4.51016">
        <ele>340.58999633789</ele>
        <time>2020-05-12T12:25:46Z</time>
      </trkpt>
      <trkpt lat="46.50579" lon="4.51027">
        <ele>341.58999633789</ele>
        <time>2020-05-12T12:25:51Z</time>
      </trkpt>
      <trkpt lat="46.50583" lon="4.51038">
        <ele>340.58999633789</ele>
        <time>2020-05-12T12:25:56Z</time>
      </trkpt>
      <trkpt lat="46.50586" lon="4.51048">
        <ele>339.58999633789</ele>
        <time>2020-05-12T12:26:01Z</time>
      </trkpt>
      <trkpt lat="46.50587" lon="4.51057">
        <ele>342.58999633789</ele>
        <time>2020-05-12T12:26:06Z</time>
      </trkpt>
      <trkpt lat="46.50592" lon="4.51066">
        <ele>342.58999633789</ele>
        <time>2020-05-12T12:26:11Z</time>
      </trkpt>
      <trkpt lat="46.50596" lon="4.51077">
        <ele>344.58999633789</ele>
        <time>2020-05-12T12:26:16Z</time>
      </trkpt>
      <trkpt lat="46.50599" lon="4.51088">
        <ele>345.58999633789</ele>
        <time>2020-05-12T12:26:22Z</time>
      </trkpt>
      <trkpt lat="46.506" lon="4.511">
        <ele>345.58999633789</ele>
        <time>2020-05-12T12:26:27Z</time>
      </trkpt>
      <trkpt lat="46.50603" lon="4.51111">
        <ele>345.58999633789</ele>
        <time>2020-05-12T12:26:32Z</time>
      </trkpt>
      <trkpt lat="46.50603" lon="4.51121">
        <ele>346.58999633789</ele>
        <time>2020-05-12T12:26:37Z</time>
      </trkpt>
      <trkpt lat="46.50607" lon="4.5113">
        <ele>344.58999633789</ele>
        <time>2020-05-12T12:26:42Z</time>
      </trkpt>
      <trkpt lat="46.5061" lon="4.51139">
        <ele>347.58999633789</ele>
        <time>2020-05-12T12:26:48Z</time>
      </trkpt>
      <trkpt lat="46.50606" lon="4.51147">
        <ele>345.58999633789</ele>
        <time>2020-05-12T12:26:55Z</time>
      </trkpt>
      <trkpt lat="46.50601" lon="4.51155">
        <ele>345.58999633789</ele>
        <time>2020-05-12T12:27:02Z</time>
      </trkpt>
      <trkpt lat="46.50598" lon="4.51169">
        <ele>348.58999633789</ele>
        <time>2020-05-12T12:27:07Z</time>
      </trkpt>
      <trkpt lat="46.50597" lon="4.51181">
        <ele>349.58999633789</ele>
        <time>2020-05-12T12:27:12Z</time>
      </trkpt>
      <trkpt lat="46.50596" lon="4.5119">
        <ele>354.58999633789</ele>
        <time>2020-05-12T12:27:17Z</time>
      </trkpt>
      <trkpt lat="46.50596" lon="4.512">
        <ele>350.58999633789</ele>
        <time>2020-05-12T12:27:23Z</time>
      </trkpt>
      <trkpt lat="46.50596" lon="4.51212">
        <ele>351.58999633789</ele>
        <time>2020-05-12T12:27:30Z</time>
      </trkpt>
      <trkpt lat="46.50596" lon="4.51222">
        <ele>352.58999633789</ele>
        <time>2020-05-12T12:27:35Z</time>
      </trkpt>
      <trkpt lat="46.50598" lon="4.51233">
        <ele>352.58999633789</ele>
        <time>2020-05-12T12:27:42Z</time>
      </trkpt>
      <trkpt lat="46.50598" lon="4.51244">
        <ele>349.58999633789</ele>
        <time>2020-05-12T12:27:48Z</time>
      </trkpt>
      <trkpt lat="46.50598" lon="4.51256">
        <ele>351.58999633789</ele>
        <time>2020-05-12T12:27:55Z</time>
      </trkpt>
      <trkpt lat="46.50601" lon="4.51266">
        <ele>352.58999633789</ele>
        <time>2020-05-12T12:28:00Z</time>
      </trkpt>
      <trkpt lat="46.50605" lon="4.51274">
        <ele>344.58999633789</ele>
        <time>2020-05-12T12:28:15Z</time>
      </trkpt>
      <trkpt lat="46.50605" lon="4.51284">
        <ele>343.58999633789</ele>
        <time>2020-05-12T12:28:21Z</time>
      </trkpt>
      <trkpt lat="46.50606" lon="4.51294">
        <ele>342.58999633789</ele>
        <time>2020-05-12T12:28:26Z</time>
      </trkpt>
      <trkpt lat="46.50607" lon="4.51306">
        <ele>339.58999633789</ele>
        <time>2020-05-12T12:28:32Z</time>
      </trkpt>
      <trkpt lat="46.50609" lon="4.51318">
        <ele>338.58999633789</ele>
        <time>2020-05-12T12:28:37Z</time>
      </trkpt>
      <trkpt lat="46.5061" lon="4.51328">
        <ele>341.58999633789</ele>
        <time>2020-05-12T12:28:43Z</time>
      </trkpt>
      <trkpt lat="46.50611" lon="4.51338">
        <ele>337.58999633789</ele>
        <time>2020-05-12T12:28:49Z</time>
      </trkpt>
      <trkpt lat="46.50612" lon="4.51351">
        <ele>339.58999633789</ele>
        <time>2020-05-12T12:28:54Z</time>
      </trkpt>
      <trkpt lat="46.50612" lon="4.51363">
        <ele>342.58999633789</ele>
        <time>2020-05-12T12:28:59Z</time>
      </trkpt>
      <trkpt lat="46.50614" lon="4.51374">
        <ele>347.58999633789</ele>
        <time>2020-05-12T12:29:05Z</time>
      </trkpt>
      <trkpt lat="46.50614" lon="4.51384">
        <ele>348.58999633789</ele>
        <time>2020-05-12T12:29:10Z</time>
      </trkpt>
      <trkpt lat="46.50616" lon="4.51393">
        <ele>340.58999633789</ele>
        <time>2020-05-12T12:29:18Z</time>
      </trkpt>
      <trkpt lat="46.5062" lon="4.51401">
        <ele>336.58999633789</ele>
        <time>2020-05-12T12:29:24Z</time>
      </trkpt>
      <trkpt lat="46.5062" lon="4.51412">
        <ele>332.58999633789</ele>
        <time>2020-05-12T12:29:30Z</time>
      </trkpt>
      <trkpt lat="46.50619" lon="4.51423">
        <ele>334.58999633789</ele>
        <time>2020-05-12T12:29:37Z</time>
      </trkpt>
      <trkpt lat="46.5062" lon="4.51435">
        <ele>336.58999633789</ele>
        <time>2020-05-12T12:29:42Z</time>
      </trkpt>
      <trkpt lat="46.50621" lon="4.51446">
        <ele>338.58999633789</ele>
        <time>2020-05-12T12:29:48Z</time>
      </trkpt>
      <trkpt lat="46.50621" lon="4.51457">
        <ele>340.58999633789</ele>
        <time>2020-05-12T12:29:54Z</time>
      </trkpt>
      <trkpt lat="46.50622" lon="4.51468">
        <ele>338.58999633789</ele>
        <time>2020-05-12T12:29:59Z</time>
      </trkpt>
      <trkpt lat="46.50624" lon="4.51478">
        <ele>335.58999633789</ele>
        <time>2020-05-12T12:30:06Z</time>
      </trkpt>
      <trkpt lat="46.50623" lon="4.51491">
        <ele>339.58999633789</ele>
        <time>2020-05-12T12:30:11Z</time>
      </trkpt>
      <trkpt lat="46.50624" lon="4.51502">
        <ele>344.58999633789</ele>
        <time>2020-05-12T12:30:17Z</time>
      </trkpt>
      <trkpt lat="46.50624" lon="4.51516">
        <ele>353.58999633789</ele>
        <time>2020-05-12T12:30:22Z</time>
      </trkpt>
      <trkpt lat="46.50625" lon="4.51526">
        <ele>353.58999633789</ele>
        <time>2020-05-12T12:30:28Z</time>
      </trkpt>
      <trkpt lat="46.50626" lon="4.51537">
        <ele>354.58999633789</ele>
        <time>2020-05-12T12:30:39Z</time>
      </trkpt>
      <trkpt lat="46.50625" lon="4.5155">
        <ele>353.58999633789</ele>
        <time>2020-05-12T12:30:44Z</time>
      </trkpt>
      <trkpt lat="46.50623" lon="4.5156">
        <ele>347.58999633789</ele>
        <time>2020-05-12T12:30:51Z</time>
      </trkpt>
      <trkpt lat="46.50623" lon="4.5157">
        <ele>346.58999633789</ele>
        <time>2020-05-12T12:30:56Z</time>
      </trkpt>
      <trkpt lat="46.50623" lon="4.51581">
        <ele>344.58999633789</ele>
        <time>2020-05-12T12:31:01Z</time>
      </trkpt>
      <trkpt lat="46.50622" lon="4.51593">
        <ele>342.58999633789</ele>
        <time>2020-05-12T12:31:07Z</time>
      </trkpt>
      <trkpt lat="46.50621" lon="4.51608">
        <ele>346.58999633789</ele>
        <time>2020-05-12T12:31:12Z</time>
      </trkpt>
      <trkpt lat="46.50621" lon="4.51619">
        <ele>347.58999633789</ele>
        <time>2020-05-12T12:31:17Z</time>
      </trkpt>
      <trkpt lat="46.5062" lon="4.51629">
        <ele>349.58999633789</ele>
        <time>2020-05-12T12:31:26Z</time>
      </trkpt>
      <trkpt lat="46.50621" lon="4.51639">
        <ele>348.58999633789</ele>
        <time>2020-05-12T12:31:34Z</time>
      </trkpt>
      <trkpt lat="46.50619" lon="4.5165">
        <ele>349.58999633789</ele>
        <time>2020-05-12T12:31:40Z</time>
      </trkpt>
      <trkpt lat="46.50619" lon="4.5166">
        <ele>350.58999633789</ele>
        <time>2020-05-12T12:31:45Z</time>
      </trkpt>
      <trkpt lat="46.50616" lon="4.51671">
        <ele>348.58999633789</ele>
        <time>2020-05-12T12:31:50Z</time>
      </trkpt>
      <trkpt lat="46.50615" lon="4.51681">
        <ele>348.58999633789</ele>
        <time>2020-05-12T12:31:56Z</time>
      </trkpt>
      <trkpt lat="46.50614" lon="4.51692">
        <ele>347.58999633789</ele>
        <time>2020-05-12T12:32:06Z</time>
      </trkpt>
      <trkpt lat="46.5061" lon="4.51706">
        <ele>346.58999633789</ele>
        <time>2020-05-12T12:32:11Z</time>
      </trkpt>
      <trkpt lat="46.50609" lon="4.51719">
        <ele>343.58999633789</ele>
        <time>2020-05-12T12:32:16Z</time>
      </trkpt>
      <trkpt lat="46.50609" lon="4.51728">
        <ele>344.58999633789</ele>
        <time>2020-05-12T12:32:22Z</time>
      </trkpt>
      <trkpt lat="46.50607" lon="4.5174">
        <ele>345.58999633789</ele>
        <time>2020-05-12T12:32:27Z</time>
      </trkpt>
      <trkpt lat="46.50604" lon="4.5175">
        <ele>346.58999633789</ele>
        <time>2020-05-12T12:32:32Z</time>
      </trkpt>
      <trkpt lat="46.50603" lon="4.5176">
        <ele>343.58999633789</ele>
        <time>2020-05-12T12:32:41Z</time>
      </trkpt>
      <trkpt lat="46.50604" lon="4.51771">
        <ele>339.58999633789</ele>
        <time>2020-05-12T12:32:50Z</time>
      </trkpt>
      <trkpt lat="46.50606" lon="4.51782">
        <ele>339.58999633789</ele>
        <time>2020-05-12T12:32:59Z</time>
      </trkpt>
      <trkpt lat="46.50606" lon="4.51794">
        <ele>338.59100341797</ele>
        <time>2020-05-12T12:33:04Z</time>
      </trkpt>
      <trkpt lat="46.50606" lon="4.51804">
        <ele>334.59100341797</ele>
        <time>2020-05-12T12:33:10Z</time>
      </trkpt>
      <trkpt lat="46.50609" lon="4.51814">
        <ele>332.59100341797</ele>
        <time>2020-05-12T12:33:15Z</time>
      </trkpt>
      <trkpt lat="46.50609" lon="4.51827">
        <ele>331.59100341797</ele>
        <time>2020-05-12T12:33:20Z</time>
      </trkpt>
      <trkpt lat="46.50611" lon="4.51838">
        <ele>328.59100341797</ele>
        <time>2020-05-12T12:33:26Z</time>
      </trkpt>
      <trkpt lat="46.50611" lon="4.51848">
        <ele>328.59100341797</ele>
        <time>2020-05-12T12:33:31Z</time>
      </trkpt>
      <trkpt lat="46.50611" lon="4.51857">
        <ele>328.59100341797</ele>
        <time>2020-05-12T12:33:36Z</time>
      </trkpt>
      <trkpt lat="46.50613" lon="4.5187">
        <ele>332.59100341797</ele>
        <time>2020-05-12T12:33:41Z</time>
      </trkpt>
      <trkpt lat="46.50616" lon="4.51881">
        <ele>332.59100341797</ele>
        <time>2020-05-12T12:33:46Z</time>
      </trkpt>
      <trkpt lat="46.50619" lon="4.51893">
        <ele>331.59100341797</ele>
        <time>2020-05-12T12:33:51Z</time>
      </trkpt>
      <trkpt lat="46.5062" lon="4.51907">
        <ele>332.59100341797</ele>
        <time>2020-05-12T12:33:56Z</time>
      </trkpt>
      <trkpt lat="46.50622" lon="4.51917">
        <ele>331.59100341797</ele>
        <time>2020-05-12T12:34:02Z</time>
      </trkpt>
      <trkpt lat="46.50625" lon="4.51929">
        <ele>327.59100341797</ele>
        <time>2020-05-12T12:34:07Z</time>
      </trkpt>
      <trkpt lat="46.50627" lon="4.51944">
        <ele>321.59100341797</ele>
        <time>2020-05-12T12:34:12Z</time>
      </trkpt>
      <trkpt lat="46.5063" lon="4.51957">
        <ele>320.59100341797</ele>
        <time>2020-05-12T12:34:17Z</time>
      </trkpt>
      <trkpt lat="46.50632" lon="4.51969">
        <ele>320.59100341797</ele>
        <time>2020-05-12T12:34:22Z</time>
      </trkpt>
      <trkpt lat="46.50635" lon="4.51979">
        <ele>320.59100341797</ele>
        <time>2020-05-12T12:34:27Z</time>
      </trkpt>
      <trkpt lat="46.50638" lon="4.5199">
        <ele>322.59100341797</ele>
        <time>2020-05-12T12:34:32Z</time>
      </trkpt>
      <trkpt lat="46.50641" lon="4.51998">
        <ele>324.59100341797</ele>
        <time>2020-05-12T12:34:38Z</time>
      </trkpt>
      <trkpt lat="46.50647" lon="4.52006">
        <ele>321.59100341797</ele>
        <time>2020-05-12T12:34:44Z</time>
      </trkpt>
      <trkpt lat="46.50652" lon="4.52018">
        <ele>322.59100341797</ele>
        <time>2020-05-12T12:34:49Z</time>
      </trkpt>
      <trkpt lat="46.50656" lon="4.52031">
        <ele>327.59100341797</ele>
        <time>2020-05-12T12:34:54Z</time>
      </trkpt>
      <trkpt lat="46.50662" lon="4.52041">
        <ele>330.59100341797</ele>
        <time>2020-05-12T12:34:59Z</time>
      </trkpt>
      <trkpt lat="46.50667" lon="4.52048">
        <ele>328.59100341797</ele>
        <time>2020-05-12T12:35:05Z</time>
      </trkpt>
      <trkpt lat="46.50669" lon="4.52057">
        <ele>325.59100341797</ele>
        <time>2020-05-12T12:35:11Z</time>
      </trkpt>
      <trkpt lat="46.5067" lon="4.52067">
        <ele>323.59100341797</ele>
        <time>2020-05-12T12:35:16Z</time>
      </trkpt>
      <trkpt lat="46.50672" lon="4.52078">
        <ele>323.59100341797</ele>
        <time>2020-05-12T12:35:21Z</time>
      </trkpt>
      <trkpt lat="46.50673" lon="4.5209">
        <ele>321.59100341797</ele>
        <time>2020-05-12T12:35:29Z</time>
      </trkpt>
      <trkpt lat="46.50673" lon="4.521">
        <ele>322.59100341797</ele>
        <time>2020-05-12T12:35:34Z</time>
      </trkpt>
      <trkpt lat="46.50675" lon="4.5211">
        <ele>323.59100341797</ele>
        <time>2020-05-12T12:35:39Z</time>
      </trkpt>
      <trkpt lat="46.50674" lon="4.52119">
        <ele>327.59100341797</ele>
        <time>2020-05-12T12:35:50Z</time>
      </trkpt>
      <trkpt lat="46.50677" lon="4.5213">
        <ele>327.59100341797</ele>
        <time>2020-05-12T12:35:56Z</time>
      </trkpt>
      <trkpt lat="46.50675" lon="4.52142">
        <ele>323.59100341797</ele>
        <time>2020-05-12T12:36:03Z</time>
      </trkpt>
      <trkpt lat="46.50673" lon="4.52152">
        <ele>323.59100341797</ele>
        <time>2020-05-12T12:36:17Z</time>
      </trkpt>
      <trkpt lat="46.50667" lon="4.52158">
        <ele>324.59100341797</ele>
        <time>2020-05-12T12:36:22Z</time>
      </trkpt>
      <trkpt lat="46.50659" lon="4.52162">
        <ele>324.59100341797</ele>
        <time>2020-05-12T12:36:27Z</time>
      </trkpt>
      <trkpt lat="46.50652" lon="4.52161">
        <ele>323.59100341797</ele>
        <time>2020-05-12T12:36:32Z</time>
      </trkpt>
      <trkpt lat="46.50646" lon="4.52162">
        <ele>323.59100341797</ele>
        <time>2020-05-12T12:36:39Z</time>
      </trkpt>
      <trkpt lat="46.50637" lon="4.52164">
        <ele>323.59100341797</ele>
        <time>2020-05-12T12:36:50Z</time>
      </trkpt>
      <trkpt lat="46.50631" lon="4.52164">
        <ele>323.59100341797</ele>
        <time>2020-05-12T12:36:55Z</time>
      </trkpt>
      <trkpt lat="46.50624" lon="4.52164">
        <ele>325.59100341797</ele>
        <time>2020-05-12T12:37:02Z</time>
      </trkpt>
      <trkpt lat="46.50617" lon="4.52165">
        <ele>325.59100341797</ele>
        <time>2020-05-12T12:37:08Z</time>
      </trkpt>
      <trkpt lat="46.50607" lon="4.52169">
        <ele>322.59100341797</ele>
        <time>2020-05-12T12:37:13Z</time>
      </trkpt>
      <trkpt lat="46.506" lon="4.52168">
        <ele>321.59100341797</ele>
        <time>2020-05-12T12:37:19Z</time>
      </trkpt>
      <trkpt lat="46.50593" lon="4.52172">
        <ele>320.59100341797</ele>
        <time>2020-05-12T12:37:27Z</time>
      </trkpt>
      <trkpt lat="46.50586" lon="4.52173">
        <ele>320.59100341797</ele>
        <time>2020-05-12T12:37:38Z</time>
      </trkpt>
      <trkpt lat="46.50578" lon="4.52177">
        <ele>321.59100341797</ele>
        <time>2020-05-12T12:37:43Z</time>
      </trkpt>
      <trkpt lat="46.5057" lon="4.52181">
        <ele>323.59100341797</ele>
        <time>2020-05-12T12:37:48Z</time>
      </trkpt>
      <trkpt lat="46.50562" lon="4.5218">
        <ele>318.59100341797</ele>
        <time>2020-05-12T12:37:53Z</time>
      </trkpt>
      <trkpt lat="46.50554" lon="4.52183">
        <ele>317.59100341797</ele>
        <time>2020-05-12T12:37:58Z</time>
      </trkpt>
      <trkpt lat="46.50546" lon="4.52185">
        <ele>317.59100341797</ele>
        <time>2020-05-12T12:38:08Z</time>
      </trkpt>
      <trkpt lat="46.50529" lon="4.5219">
        <ele>314.59100341797</ele>
        <time>2020-05-12T12:38:13Z</time>
      </trkpt>
      <trkpt lat="46.50524" lon="4.52198">
        <ele>311.59100341797</ele>
        <time>2020-05-12T12:38:19Z</time>
      </trkpt>
      <trkpt lat="46.50524" lon="4.52207">
        <ele>311.59100341797</ele>
        <time>2020-05-12T12:38:25Z</time>
      </trkpt>
      <trkpt lat="46.50526" lon="4.52219">
        <ele>313.59100341797</ele>
        <time>2020-05-12T12:38:32Z</time>
      </trkpt>
      <trkpt lat="46.50526" lon="4.5223">
        <ele>315.59100341797</ele>
        <time>2020-05-12T12:38:39Z</time>
      </trkpt>
      <trkpt lat="46.50527" lon="4.5224">
        <ele>314.59100341797</ele>
        <time>2020-05-12T12:38:49Z</time>
      </trkpt>
      <trkpt lat="46.50529" lon="4.5225">
        <ele>311.59100341797</ele>
        <time>2020-05-12T12:38:56Z</time>
      </trkpt>
      <trkpt lat="46.50533" lon="4.52261">
        <ele>307.59100341797</ele>
        <time>2020-05-12T12:39:01Z</time>
      </trkpt>
      <trkpt lat="46.50534" lon="4.52274">
        <ele>308.59100341797</ele>
        <time>2020-05-12T12:39:06Z</time>
      </trkpt>
      <trkpt lat="46.50538" lon="4.52282">
        <ele>306.59100341797</ele>
        <time>2020-05-12T12:39:13Z</time>
      </trkpt>
      <trkpt lat="46.5054" lon="4.52291">
        <ele>304.59100341797</ele>
        <time>2020-05-12T12:39:19Z</time>
      </trkpt>
      <trkpt lat="46.5054" lon="4.52301">
        <ele>304.59100341797</ele>
        <time>2020-05-12T12:39:24Z</time>
      </trkpt>
      <trkpt lat="46.50544" lon="4.5231">
        <ele>301.59100341797</ele>
        <time>2020-05-12T12:39:29Z</time>
      </trkpt>
      <trkpt lat="46.50544" lon="4.5232">
        <ele>300.59100341797</ele>
        <time>2020-05-12T12:39:35Z</time>
      </trkpt>
      <trkpt lat="46.50544" lon="4.5234">
        <ele>301.59100341797</ele>
        <time>2020-05-12T12:39:40Z</time>
      </trkpt>
      <trkpt lat="46.50546" lon="4.52362">
        <ele>308.59100341797</ele>
        <time>2020-05-12T12:39:45Z</time>
      </trkpt>
      <trkpt lat="46.50546" lon="4.52377">
        <ele>312.59100341797</ele>
        <time>2020-05-12T12:39:50Z</time>
      </trkpt>
      <trkpt lat="46.50549" lon="4.52386">
        <ele>312.59100341797</ele>
        <time>2020-05-12T12:39:55Z</time>
      </trkpt>
      <trkpt lat="46.50553" lon="4.52393">
        <ele>313.59100341797</ele>
        <time>2020-05-12T12:40:02Z</time>
      </trkpt>
      <trkpt lat="46.50557" lon="4.52402">
        <ele>309.59100341797</ele>
        <time>2020-05-12T12:40:10Z</time>
      </trkpt>
      <trkpt lat="46.50559" lon="4.52412">
        <ele>309.59100341797</ele>
        <time>2020-05-12T12:40:17Z</time>
      </trkpt>
      <trkpt lat="46.50559" lon="4.52424">
        <ele>306.59100341797</ele>
        <time>2020-05-12T12:40:24Z</time>
      </trkpt>
      <trkpt lat="46.5056" lon="4.52434">
        <ele>308.59100341797</ele>
        <time>2020-05-12T12:40:30Z</time>
      </trkpt>
      <trkpt lat="46.50559" lon="4.52446">
        <ele>307.59100341797</ele>
        <time>2020-05-12T12:40:35Z</time>
      </trkpt>
      <trkpt lat="46.50558" lon="4.52457">
        <ele>308.59100341797</ele>
        <time>2020-05-12T12:40:41Z</time>
      </trkpt>
      <trkpt lat="46.50557" lon="4.52467">
        <ele>309.59100341797</ele>
        <time>2020-05-12T12:40:48Z</time>
      </trkpt>
      <trkpt lat="46.50556" lon="4.5248">
        <ele>312.59100341797</ele>
        <time>2020-05-12T12:40:57Z</time>
      </trkpt>
      <trkpt lat="46.50558" lon="4.52491">
        <ele>313.59100341797</ele>
        <time>2020-05-12T12:41:02Z</time>
      </trkpt>
      <trkpt lat="46.50559" lon="4.52503">
        <ele>313.59100341797</ele>
        <time>2020-05-12T12:41:09Z</time>
      </trkpt>
      <trkpt lat="46.5056" lon="4.52516">
        <ele>315.59100341797</ele>
        <time>2020-05-12T12:41:14Z</time>
      </trkpt>
      <trkpt lat="46.50564" lon="4.52524">
        <ele>316.59100341797</ele>
        <time>2020-05-12T12:41:19Z</time>
      </trkpt>
      <trkpt lat="46.50566" lon="4.52534">
        <ele>316.59100341797</ele>
        <time>2020-05-12T12:41:26Z</time>
      </trkpt>
      <trkpt lat="46.50569" lon="4.52544">
        <ele>314.59100341797</ele>
        <time>2020-05-12T12:41:35Z</time>
      </trkpt>
      <trkpt lat="46.50572" lon="4.52559">
        <ele>310.59100341797</ele>
        <time>2020-05-12T12:41:40Z</time>
      </trkpt>
      <trkpt lat="46.50575" lon="4.52568">
        <ele>309.59100341797</ele>
        <time>2020-05-12T12:41:45Z</time>
      </trkpt>
      <trkpt lat="46.50577" lon="4.52581">
        <ele>309.59100341797</ele>
        <time>2020-05-12T12:41:50Z</time>
      </trkpt>
      <trkpt lat="46.50581" lon="4.52596">
        <ele>309.59100341797</ele>
        <time>2020-05-12T12:41:55Z</time>
      </trkpt>
      <trkpt lat="46.50584" lon="4.52605">
        <ele>306.59100341797</ele>
        <time>2020-05-12T12:42:01Z</time>
      </trkpt>
      <trkpt lat="46.50588" lon="4.52613">
        <ele>305.59100341797</ele>
        <time>2020-05-12T12:42:07Z</time>
      </trkpt>
      <trkpt lat="46.50592" lon="4.52622">
        <ele>306.59100341797</ele>
        <time>2020-05-12T12:42:12Z</time>
      </trkpt>
      <trkpt lat="46.50597" lon="4.52631">
        <ele>307.59100341797</ele>
        <time>2020-05-12T12:42:17Z</time>
      </trkpt>
      <trkpt lat="46.50603" lon="4.52638">
        <ele>309.59100341797</ele>
        <time>2020-05-12T12:42:22Z</time>
      </trkpt>
      <trkpt lat="46.50608" lon="4.52645">
        <ele>312.59100341797</ele>
        <time>2020-05-12T12:42:27Z</time>
      </trkpt>
      <trkpt lat="46.50615" lon="4.52652">
        <ele>311.59100341797</ele>
        <time>2020-05-12T12:42:32Z</time>
      </trkpt>
      <trkpt lat="46.50619" lon="4.52661">
        <ele>310.59100341797</ele>
        <time>2020-05-12T12:42:38Z</time>
      </trkpt>
      <trkpt lat="46.50623" lon="4.52669">
        <ele>308.59100341797</ele>
        <time>2020-05-12T12:42:43Z</time>
      </trkpt>
      <trkpt lat="46.50627" lon="4.52679">
        <ele>307.59100341797</ele>
        <time>2020-05-12T12:42:48Z</time>
      </trkpt>
      <trkpt lat="46.5063" lon="4.52689">
        <ele>306.59100341797</ele>
        <time>2020-05-12T12:42:55Z</time>
      </trkpt>
      <trkpt lat="46.50633" lon="4.52698">
        <ele>307.59100341797</ele>
        <time>2020-05-12T12:43:01Z</time>
      </trkpt>
      <trkpt lat="46.50638" lon="4.52706">
        <ele>308.59100341797</ele>
        <time>2020-05-12T12:43:06Z</time>
      </trkpt>
      <trkpt lat="46.50647" lon="4.52713">
        <ele>312.59100341797</ele>
        <time>2020-05-12T12:43:11Z</time>
      </trkpt>
      <trkpt lat="46.50652" lon="4.5272">
        <ele>311.59100341797</ele>
        <time>2020-05-12T12:43:17Z</time>
      </trkpt>
      <trkpt lat="46.50659" lon="4.52726">
        <ele>312.59100341797</ele>
        <time>2020-05-12T12:43:23Z</time>
      </trkpt>
      <trkpt lat="46.50662" lon="4.52735">
        <ele>313.59100341797</ele>
        <time>2020-05-12T12:43:37Z</time>
      </trkpt>
      <trkpt lat="46.50665" lon="4.52744">
        <ele>314.59100341797</ele>
        <time>2020-05-12T12:43:47Z</time>
      </trkpt>
      <trkpt lat="46.50662" lon="4.52754">
        <ele>313.59100341797</ele>
        <time>2020-05-12T12:44:32Z</time>
      </trkpt>
      <trkpt lat="46.50662" lon="4.52764">
        <ele>316.59100341797</ele>
        <time>2020-05-12T12:44:42Z</time>
      </trkpt>
      <trkpt lat="46.50661" lon="4.52775">
        <ele>312.59100341797</ele>
        <time>2020-05-12T12:44:51Z</time>
      </trkpt>
      <trkpt lat="46.50662" lon="4.52784">
        <ele>317.59100341797</ele>
        <time>2020-05-12T12:45:11Z</time>
      </trkpt>
      <trkpt lat="46.50665" lon="4.52794">
        <ele>314.59100341797</ele>
        <time>2020-05-12T12:45:17Z</time>
      </trkpt>
      <trkpt lat="46.50666" lon="4.52803">
        <ele>311.59100341797</ele>
        <time>2020-05-12T12:45:26Z</time>
      </trkpt>
      <trkpt lat="46.50668" lon="4.52815">
        <ele>308.59100341797</ele>
        <time>2020-05-12T12:45:31Z</time>
      </trkpt>
      <trkpt lat="46.50667" lon="4.52824">
        <ele>308.59100341797</ele>
        <time>2020-05-12T12:45:37Z</time>
      </trkpt>
      <trkpt lat="46.50672" lon="4.52831">
        <ele>307.59100341797</ele>
        <time>2020-05-12T12:45:44Z</time>
      </trkpt>
      <trkpt lat="46.50678" lon="4.52837">
        <ele>307.59100341797</ele>
        <time>2020-05-12T12:45:51Z</time>
      </trkpt>
      <trkpt lat="46.5068" lon="4.52846">
        <ele>308.59100341797</ele>
        <time>2020-05-12T12:45:59Z</time>
      </trkpt>
      <trkpt lat="46.50683" lon="4.52856">
        <ele>303.59201049805</ele>
        <time>2020-05-12T12:46:10Z</time>
      </trkpt>
      <trkpt lat="46.50687" lon="4.52864">
        <ele>305.59201049805</ele>
        <time>2020-05-12T12:46:23Z</time>
      </trkpt>
      <trkpt lat="46.50688" lon="4.52874">
        <ele>307.59201049805</ele>
        <time>2020-05-12T12:46:34Z</time>
      </trkpt>
      <trkpt lat="46.50688" lon="4.52884">
        <ele>310.59201049805</ele>
        <time>2020-05-12T12:46:42Z</time>
      </trkpt>
      <trkpt lat="46.5069" lon="4.52896">
        <ele>312.59201049805</ele>
        <time>2020-05-12T12:46:48Z</time>
      </trkpt>
      <trkpt lat="46.50692" lon="4.52906">
        <ele>317.59201049805</ele>
        <time>2020-05-12T12:46:56Z</time>
      </trkpt>
      <trkpt lat="46.50691" lon="4.52916">
        <ele>315.59201049805</ele>
        <time>2020-05-12T12:47:01Z</time>
      </trkpt>
      <trkpt lat="46.50692" lon="4.52926">
        <ele>316.59201049805</ele>
        <time>2020-05-12T12:47:06Z</time>
      </trkpt>
      <trkpt lat="46.50692" lon="4.52937">
        <ele>319.59201049805</ele>
        <time>2020-05-12T12:47:12Z</time>
      </trkpt>
      <trkpt lat="46.50693" lon="4.52948">
        <ele>321.59201049805</ele>
        <time>2020-05-12T12:47:18Z</time>
      </trkpt>
      <trkpt lat="46.50697" lon="4.52958">
        <ele>316.59201049805</ele>
        <time>2020-05-12T12:47:25Z</time>
      </trkpt>
      <trkpt lat="46.50701" lon="4.52967">
        <ele>318.59201049805</ele>
        <time>2020-05-12T12:47:33Z</time>
      </trkpt>
      <trkpt lat="46.50702" lon="4.52976">
        <ele>319.59201049805</ele>
        <time>2020-05-12T12:47:41Z</time>
      </trkpt>
      <trkpt lat="46.50703" lon="4.52986">
        <ele>315.59201049805</ele>
        <time>2020-05-12T12:47:49Z</time>
      </trkpt>
      <trkpt lat="46.50701" lon="4.52996">
        <ele>308.59201049805</ele>
        <time>2020-05-12T12:47:57Z</time>
      </trkpt>
      <trkpt lat="46.507" lon="4.53014">
        <ele>307.59201049805</ele>
        <time>2020-05-12T12:48:02Z</time>
      </trkpt>
      <trkpt lat="46.507" lon="4.53036">
        <ele>309.59201049805</ele>
        <time>2020-05-12T12:48:07Z</time>
      </trkpt>
      <trkpt lat="46.50697" lon="4.53055">
        <ele>309.59201049805</ele>
        <time>2020-05-12T12:48:12Z</time>
      </trkpt>
      <trkpt lat="46.50696" lon="4.53069">
        <ele>310.59201049805</ele>
        <time>2020-05-12T12:48:17Z</time>
      </trkpt>
      <trkpt lat="46.50697" lon="4.53082">
        <ele>312.59201049805</ele>
        <time>2020-05-12T12:48:22Z</time>
      </trkpt>
      <trkpt lat="46.50698" lon="4.53094">
        <ele>309.59201049805</ele>
        <time>2020-05-12T12:48:27Z</time>
      </trkpt>
      <trkpt lat="46.50699" lon="4.53106">
        <ele>309.59201049805</ele>
        <time>2020-05-12T12:48:36Z</time>
      </trkpt>
      <trkpt lat="46.507" lon="4.53116">
        <ele>311.59201049805</ele>
        <time>2020-05-12T12:48:43Z</time>
      </trkpt>
      <trkpt lat="46.50701" lon="4.53129">
        <ele>315.59201049805</ele>
        <time>2020-05-12T12:48:51Z</time>
      </trkpt>
      <trkpt lat="46.50701" lon="4.5314">
        <ele>315.59201049805</ele>
        <time>2020-05-12T12:49:03Z</time>
      </trkpt>
      <trkpt lat="46.50705" lon="4.53149">
        <ele>317.59201049805</ele>
        <time>2020-05-12T12:49:10Z</time>
      </trkpt>
      <trkpt lat="46.50709" lon="4.5316">
        <ele>321.59201049805</ele>
        <time>2020-05-12T12:49:15Z</time>
      </trkpt>
      <trkpt lat="46.50714" lon="4.53169">
        <ele>321.59201049805</ele>
        <time>2020-05-12T12:49:24Z</time>
      </trkpt>
      <trkpt lat="46.50716" lon="4.53178">
        <ele>320.59201049805</ele>
        <time>2020-05-12T12:49:34Z</time>
      </trkpt>
      <trkpt lat="46.50717" lon="4.5319">
        <ele>318.59201049805</ele>
        <time>2020-05-12T12:49:39Z</time>
      </trkpt>
      <trkpt lat="46.50722" lon="4.53201">
        <ele>321.59201049805</ele>
        <time>2020-05-12T12:49:50Z</time>
      </trkpt>
      <trkpt lat="46.50723" lon="4.53212">
        <ele>320.59201049805</ele>
        <time>2020-05-12T12:49:55Z</time>
      </trkpt>
      <trkpt lat="46.50724" lon="4.53222">
        <ele>318.59201049805</ele>
        <time>2020-05-12T12:50:02Z</time>
      </trkpt>
      <trkpt lat="46.50729" lon="4.5323">
        <ele>317.59201049805</ele>
        <time>2020-05-12T12:50:08Z</time>
      </trkpt>
      <trkpt lat="46.50735" lon="4.53235">
        <ele>319.59201049805</ele>
        <time>2020-05-12T12:50:16Z</time>
      </trkpt>
      <trkpt lat="46.50738" lon="4.53243">
        <ele>319.59201049805</ele>
        <time>2020-05-12T12:50:22Z</time>
      </trkpt>
      <trkpt lat="46.50744" lon="4.53249">
        <ele>319.59201049805</ele>
        <time>2020-05-12T12:50:30Z</time>
      </trkpt>
      <trkpt lat="46.50749" lon="4.53256">
        <ele>320.59201049805</ele>
        <time>2020-05-12T12:50:38Z</time>
      </trkpt>
      <trkpt lat="46.50756" lon="4.53262">
        <ele>317.59201049805</ele>
        <time>2020-05-12T12:50:43Z</time>
      </trkpt>
      <trkpt lat="46.50759" lon="4.53271">
        <ele>316.59201049805</ele>
        <time>2020-05-12T12:50:50Z</time>
      </trkpt>
      <trkpt lat="46.50762" lon="4.53281">
        <ele>314.59201049805</ele>
        <time>2020-05-12T12:50:55Z</time>
      </trkpt>
      <trkpt lat="46.5077" lon="4.53291">
        <ele>314.59201049805</ele>
        <time>2020-05-12T12:51:00Z</time>
      </trkpt>
      <trkpt lat="46.50772" lon="4.53301">
        <ele>313.59201049805</ele>
        <time>2020-05-12T12:51:05Z</time>
      </trkpt>
      <trkpt lat="46.50775" lon="4.5331">
        <ele>313.59201049805</ele>
        <time>2020-05-12T12:51:13Z</time>
      </trkpt>
      <trkpt lat="46.5078" lon="4.53317">
        <ele>316.59201049805</ele>
        <time>2020-05-12T12:51:18Z</time>
      </trkpt>
      <trkpt lat="46.50784" lon="4.53325">
        <ele>319.59201049805</ele>
        <time>2020-05-12T12:51:26Z</time>
      </trkpt>
      <trkpt lat="46.50787" lon="4.53334">
        <ele>316.59201049805</ele>
        <time>2020-05-12T12:51:33Z</time>
      </trkpt>
      <trkpt lat="46.50789" lon="4.53343">
        <ele>317.59201049805</ele>
        <time>2020-05-12T12:51:38Z</time>
      </trkpt>
      <trkpt lat="46.50793" lon="4.53351">
        <ele>314.59201049805</ele>
        <time>2020-05-12T12:51:43Z</time>
      </trkpt>
      <trkpt lat="46.50796" lon="4.5336">
        <ele>311.59201049805</ele>
        <time>2020-05-12T12:51:49Z</time>
      </trkpt>
      <trkpt lat="46.508" lon="4.53369">
        <ele>313.59201049805</ele>
        <time>2020-05-12T12:51:56Z</time>
      </trkpt>
      <trkpt lat="46.50805" lon="4.53376">
        <ele>309.59201049805</ele>
        <time>2020-05-12T12:52:07Z</time>
      </trkpt>
      <trkpt lat="46.50807" lon="4.53386">
        <ele>309.59201049805</ele>
        <time>2020-05-12T12:52:20Z</time>
      </trkpt>
      <trkpt lat="46.50808" lon="4.53396">
        <ele>309.59201049805</ele>
        <time>2020-05-12T12:52:28Z</time>
      </trkpt>
      <trkpt lat="46.50808" lon="4.53406">
        <ele>306.59201049805</ele>
        <time>2020-05-12T12:52:34Z</time>
      </trkpt>
      <trkpt lat="46.50808" lon="4.53416">
        <ele>306.59201049805</ele>
        <time>2020-05-12T12:52:44Z</time>
      </trkpt>
      <trkpt lat="46.50809" lon="4.53425">
        <ele>309.59201049805</ele>
        <time>2020-05-12T12:52:51Z</time>
      </trkpt>
      <trkpt lat="46.50813" lon="4.53436">
        <ele>310.59201049805</ele>
        <time>2020-05-12T12:52:59Z</time>
      </trkpt>
      <trkpt lat="46.50816" lon="4.53446">
        <ele>313.59201049805</ele>
        <time>2020-05-12T12:53:04Z</time>
      </trkpt>
      <trkpt lat="46.5082" lon="4.53455">
        <ele>312.59201049805</ele>
        <time>2020-05-12T12:53:13Z</time>
      </trkpt>
      <trkpt lat="46.50824" lon="4.53466">
        <ele>313.59201049805</ele>
        <time>2020-05-12T12:53:24Z</time>
      </trkpt>
      <trkpt lat="46.50826" lon="4.53476">
        <ele>311.59201049805</ele>
        <time>2020-05-12T12:53:32Z</time>
      </trkpt>
      <trkpt lat="46.50828" lon="4.53486">
        <ele>313.59201049805</ele>
        <time>2020-05-12T12:53:44Z</time>
      </trkpt>
      <trkpt lat="46.50829" lon="4.53496">
        <ele>316.59201049805</ele>
        <time>2020-05-12T12:53:51Z</time>
      </trkpt>
      <trkpt lat="46.50825" lon="4.53505">
        <ele>315.59201049805</ele>
        <time>2020-05-12T12:53:56Z</time>
      </trkpt>
      <trkpt lat="46.50826" lon="4.53517">
        <ele>314.59201049805</ele>
        <time>2020-05-12T12:54:04Z</time>
      </trkpt>
      <trkpt lat="46.50829" lon="4.53527">
        <ele>314.59201049805</ele>
        <time>2020-05-12T12:54:10Z</time>
      </trkpt>
      <trkpt lat="46.50832" lon="4.53538">
        <ele>316.59201049805</ele>
        <time>2020-05-12T12:54:19Z</time>
      </trkpt>
      <trkpt lat="46.50833" lon="4.53549">
        <ele>318.59201049805</ele>
        <time>2020-05-12T12:54:24Z</time>
      </trkpt>
      <trkpt lat="46.50838" lon="4.53556">
        <ele>318.59201049805</ele>
        <time>2020-05-12T12:54:33Z</time>
      </trkpt>
      <trkpt lat="46.50845" lon="4.53565">
        <ele>321.59201049805</ele>
        <time>2020-05-12T12:54:40Z</time>
      </trkpt>
      <trkpt lat="46.50852" lon="4.5357">
        <ele>325.59298706055</ele>
        <time>2020-05-12T12:54:44Z</time>
      </trkpt>
      <trkpt lat="46.50856" lon="4.5358">
        <ele>325.59298706055</ele>
        <time>2020-05-12T12:54:51Z</time>
      </trkpt>
      <trkpt lat="46.5086" lon="4.53589">
        <ele>327.59298706055</ele>
        <time>2020-05-12T12:54:56Z</time>
      </trkpt>
      <trkpt lat="46.50863" lon="4.53599">
        <ele>330.59298706055</ele>
        <time>2020-05-12T12:55:01Z</time>
      </trkpt>
      <trkpt lat="46.50866" lon="4.53609">
        <ele>335.59298706055</ele>
        <time>2020-05-12T12:55:06Z</time>
      </trkpt>
      <trkpt lat="46.50869" lon="4.53618">
        <ele>333.59298706055</ele>
        <time>2020-05-12T12:55:13Z</time>
      </trkpt>
      <trkpt lat="46.50869" lon="4.5363">
        <ele>328.59298706055</ele>
        <time>2020-05-12T12:55:18Z</time>
      </trkpt>
      <trkpt lat="46.50873" lon="4.5364">
        <ele>329.59298706055</ele>
        <time>2020-05-12T12:55:25Z</time>
      </trkpt>
      <trkpt lat="46.50876" lon="4.5365">
        <ele>332.59298706055</ele>
        <time>2020-05-12T12:55:33Z</time>
      </trkpt>
      <trkpt lat="46.5088" lon="4.53661">
        <ele>328.59298706055</ele>
        <time>2020-05-12T12:55:39Z</time>
      </trkpt>
      <trkpt lat="46.50879" lon="4.53671">
        <ele>326.59298706055</ele>
        <time>2020-05-12T12:55:44Z</time>
      </trkpt>
      <trkpt lat="46.50886" lon="4.53668">
        <ele>327.59298706055</ele>
        <time>2020-05-12T12:55:49Z</time>
      </trkpt>
      <trkpt lat="46.50893" lon="4.53667">
        <ele>325.59298706055</ele>
        <time>2020-05-12T12:56:02Z</time>
      </trkpt>
      <trkpt lat="46.50901" lon="4.53663">
        <ele>327.59298706055</ele>
        <time>2020-05-12T12:56:07Z</time>
      </trkpt>
      <trkpt lat="46.50906" lon="4.53657">
        <ele>332.59298706055</ele>
        <time>2020-05-12T12:56:12Z</time>
      </trkpt>
      <trkpt lat="46.50913" lon="4.53652">
        <ele>331.59298706055</ele>
        <time>2020-05-12T12:56:18Z</time>
      </trkpt>
      <trkpt lat="46.50919" lon="4.53648">
        <ele>332.59298706055</ele>
        <time>2020-05-12T12:56:23Z</time>
      </trkpt>
      <trkpt lat="46.50927" lon="4.53643">
        <ele>333.59298706055</ele>
        <time>2020-05-12T12:56:28Z</time>
      </trkpt>
      <trkpt lat="46.50933" lon="4.53638">
        <ele>333.59298706055</ele>
        <time>2020-05-12T12:56:33Z</time>
      </trkpt>
      <trkpt lat="46.50939" lon="4.53635">
        <ele>333.59298706055</ele>
        <time>2020-05-12T12:56:39Z</time>
      </trkpt>
      <trkpt lat="46.50946" lon="4.53638">
        <ele>326.59298706055</ele>
        <time>2020-05-12T12:56:50Z</time>
      </trkpt>
      <trkpt lat="46.50953" lon="4.5364">
        <ele>322.59298706055</ele>
        <time>2020-05-12T12:56:55Z</time>
      </trkpt>
      <trkpt lat="46.50962" lon="4.53645">
        <ele>320.59298706055</ele>
        <time>2020-05-12T12:57:00Z</time>
      </trkpt>
      <trkpt lat="46.5097" lon="4.53649">
        <ele>322.59298706055</ele>
        <time>2020-05-12T12:57:05Z</time>
      </trkpt>
      <trkpt lat="46.50979" lon="4.53653">
        <ele>324.59298706055</ele>
        <time>2020-05-12T12:57:10Z</time>
      </trkpt>
      <trkpt lat="46.50985" lon="4.53652">
        <ele>323.59298706055</ele>
        <time>2020-05-12T12:57:18Z</time>
      </trkpt>
      <trkpt lat="46.50994" lon="4.53647">
        <ele>328.59298706055</ele>
        <time>2020-05-12T12:57:23Z</time>
      </trkpt>
      <trkpt lat="46.51001" lon="4.53645">
        <ele>331.59298706055</ele>
        <time>2020-05-12T12:57:31Z</time>
      </trkpt>
      <trkpt lat="46.51008" lon="4.53641">
        <ele>327.59298706055</ele>
        <time>2020-05-12T12:57:38Z</time>
      </trkpt>
      <trkpt lat="46.51014" lon="4.53648">
        <ele>323.59298706055</ele>
        <time>2020-05-12T12:57:45Z</time>
      </trkpt>
      <trkpt lat="46.5102" lon="4.53647">
        <ele>323.59298706055</ele>
        <time>2020-05-12T12:57:54Z</time>
      </trkpt>
      <trkpt lat="46.51027" lon="4.53645">
        <ele>324.59298706055</ele>
        <time>2020-05-12T12:58:01Z</time>
      </trkpt>
      <trkpt lat="46.51034" lon="4.53644">
        <ele>324.59298706055</ele>
        <time>2020-05-12T12:58:10Z</time>
      </trkpt>
      <trkpt lat="46.51041" lon="4.53644">
        <ele>325.59298706055</ele>
        <time>2020-05-12T12:58:20Z</time>
      </trkpt>
      <trkpt lat="46.51047" lon="4.53645">
        <ele>323.59298706055</ele>
        <time>2020-05-12T12:58:25Z</time>
      </trkpt>
      <trkpt lat="46.51055" lon="4.53646">
        <ele>325.59298706055</ele>
        <time>2020-05-12T12:58:30Z</time>
      </trkpt>
      <trkpt lat="46.51063" lon="4.53647">
        <ele>324.59298706055</ele>
        <time>2020-05-12T12:58:35Z</time>
      </trkpt>
      <trkpt lat="46.5107" lon="4.53645">
        <ele>324.59298706055</ele>
        <time>2020-05-12T12:58:41Z</time>
      </trkpt>
      <trkpt lat="46.51076" lon="4.53643">
        <ele>327.59298706055</ele>
        <time>2020-05-12T12:58:46Z</time>
      </trkpt>
      <trkpt lat="46.51083" lon="4.5364">
        <ele>328.59298706055</ele>
        <time>2020-05-12T12:58:51Z</time>
      </trkpt>
      <trkpt lat="46.51091" lon="4.53639">
        <ele>323.59298706055</ele>
        <time>2020-05-12T12:58:59Z</time>
      </trkpt>
      <trkpt lat="46.51098" lon="4.53637">
        <ele>322.59298706055</ele>
        <time>2020-05-12T12:59:04Z</time>
      </trkpt>
      <trkpt lat="46.51104" lon="4.53635">
        <ele>322.59298706055</ele>
        <time>2020-05-12T12:59:09Z</time>
      </trkpt>
      <trkpt lat="46.51111" lon="4.53634">
        <ele>322.59298706055</ele>
        <time>2020-05-12T12:59:17Z</time>
      </trkpt>
      <trkpt lat="46.51118" lon="4.53636">
        <ele>322.59298706055</ele>
        <time>2020-05-12T12:59:22Z</time>
      </trkpt>
      <trkpt lat="46.51123" lon="4.53642">
        <ele>321.59298706055</ele>
        <time>2020-05-12T12:59:29Z</time>
      </trkpt>
      <trkpt lat="46.51131" lon="4.53646">
        <ele>323.59298706055</ele>
        <time>2020-05-12T12:59:37Z</time>
      </trkpt>
      <trkpt lat="46.51141" lon="4.53642">
        <ele>328.59298706055</ele>
        <time>2020-05-12T12:59:42Z</time>
      </trkpt>
      <trkpt lat="46.51148" lon="4.53642">
        <ele>329.59298706055</ele>
        <time>2020-05-12T12:59:48Z</time>
      </trkpt>
      <trkpt lat="46.51155" lon="4.53648">
        <ele>328.59298706055</ele>
        <time>2020-05-12T13:00:03Z</time>
      </trkpt>
      <trkpt lat="46.51162" lon="4.53647">
        <ele>330.59298706055</ele>
        <time>2020-05-12T13:00:12Z</time>
      </trkpt>
      <trkpt lat="46.51169" lon="4.53645">
        <ele>334.59298706055</ele>
        <time>2020-05-12T13:00:17Z</time>
      </trkpt>
      <trkpt lat="46.51175" lon="4.53648">
        <ele>334.59298706055</ele>
        <time>2020-05-12T13:00:23Z</time>
      </trkpt>
      <trkpt lat="46.51182" lon="4.53648">
        <ele>331.59298706055</ele>
        <time>2020-05-12T13:00:30Z</time>
      </trkpt>
      <trkpt lat="46.5119" lon="4.53647">
        <ele>329.59298706055</ele>
        <time>2020-05-12T13:00:40Z</time>
      </trkpt>
      <trkpt lat="46.51197" lon="4.53643">
        <ele>324.59399414062</ele>
        <time>2020-05-12T13:00:46Z</time>
      </trkpt>
      <trkpt lat="46.51203" lon="4.5364">
        <ele>321.59399414062</ele>
        <time>2020-05-12T13:00:54Z</time>
      </trkpt>
      <trkpt lat="46.5121" lon="4.53641">
        <ele>319.59399414062</ele>
        <time>2020-05-12T13:01:01Z</time>
      </trkpt>
      <trkpt lat="46.51217" lon="4.53641">
        <ele>319.59399414062</ele>
        <time>2020-05-12T13:01:07Z</time>
      </trkpt>
      <trkpt lat="46.51224" lon="4.5364">
        <ele>316.59399414062</ele>
        <time>2020-05-12T13:01:16Z</time>
      </trkpt>
      <trkpt lat="46.51232" lon="4.53638">
        <ele>316.59399414062</ele>
        <time>2020-05-12T13:01:21Z</time>
      </trkpt>
      <trkpt lat="46.5124" lon="4.53638">
        <ele>320.59399414062</ele>
        <time>2020-05-12T13:01:27Z</time>
      </trkpt>
      <trkpt lat="46.51247" lon="4.53635">
        <ele>323.59399414062</ele>
        <time>2020-05-12T13:01:32Z</time>
      </trkpt>
      <trkpt lat="46.51255" lon="4.53639">
        <ele>323.59399414062</ele>
        <time>2020-05-12T13:01:38Z</time>
      </trkpt>
      <trkpt lat="46.51263" lon="4.53639">
        <ele>325.59399414062</ele>
        <time>2020-05-12T13:01:43Z</time>
      </trkpt>
      <trkpt lat="46.51272" lon="4.53641">
        <ele>324.59399414062</ele>
        <time>2020-05-12T13:01:48Z</time>
      </trkpt>
      <trkpt lat="46.51279" lon="4.5364">
        <ele>323.59399414062</ele>
        <time>2020-05-12T13:01:53Z</time>
      </trkpt>
      <trkpt lat="46.51287" lon="4.53642">
        <ele>322.59399414062</ele>
        <time>2020-05-12T13:01:59Z</time>
      </trkpt>
      <trkpt lat="46.51294" lon="4.53645">
        <ele>321.59399414062</ele>
        <time>2020-05-12T13:02:06Z</time>
      </trkpt>
      <trkpt lat="46.51303" lon="4.53647">
        <ele>325.59399414062</ele>
        <time>2020-05-12T13:02:11Z</time>
      </trkpt>
      <trkpt lat="46.5131" lon="4.53649">
        <ele>325.59399414062</ele>
        <time>2020-05-12T13:02:17Z</time>
      </trkpt>
      <trkpt lat="46.5132" lon="4.5365">
        <ele>325.59399414062</ele>
        <time>2020-05-12T13:02:22Z</time>
      </trkpt>
      <trkpt lat="46.51327" lon="4.53654">
        <ele>322.59399414062</ele>
        <time>2020-05-12T13:02:34Z</time>
      </trkpt>
      <trkpt lat="46.51333" lon="4.53653">
        <ele>321.59399414062</ele>
        <time>2020-05-12T13:02:39Z</time>
      </trkpt>
      <trkpt lat="46.51342" lon="4.53652">
        <ele>322.59399414062</ele>
        <time>2020-05-12T13:02:48Z</time>
      </trkpt>
      <trkpt lat="46.51351" lon="4.5365">
        <ele>325.59399414062</ele>
        <time>2020-05-12T13:02:53Z</time>
      </trkpt>
      <trkpt lat="46.51358" lon="4.53648">
        <ele>325.59399414062</ele>
        <time>2020-05-12T13:02:58Z</time>
      </trkpt>
      <trkpt lat="46.51365" lon="4.53648">
        <ele>327.59399414062</ele>
        <time>2020-05-12T13:03:09Z</time>
      </trkpt>
      <trkpt lat="46.51373" lon="4.5365">
        <ele>327.59399414062</ele>
        <time>2020-05-12T13:03:14Z</time>
      </trkpt>
      <trkpt lat="46.5138" lon="4.53651">
        <ele>326.59399414062</ele>
        <time>2020-05-12T13:03:19Z</time>
      </trkpt>
      <trkpt lat="46.51386" lon="4.53652">
        <ele>324.59399414062</ele>
        <time>2020-05-12T13:03:25Z</time>
      </trkpt>
      <trkpt lat="46.51394" lon="4.53648">
        <ele>324.59399414062</ele>
        <time>2020-05-12T13:03:30Z</time>
      </trkpt>
      <trkpt lat="46.51401" lon="4.53644">
        <ele>323.59399414062</ele>
        <time>2020-05-12T13:03:36Z</time>
      </trkpt>
      <trkpt lat="46.51408" lon="4.53645">
        <ele>320.59399414062</ele>
        <time>2020-05-12T13:03:43Z</time>
      </trkpt>
      <trkpt lat="46.51415" lon="4.53644">
        <ele>315.59399414062</ele>
        <time>2020-05-12T13:03:51Z</time>
      </trkpt>
      <trkpt lat="46.51422" lon="4.53643">
        <ele>316.59399414062</ele>
        <time>2020-05-12T13:03:56Z</time>
      </trkpt>
      <trkpt lat="46.51429" lon="4.53643">
        <ele>318.59399414062</ele>
        <time>2020-05-12T13:04:01Z</time>
      </trkpt>
      <trkpt lat="46.51435" lon="4.53637">
        <ele>318.59399414062</ele>
        <time>2020-05-12T13:04:07Z</time>
      </trkpt>
      <trkpt lat="46.51441" lon="4.53631">
        <ele>317.59399414062</ele>
        <time>2020-05-12T13:04:12Z</time>
      </trkpt>
      <trkpt lat="46.51445" lon="4.53623">
        <ele>318.59399414062</ele>
        <time>2020-05-12T13:04:18Z</time>
      </trkpt>
      <trkpt lat="46.51448" lon="4.53615">
        <ele>317.59399414062</ele>
        <time>2020-05-12T13:04:25Z</time>
      </trkpt>
      <trkpt lat="46.5145" lon="4.53605">
        <ele>318.59399414062</ele>
        <time>2020-05-12T13:04:31Z</time>
      </trkpt>
      <trkpt lat="46.51452" lon="4.53595">
        <ele>314.59399414062</ele>
        <time>2020-05-12T13:04:37Z</time>
      </trkpt>
      <trkpt lat="46.51452" lon="4.53585">
        <ele>312.59399414062</ele>
        <time>2020-05-12T13:04:43Z</time>
      </trkpt>
      <trkpt lat="46.51455" lon="4.53574">
        <ele>309.59399414062</ele>
        <time>2020-05-12T13:04:48Z</time>
      </trkpt>
      <trkpt lat="46.51455" lon="4.53559">
        <ele>312.59399414062</ele>
        <time>2020-05-12T13:04:53Z</time>
      </trkpt>
      <trkpt lat="46.51451" lon="4.53551">
        <ele>312.59399414062</ele>
        <time>2020-05-12T13:05:01Z</time>
      </trkpt>
      <trkpt lat="46.51449" lon="4.5354">
        <ele>310.59399414062</ele>
        <time>2020-05-12T13:05:07Z</time>
      </trkpt>
      <trkpt lat="46.5145" lon="4.53529">
        <ele>315.59399414062</ele>
        <time>2020-05-12T13:05:12Z</time>
      </trkpt>
      <trkpt lat="46.51453" lon="4.53519">
        <ele>318.59399414062</ele>
        <time>2020-05-12T13:07:09Z</time>
      </trkpt>
      <trkpt lat="46.51459" lon="4.53525">
        <ele>307.59399414062</ele>
        <time>2020-05-12T13:07:16Z</time>
      </trkpt>
      <trkpt lat="46.51466" lon="4.53527">
        <ele>307.59399414062</ele>
        <time>2020-05-12T13:07:21Z</time>
      </trkpt>
      <trkpt lat="46.51473" lon="4.53529">
        <ele>300.59399414062</ele>
        <time>2020-05-12T13:07:31Z</time>
      </trkpt>
      <trkpt lat="46.51478" lon="4.53535">
        <ele>299.59399414062</ele>
        <time>2020-05-12T13:07:37Z</time>
      </trkpt>
      <trkpt lat="46.51485" lon="4.53539">
        <ele>297.59399414062</ele>
        <time>2020-05-12T13:07:47Z</time>
      </trkpt>
      <trkpt lat="46.51492" lon="4.53541">
        <ele>296.59399414062</ele>
        <time>2020-05-12T13:07:52Z</time>
      </trkpt>
      <trkpt lat="46.51499" lon="4.53541">
        <ele>299.59399414062</ele>
        <time>2020-05-12T13:07:57Z</time>
      </trkpt>
      <trkpt lat="46.5151" lon="4.53543">
        <ele>302.59399414062</ele>
        <time>2020-05-12T13:08:02Z</time>
      </trkpt>
      <trkpt lat="46.51516" lon="4.53549">
        <ele>299.59399414062</ele>
        <time>2020-05-12T13:08:07Z</time>
      </trkpt>
      <trkpt lat="46.51523" lon="4.53554">
        <ele>295.59399414062</ele>
        <time>2020-05-12T13:08:13Z</time>
      </trkpt>
      <trkpt lat="46.51531" lon="4.53555">
        <ele>295.59399414062</ele>
        <time>2020-05-12T13:08:18Z</time>
      </trkpt>
      <trkpt lat="46.51541" lon="4.53558">
        <ele>296.59399414062</ele>
        <time>2020-05-12T13:08:23Z</time>
      </trkpt>
      <trkpt lat="46.51548" lon="4.53559">
        <ele>297.59399414062</ele>
        <time>2020-05-12T13:08:29Z</time>
      </trkpt>
      <trkpt lat="46.51555" lon="4.53559">
        <ele>298.59399414062</ele>
        <time>2020-05-12T13:08:38Z</time>
      </trkpt>
      <trkpt lat="46.51562" lon="4.5356">
        <ele>299.59399414062</ele>
        <time>2020-05-12T13:08:45Z</time>
      </trkpt>
      <trkpt lat="46.51571" lon="4.53566">
        <ele>306.59399414062</ele>
        <time>2020-05-12T13:08:55Z</time>
      </trkpt>
      <trkpt lat="46.51577" lon="4.53569">
        <ele>302.59399414062</ele>
        <time>2020-05-12T13:09:02Z</time>
      </trkpt>
      <trkpt lat="46.51584" lon="4.53575">
        <ele>295.5950012207</ele>
        <time>2020-05-12T13:09:07Z</time>
      </trkpt>
      <trkpt lat="46.51594" lon="4.53577">
        <ele>297.5950012207</ele>
        <time>2020-05-12T13:09:12Z</time>
      </trkpt>
      <trkpt lat="46.51603" lon="4.53577">
        <ele>299.5950012207</ele>
        <time>2020-05-12T13:09:17Z</time>
      </trkpt>
      <trkpt lat="46.5161" lon="4.53578">
        <ele>302.5950012207</ele>
        <time>2020-05-12T13:09:22Z</time>
      </trkpt>
      <trkpt lat="46.51618" lon="4.53585">
        <ele>301.5950012207</ele>
        <time>2020-05-12T13:09:27Z</time>
      </trkpt>
      <trkpt lat="46.51627" lon="4.53588">
        <ele>302.5950012207</ele>
        <time>2020-05-12T13:09:32Z</time>
      </trkpt>
      <trkpt lat="46.51635" lon="4.53589">
        <ele>303.5950012207</ele>
        <time>2020-05-12T13:09:37Z</time>
      </trkpt>
      <trkpt lat="46.51642" lon="4.53592">
        <ele>303.5950012207</ele>
        <time>2020-05-12T13:09:42Z</time>
      </trkpt>
      <trkpt lat="46.5165" lon="4.53592">
        <ele>305.5950012207</ele>
        <time>2020-05-12T13:09:47Z</time>
      </trkpt>
      <trkpt lat="46.51656" lon="4.53596">
        <ele>300.5950012207</ele>
        <time>2020-05-12T13:09:53Z</time>
      </trkpt>
      <trkpt lat="46.51663" lon="4.53597">
        <ele>302.5950012207</ele>
        <time>2020-05-12T13:09:58Z</time>
      </trkpt>
      <trkpt lat="46.51671" lon="4.536">
        <ele>306.5950012207</ele>
        <time>2020-05-12T13:10:03Z</time>
      </trkpt>
      <trkpt lat="46.51679" lon="4.53603">
        <ele>305.5950012207</ele>
        <time>2020-05-12T13:10:08Z</time>
      </trkpt>
      <trkpt lat="46.51687" lon="4.53607">
        <ele>305.5950012207</ele>
        <time>2020-05-12T13:10:13Z</time>
      </trkpt>
      <trkpt lat="46.51692" lon="4.53613">
        <ele>309.5950012207</ele>
        <time>2020-05-12T13:10:19Z</time>
      </trkpt>
      <trkpt lat="46.51699" lon="4.53616">
        <ele>308.5950012207</ele>
        <time>2020-05-12T13:10:25Z</time>
      </trkpt>
      <trkpt lat="46.51707" lon="4.53618">
        <ele>309.5950012207</ele>
        <time>2020-05-12T13:10:30Z</time>
      </trkpt>
      <trkpt lat="46.51714" lon="4.53622">
        <ele>307.5950012207</ele>
        <time>2020-05-12T13:10:36Z</time>
      </trkpt>
      <trkpt lat="46.51721" lon="4.53622">
        <ele>309.5950012207</ele>
        <time>2020-05-12T13:10:42Z</time>
      </trkpt>
      <trkpt lat="46.51727" lon="4.53625">
        <ele>307.5950012207</ele>
        <time>2020-05-12T13:10:47Z</time>
      </trkpt>
      <trkpt lat="46.51735" lon="4.53626">
        <ele>306.5950012207</ele>
        <time>2020-05-12T13:10:54Z</time>
      </trkpt>
      <trkpt lat="46.51742" lon="4.53626">
        <ele>306.5950012207</ele>
        <time>2020-05-12T13:11:00Z</time>
      </trkpt>
      <trkpt lat="46.51749" lon="4.53627">
        <ele>307.5950012207</ele>
        <time>2020-05-12T13:11:05Z</time>
      </trkpt>
      <trkpt lat="46.51758" lon="4.53632">
        <ele>304.5950012207</ele>
        <time>2020-05-12T13:11:10Z</time>
      </trkpt>
      <trkpt lat="46.51765" lon="4.53637">
        <ele>302.5950012207</ele>
        <time>2020-05-12T13:11:16Z</time>
      </trkpt>
      <trkpt lat="46.51771" lon="4.53641">
        <ele>302.5950012207</ele>
        <time>2020-05-12T13:11:21Z</time>
      </trkpt>
      <trkpt lat="46.51776" lon="4.53647">
        <ele>299.5950012207</ele>
        <time>2020-05-12T13:11:27Z</time>
      </trkpt>
      <trkpt lat="46.51783" lon="4.53652">
        <ele>302.5950012207</ele>
        <time>2020-05-12T13:11:32Z</time>
      </trkpt>
      <trkpt lat="46.5179" lon="4.53652">
        <ele>301.5950012207</ele>
        <time>2020-05-12T13:11:39Z</time>
      </trkpt>
      <trkpt lat="46.51797" lon="4.53652">
        <ele>301.5950012207</ele>
        <time>2020-05-12T13:11:45Z</time>
      </trkpt>
      <trkpt lat="46.51804" lon="4.53656">
        <ele>298.5950012207</ele>
        <time>2020-05-12T13:11:51Z</time>
      </trkpt>
      <trkpt lat="46.5181" lon="4.5366">
        <ele>297.5950012207</ele>
        <time>2020-05-12T13:11:56Z</time>
      </trkpt>
      <trkpt lat="46.51816" lon="4.53662">
        <ele>295.5950012207</ele>
        <time>2020-05-12T13:12:02Z</time>
      </trkpt>
      <trkpt lat="46.51822" lon="4.53666">
        <ele>294.5950012207</ele>
        <time>2020-05-12T13:12:09Z</time>
      </trkpt>
      <trkpt lat="46.51829" lon="4.53669">
        <ele>294.5950012207</ele>
        <time>2020-05-12T13:12:16Z</time>
      </trkpt>
      <trkpt lat="46.51836" lon="4.53675">
        <ele>295.5950012207</ele>
        <time>2020-05-12T13:12:22Z</time>
      </trkpt>
      <trkpt lat="46.51847" lon="4.53681">
        <ele>295.5950012207</ele>
        <time>2020-05-12T13:12:27Z</time>
      </trkpt>
      <trkpt lat="46.51854" lon="4.53684">
        <ele>296.5950012207</ele>
        <time>2020-05-12T13:12:33Z</time>
      </trkpt>
      <trkpt lat="46.51862" lon="4.5368">
        <ele>300.5950012207</ele>
        <time>2020-05-12T13:12:38Z</time>
      </trkpt>
      <trkpt lat="46.51869" lon="4.53681">
        <ele>302.5950012207</ele>
        <time>2020-05-12T13:12:44Z</time>
      </trkpt>
      <trkpt lat="46.51877" lon="4.53686">
        <ele>299.5950012207</ele>
        <time>2020-05-12T13:12:49Z</time>
      </trkpt>
      <trkpt lat="46.51883" lon="4.5369">
        <ele>299.5950012207</ele>
        <time>2020-05-12T13:12:54Z</time>
      </trkpt>
      <trkpt lat="46.5189" lon="4.53694">
        <ele>301.5950012207</ele>
        <time>2020-05-12T13:13:00Z</time>
      </trkpt>
      <trkpt lat="46.51897" lon="4.53697">
        <ele>301.5950012207</ele>
        <time>2020-05-12T13:13:06Z</time>
      </trkpt>
      <trkpt lat="46.51904" lon="4.5369">
        <ele>304.5950012207</ele>
        <time>2020-05-12T13:13:12Z</time>
      </trkpt>
      <trkpt lat="46.51906" lon="4.53681">
        <ele>300.5950012207</ele>
        <time>2020-05-12T13:13:19Z</time>
      </trkpt>
      <trkpt lat="46.51909" lon="4.53672">
        <ele>299.5950012207</ele>
        <time>2020-05-12T13:13:24Z</time>
      </trkpt>
      <trkpt lat="46.5191" lon="4.53662">
        <ele>295.5950012207</ele>
        <time>2020-05-12T13:13:32Z</time>
      </trkpt>
      <trkpt lat="46.5191" lon="4.53651">
        <ele>298.5950012207</ele>
        <time>2020-05-12T13:13:37Z</time>
      </trkpt>
      <trkpt lat="46.51913" lon="4.53641">
        <ele>299.5950012207</ele>
        <time>2020-05-12T13:13:42Z</time>
      </trkpt>
      <trkpt lat="46.51915" lon="4.53628">
        <ele>303.5950012207</ele>
        <time>2020-05-12T13:13:47Z</time>
      </trkpt>
      <trkpt lat="46.51917" lon="4.53615">
        <ele>304.5950012207</ele>
        <time>2020-05-12T13:13:54Z</time>
      </trkpt>
      <trkpt lat="46.51919" lon="4.53606">
        <ele>306.5950012207</ele>
        <time>2020-05-12T13:13:59Z</time>
      </trkpt>
      <trkpt lat="46.51921" lon="4.53595">
        <ele>305.5950012207</ele>
        <time>2020-05-12T13:14:05Z</time>
      </trkpt>
      <trkpt lat="46.51922" lon="4.53586">
        <ele>306.5950012207</ele>
        <time>2020-05-12T13:14:14Z</time>
      </trkpt>
      <trkpt lat="46.51925" lon="4.53575">
        <ele>306.5950012207</ele>
        <time>2020-05-12T13:14:19Z</time>
      </trkpt>
      <trkpt lat="46.51928" lon="4.53566">
        <ele>305.5950012207</ele>
        <time>2020-05-12T13:14:25Z</time>
      </trkpt>
      <trkpt lat="46.51931" lon="4.53557">
        <ele>302.5950012207</ele>
        <time>2020-05-12T13:14:30Z</time>
      </trkpt>
      <trkpt lat="46.51936" lon="4.5355">
        <ele>299.5950012207</ele>
        <time>2020-05-12T13:14:36Z</time>
      </trkpt>
      <trkpt lat="46.51939" lon="4.5353">
        <ele>305.5950012207</ele>
        <time>2020-05-12T13:14:41Z</time>
      </trkpt>
      <trkpt lat="46.51944" lon="4.53521">
        <ele>299.5950012207</ele>
        <time>2020-05-12T13:14:47Z</time>
      </trkpt>
      <trkpt lat="46.51949" lon="4.53514">
        <ele>295.5950012207</ele>
        <time>2020-05-12T13:14:55Z</time>
      </trkpt>
      <trkpt lat="46.51955" lon="4.5351">
        <ele>290.5950012207</ele>
        <time>2020-05-12T13:15:01Z</time>
      </trkpt>
      <trkpt lat="46.5196" lon="4.53504">
        <ele>289.5950012207</ele>
        <time>2020-05-12T13:15:06Z</time>
      </trkpt>
      <trkpt lat="46.51967" lon="4.53504">
        <ele>280.59600830078</ele>
        <time>2020-05-12T13:15:15Z</time>
      </trkpt>
      <trkpt lat="46.51973" lon="4.53495">
        <ele>281.59600830078</ele>
        <time>2020-05-12T13:15:20Z</time>
      </trkpt>
      <trkpt lat="46.51979" lon="4.53487">
        <ele>280.59600830078</ele>
        <time>2020-05-12T13:15:25Z</time>
      </trkpt>
      <trkpt lat="46.51985" lon="4.53479">
        <ele>279.59600830078</ele>
        <time>2020-05-12T13:15:31Z</time>
      </trkpt>
      <trkpt lat="46.5199" lon="4.53472">
        <ele>280.59600830078</ele>
        <time>2020-05-12T13:15:36Z</time>
      </trkpt>
      <trkpt lat="46.51996" lon="4.53463">
        <ele>280.59600830078</ele>
        <time>2020-05-12T13:15:43Z</time>
      </trkpt>
      <trkpt lat="46.52005" lon="4.5345">
        <ele>282.59600830078</ele>
        <time>2020-05-12T13:15:48Z</time>
      </trkpt>
      <trkpt lat="46.5201" lon="4.53439">
        <ele>285.59600830078</ele>
        <time>2020-05-12T13:15:53Z</time>
      </trkpt>
      <trkpt lat="46.52012" lon="4.53428">
        <ele>286.59600830078</ele>
        <time>2020-05-12T13:15:58Z</time>
      </trkpt>
      <trkpt lat="46.5202" lon="4.53425">
        <ele>284.59600830078</ele>
        <time>2020-05-12T13:16:09Z</time>
      </trkpt>
      <trkpt lat="46.52026" lon="4.53427">
        <ele>279.59600830078</ele>
        <time>2020-05-12T13:16:15Z</time>
      </trkpt>
      <trkpt lat="46.52033" lon="4.53428">
        <ele>277.59600830078</ele>
        <time>2020-05-12T13:16:21Z</time>
      </trkpt>
      <trkpt lat="46.52039" lon="4.53424">
        <ele>277.59600830078</ele>
        <time>2020-05-12T13:16:29Z</time>
      </trkpt>
      <trkpt lat="46.52047" lon="4.53422">
        <ele>277.59600830078</ele>
        <time>2020-05-12T13:16:34Z</time>
      </trkpt>
      <trkpt lat="46.52055" lon="4.53418">
        <ele>277.59600830078</ele>
        <time>2020-05-12T13:16:39Z</time>
      </trkpt>
      <trkpt lat="46.52063" lon="4.53415">
        <ele>277.59600830078</ele>
        <time>2020-05-12T13:16:44Z</time>
      </trkpt>
      <trkpt lat="46.5207" lon="4.53413">
        <ele>276.59600830078</ele>
        <time>2020-05-12T13:16:51Z</time>
      </trkpt>
      <trkpt lat="46.52078" lon="4.53409">
        <ele>274.59600830078</ele>
        <time>2020-05-12T13:16:59Z</time>
      </trkpt>
      <trkpt lat="46.52085" lon="4.53407">
        <ele>268.59600830078</ele>
        <time>2020-05-12T13:17:07Z</time>
      </trkpt>
      <trkpt lat="46.52092" lon="4.53406">
        <ele>267.59600830078</ele>
        <time>2020-05-12T13:17:15Z</time>
      </trkpt>
      <trkpt lat="46.521" lon="4.53408">
        <ele>265.59600830078</ele>
        <time>2020-05-12T13:17:21Z</time>
      </trkpt>
      <trkpt lat="46.52107" lon="4.53406">
        <ele>263.59600830078</ele>
        <time>2020-05-12T13:17:27Z</time>
      </trkpt>
      <trkpt lat="46.52114" lon="4.53406">
        <ele>265.59600830078</ele>
        <time>2020-05-12T13:17:33Z</time>
      </trkpt>
      <trkpt lat="46.52124" lon="4.53408">
        <ele>266.59600830078</ele>
        <time>2020-05-12T13:17:38Z</time>
      </trkpt>
      <trkpt lat="46.5213" lon="4.53408">
        <ele>265.59600830078</ele>
        <time>2020-05-12T13:17:43Z</time>
      </trkpt>
      <trkpt lat="46.52137" lon="4.53408">
        <ele>266.59600830078</ele>
        <time>2020-05-12T13:17:48Z</time>
      </trkpt>
      <trkpt lat="46.52145" lon="4.53407">
        <ele>265.59600830078</ele>
        <time>2020-05-12T13:17:55Z</time>
      </trkpt>
      <trkpt lat="46.52152" lon="4.53405">
        <ele>267.59600830078</ele>
        <time>2020-05-12T13:18:02Z</time>
      </trkpt>
      <trkpt lat="46.5216" lon="4.53405">
        <ele>272.59600830078</ele>
        <time>2020-05-12T13:18:09Z</time>
      </trkpt>
      <trkpt lat="46.5217" lon="4.53407">
        <ele>268.59600830078</ele>
        <time>2020-05-12T13:18:17Z</time>
      </trkpt>
      <trkpt lat="46.52176" lon="4.53407">
        <ele>263.59600830078</ele>
        <time>2020-05-12T13:18:22Z</time>
      </trkpt>
      <trkpt lat="46.52184" lon="4.53409">
        <ele>262.59600830078</ele>
        <time>2020-05-12T13:18:30Z</time>
      </trkpt>
      <trkpt lat="46.52192" lon="4.53408">
        <ele>259.59600830078</ele>
        <time>2020-05-12T13:18:35Z</time>
      </trkpt>
      <trkpt lat="46.52199" lon="4.53408">
        <ele>261.59600830078</ele>
        <time>2020-05-12T13:18:41Z</time>
      </trkpt>
      <trkpt lat="46.52206" lon="4.53406">
        <ele>256.59600830078</ele>
        <time>2020-05-12T13:18:48Z</time>
      </trkpt>
      <trkpt lat="46.52213" lon="4.53404">
        <ele>255.59599304199</ele>
        <time>2020-05-12T13:18:54Z</time>
      </trkpt>
      <trkpt lat="46.5222" lon="4.53402">
        <ele>255.59599304199</ele>
        <time>2020-05-12T13:19:01Z</time>
      </trkpt>
      <trkpt lat="46.52227" lon="4.53402">
        <ele>258.59600830078</ele>
        <time>2020-05-12T13:19:06Z</time>
      </trkpt>
      <trkpt lat="46.52238" lon="4.53401">
        <ele>257.59600830078</ele>
        <time>2020-05-12T13:19:11Z</time>
      </trkpt>
      <trkpt lat="46.52246" lon="4.53398">
        <ele>259.59600830078</ele>
        <time>2020-05-12T13:19:17Z</time>
      </trkpt>
      <trkpt lat="46.52252" lon="4.53398">
        <ele>260.59600830078</ele>
        <time>2020-05-12T13:19:22Z</time>
      </trkpt>
      <trkpt lat="46.5226" lon="4.53399">
        <ele>259.59600830078</ele>
        <time>2020-05-12T13:19:27Z</time>
      </trkpt>
      <trkpt lat="46.52266" lon="4.53405">
        <ele>256.59600830078</ele>
        <time>2020-05-12T13:19:32Z</time>
      </trkpt>
      <trkpt lat="46.52273" lon="4.53406">
        <ele>258.59600830078</ele>
        <time>2020-05-12T13:19:38Z</time>
      </trkpt>
      <trkpt lat="46.5228" lon="4.53407">
        <ele>257.59600830078</ele>
        <time>2020-05-12T13:19:46Z</time>
      </trkpt>
      <trkpt lat="46.52287" lon="4.53406">
        <ele>253.59599304199</ele>
        <time>2020-05-12T13:19:52Z</time>
      </trkpt>
      <trkpt lat="46.52293" lon="4.53409">
        <ele>252.59599304199</ele>
        <time>2020-05-12T13:19:58Z</time>
      </trkpt>
      <trkpt lat="46.52301" lon="4.53409">
        <ele>253.59599304199</ele>
        <time>2020-05-12T13:20:05Z</time>
      </trkpt>
      <trkpt lat="46.52308" lon="4.53409">
        <ele>251.59599304199</ele>
        <time>2020-05-12T13:20:10Z</time>
      </trkpt>
      <trkpt lat="46.52316" lon="4.53413">
        <ele>245.59599304199</ele>
        <time>2020-05-12T13:20:15Z</time>
      </trkpt>
      <trkpt lat="46.52323" lon="4.53415">
        <ele>245.59599304199</ele>
        <time>2020-05-12T13:20:20Z</time>
      </trkpt>
      <trkpt lat="46.52332" lon="4.53417">
        <ele>246.59599304199</ele>
        <time>2020-05-12T13:20:25Z</time>
      </trkpt>
      <trkpt lat="46.52339" lon="4.53418">
        <ele>250.59599304199</ele>
        <time>2020-05-12T13:20:30Z</time>
      </trkpt>
      <trkpt lat="46.52346" lon="4.53418">
        <ele>251.59599304199</ele>
        <time>2020-05-12T13:20:37Z</time>
      </trkpt>
      <trkpt lat="46.52352" lon="4.5342">
        <ele>254.59599304199</ele>
        <time>2020-05-12T13:20:45Z</time>
      </trkpt>
      <trkpt lat="46.52363" lon="4.53422">
        <ele>258.59698486328</ele>
        <time>2020-05-12T13:20:50Z</time>
      </trkpt>
      <trkpt lat="46.52372" lon="4.53423">
        <ele>255.59700012207</ele>
        <time>2020-05-12T13:20:57Z</time>
      </trkpt>
      <trkpt lat="46.5238" lon="4.53422">
        <ele>258.59698486328</ele>
        <time>2020-05-12T13:21:04Z</time>
      </trkpt>
      <trkpt lat="46.52389" lon="4.53422">
        <ele>258.59698486328</ele>
        <time>2020-05-12T13:21:09Z</time>
      </trkpt>
      <trkpt lat="46.52396" lon="4.53424">
        <ele>253.59700012207</ele>
        <time>2020-05-12T13:21:15Z</time>
      </trkpt>
      <trkpt lat="46.52405" lon="4.53425">
        <ele>252.59700012207</ele>
        <time>2020-05-12T13:21:20Z</time>
      </trkpt>
      <trkpt lat="46.52412" lon="4.53429">
        <ele>249.59700012207</ele>
        <time>2020-05-12T13:21:26Z</time>
      </trkpt>
      <trkpt lat="46.52419" lon="4.5343">
        <ele>249.59700012207</ele>
        <time>2020-05-12T13:21:31Z</time>
      </trkpt>
      <trkpt lat="46.52426" lon="4.53435">
        <ele>247.59700012207</ele>
        <time>2020-05-12T13:21:36Z</time>
      </trkpt>
      <trkpt lat="46.52433" lon="4.5344">
        <ele>250.59700012207</ele>
        <time>2020-05-12T13:21:41Z</time>
      </trkpt>
      <trkpt lat="46.52439" lon="4.53446">
        <ele>249.59700012207</ele>
        <time>2020-05-12T13:21:49Z</time>
      </trkpt>
      <trkpt lat="46.52445" lon="4.53452">
        <ele>246.59700012207</ele>
        <time>2020-05-12T13:21:57Z</time>
      </trkpt>
      <trkpt lat="46.5245" lon="4.53459">
        <ele>240.59700012207</ele>
        <time>2020-05-12T13:22:05Z</time>
      </trkpt>
      <trkpt lat="46.52453" lon="4.53468">
        <ele>236.59700012207</ele>
        <time>2020-05-12T13:22:11Z</time>
      </trkpt>
      <trkpt lat="46.52457" lon="4.53476">
        <ele>235.59700012207</ele>
        <time>2020-05-12T13:22:19Z</time>
      </trkpt>
      <trkpt lat="46.52464" lon="4.53477">
        <ele>239.59700012207</ele>
        <time>2020-05-12T13:22:24Z</time>
      </trkpt>
      <trkpt lat="46.52473" lon="4.53479">
        <ele>246.59700012207</ele>
        <time>2020-05-12T13:22:29Z</time>
      </trkpt>
      <trkpt lat="46.5248" lon="4.53482">
        <ele>249.59700012207</ele>
        <time>2020-05-12T13:22:38Z</time>
      </trkpt>
      <trkpt lat="46.52488" lon="4.53482">
        <ele>248.59700012207</ele>
        <time>2020-05-12T13:22:44Z</time>
      </trkpt>
      <trkpt lat="46.52496" lon="4.53481">
        <ele>246.59700012207</ele>
        <time>2020-05-12T13:22:50Z</time>
      </trkpt>
      <trkpt lat="46.52504" lon="4.53477">
        <ele>245.59700012207</ele>
        <time>2020-05-12T13:22:55Z</time>
      </trkpt>
      <trkpt lat="46.52511" lon="4.53476">
        <ele>249.59700012207</ele>
        <time>2020-05-12T13:23:02Z</time>
      </trkpt>
      <trkpt lat="46.52522" lon="4.53476">
        <ele>247.59700012207</ele>
        <time>2020-05-12T13:23:09Z</time>
      </trkpt>
      <trkpt lat="46.52529" lon="4.53477">
        <ele>250.59700012207</ele>
        <time>2020-05-12T13:23:17Z</time>
      </trkpt>
      <trkpt lat="46.52536" lon="4.53478">
        <ele>248.59700012207</ele>
        <time>2020-05-12T13:23:30Z</time>
      </trkpt>
      <trkpt lat="46.52543" lon="4.53479">
        <ele>248.59700012207</ele>
        <time>2020-05-12T13:23:35Z</time>
      </trkpt>
      <trkpt lat="46.52549" lon="4.53475">
        <ele>246.59700012207</ele>
        <time>2020-05-12T13:23:42Z</time>
      </trkpt>
      <trkpt lat="46.52556" lon="4.53476">
        <ele>245.59700012207</ele>
        <time>2020-05-12T13:23:47Z</time>
      </trkpt>
      <trkpt lat="46.52566" lon="4.53476">
        <ele>247.59700012207</ele>
        <time>2020-05-12T13:23:53Z</time>
      </trkpt>
      <trkpt lat="46.52573" lon="4.53474">
        <ele>248.59700012207</ele>
        <time>2020-05-12T13:23:58Z</time>
      </trkpt>
      <trkpt lat="46.5258" lon="4.53472">
        <ele>250.59700012207</ele>
        <time>2020-05-12T13:24:03Z</time>
      </trkpt>
      <trkpt lat="46.52587" lon="4.53468">
        <ele>254.59700012207</ele>
        <time>2020-05-12T13:24:09Z</time>
      </trkpt>
      <trkpt lat="46.52593" lon="4.53467">
        <ele>258.59698486328</ele>
        <time>2020-05-12T13:24:15Z</time>
      </trkpt>
      <trkpt lat="46.526" lon="4.53468">
        <ele>254.59700012207</ele>
        <time>2020-05-12T13:24:23Z</time>
      </trkpt>
      <trkpt lat="46.52607" lon="4.53463">
        <ele>256.59698486328</ele>
        <time>2020-05-12T13:24:31Z</time>
      </trkpt>
      <trkpt lat="46.52614" lon="4.53467">
        <ele>252.59700012207</ele>
        <time>2020-05-12T13:24:36Z</time>
      </trkpt>
      <trkpt lat="46.52624" lon="4.53466">
        <ele>254.59700012207</ele>
        <time>2020-05-12T13:24:41Z</time>
      </trkpt>
      <trkpt lat="46.52634" lon="4.53468">
        <ele>258.59698486328</ele>
        <time>2020-05-12T13:24:46Z</time>
      </trkpt>
      <trkpt lat="46.52641" lon="4.53469">
        <ele>256.59698486328</ele>
        <time>2020-05-12T13:24:53Z</time>
      </trkpt>
      <trkpt lat="46.52649" lon="4.5347">
        <ele>250.59700012207</ele>
        <time>2020-05-12T13:25:00Z</time>
      </trkpt>
      <trkpt lat="46.52656" lon="4.53475">
        <ele>252.59700012207</ele>
        <time>2020-05-12T13:25:09Z</time>
      </trkpt>
      <trkpt lat="46.52663" lon="4.53474">
        <ele>253.59700012207</ele>
        <time>2020-05-12T13:25:14Z</time>
      </trkpt>
      <trkpt lat="46.52673" lon="4.53473">
        <ele>251.59700012207</ele>
        <time>2020-05-12T13:25:20Z</time>
      </trkpt>
      <trkpt lat="46.52681" lon="4.53469">
        <ele>254.59700012207</ele>
        <time>2020-05-12T13:25:25Z</time>
      </trkpt>
      <trkpt lat="46.52689" lon="4.53472">
        <ele>254.59700012207</ele>
        <time>2020-05-12T13:25:30Z</time>
      </trkpt>
      <trkpt lat="46.52696" lon="4.5347">
        <ele>253.59700012207</ele>
        <time>2020-05-12T13:25:35Z</time>
      </trkpt>
      <trkpt lat="46.52706" lon="4.53473">
        <ele>252.59800720215</ele>
        <time>2020-05-12T13:25:41Z</time>
      </trkpt>
      <trkpt lat="46.52714" lon="4.53474">
        <ele>249.59800720215</ele>
        <time>2020-05-12T13:25:49Z</time>
      </trkpt>
      <trkpt lat="46.52722" lon="4.53473">
        <ele>249.59800720215</ele>
        <time>2020-05-12T13:25:54Z</time>
      </trkpt>
      <trkpt lat="46.52728" lon="4.53472">
        <ele>247.59800720215</ele>
        <time>2020-05-12T13:25:59Z</time>
      </trkpt>
      <trkpt lat="46.52736" lon="4.53477">
        <ele>245.59800720215</ele>
        <time>2020-05-12T13:26:04Z</time>
      </trkpt>
      <trkpt lat="46.52742" lon="4.53479">
        <ele>242.59800720215</ele>
        <time>2020-05-12T13:26:11Z</time>
      </trkpt>
      <trkpt lat="46.52751" lon="4.53478">
        <ele>246.59800720215</ele>
        <time>2020-05-12T13:26:16Z</time>
      </trkpt>
      <trkpt lat="46.52758" lon="4.53479">
        <ele>245.59800720215</ele>
        <time>2020-05-12T13:26:27Z</time>
      </trkpt>
      <trkpt lat="46.52766" lon="4.53476">
        <ele>247.59800720215</ele>
        <time>2020-05-12T13:26:32Z</time>
      </trkpt>
      <trkpt lat="46.52773" lon="4.53473">
        <ele>252.59800720215</ele>
        <time>2020-05-12T13:26:39Z</time>
      </trkpt>
      <trkpt lat="46.52781" lon="4.53477">
        <ele>252.59800720215</ele>
        <time>2020-05-12T13:26:44Z</time>
      </trkpt>
      <trkpt lat="46.5279" lon="4.53479">
        <ele>251.59800720215</ele>
        <time>2020-05-12T13:26:49Z</time>
      </trkpt>
      <trkpt lat="46.52797" lon="4.5348">
        <ele>250.59800720215</ele>
        <time>2020-05-12T13:26:54Z</time>
      </trkpt>
      <trkpt lat="46.52806" lon="4.53484">
        <ele>249.59800720215</ele>
        <time>2020-05-12T13:26:59Z</time>
      </trkpt>
      <trkpt lat="46.52814" lon="4.53488">
        <ele>251.59800720215</ele>
        <time>2020-05-12T13:27:04Z</time>
      </trkpt>
      <trkpt lat="46.52822" lon="4.53491">
        <ele>250.59800720215</ele>
        <time>2020-05-12T13:27:09Z</time>
      </trkpt>
      <trkpt lat="46.52829" lon="4.53496">
        <ele>250.59800720215</ele>
        <time>2020-05-12T13:27:15Z</time>
      </trkpt>
      <trkpt lat="46.52835" lon="4.535">
        <ele>250.59800720215</ele>
        <time>2020-05-12T13:27:21Z</time>
      </trkpt>
      <trkpt lat="46.52841" lon="4.53506">
        <ele>245.59800720215</ele>
        <time>2020-05-12T13:27:29Z</time>
      </trkpt>
      <trkpt lat="46.52849" lon="4.53512">
        <ele>244.59800720215</ele>
        <time>2020-05-12T13:27:36Z</time>
      </trkpt>
      <trkpt lat="46.52856" lon="4.53517">
        <ele>246.59800720215</ele>
        <time>2020-05-12T13:27:41Z</time>
      </trkpt>
      <trkpt lat="46.52863" lon="4.53518">
        <ele>245.59800720215</ele>
        <time>2020-05-12T13:27:49Z</time>
      </trkpt>
      <trkpt lat="46.52871" lon="4.5352">
        <ele>240.59800720215</ele>
        <time>2020-05-12T13:27:56Z</time>
      </trkpt>
      <trkpt lat="46.52878" lon="4.53522">
        <ele>241.59800720215</ele>
        <time>2020-05-12T13:28:08Z</time>
      </trkpt>
      <trkpt lat="46.52884" lon="4.53527">
        <ele>240.59800720215</ele>
        <time>2020-05-12T13:28:16Z</time>
      </trkpt>
      <trkpt lat="46.52891" lon="4.53532">
        <ele>243.59800720215</ele>
        <time>2020-05-12T13:28:28Z</time>
      </trkpt>
      <trkpt lat="46.52896" lon="4.53539">
        <ele>237.59800720215</ele>
        <time>2020-05-12T13:28:35Z</time>
      </trkpt>
      <trkpt lat="46.52903" lon="4.53543">
        <ele>237.59800720215</ele>
        <time>2020-05-12T13:28:43Z</time>
      </trkpt>
      <trkpt lat="46.5291" lon="4.53548">
        <ele>232.59800720215</ele>
        <time>2020-05-12T13:28:49Z</time>
      </trkpt>
      <trkpt lat="46.52916" lon="4.53546">
        <ele>234.59800720215</ele>
        <time>2020-05-12T13:28:57Z</time>
      </trkpt>
      <trkpt lat="46.52924" lon="4.53548">
        <ele>234.59800720215</ele>
        <time>2020-05-12T13:29:02Z</time>
      </trkpt>
      <trkpt lat="46.52932" lon="4.53549">
        <ele>236.59800720215</ele>
        <time>2020-05-12T13:29:07Z</time>
      </trkpt>
      <trkpt lat="46.52941" lon="4.53549">
        <ele>238.59800720215</ele>
        <time>2020-05-12T13:29:16Z</time>
      </trkpt>
      <trkpt lat="46.52949" lon="4.53547">
        <ele>240.59800720215</ele>
        <time>2020-05-12T13:29:21Z</time>
      </trkpt>
      <trkpt lat="46.52957" lon="4.53543">
        <ele>242.59800720215</ele>
        <time>2020-05-12T13:29:26Z</time>
      </trkpt>
      <trkpt lat="46.52965" lon="4.53541">
        <ele>245.59800720215</ele>
        <time>2020-05-12T13:29:31Z</time>
      </trkpt>
      <trkpt lat="46.52971" lon="4.53544">
        <ele>245.59800720215</ele>
        <time>2020-05-12T13:29:39Z</time>
      </trkpt>
      <trkpt lat="46.52979" lon="4.53541">
        <ele>248.59800720215</ele>
        <time>2020-05-12T13:29:49Z</time>
      </trkpt>
      <trkpt lat="46.52985" lon="4.53536">
        <ele>247.59800720215</ele>
        <time>2020-05-12T13:29:56Z</time>
      </trkpt>
      <trkpt lat="46.5299" lon="4.53529">
        <ele>245.59800720215</ele>
        <time>2020-05-12T13:30:05Z</time>
      </trkpt>
      <trkpt lat="46.52996" lon="4.53525">
        <ele>246.59800720215</ele>
        <time>2020-05-12T13:30:11Z</time>
      </trkpt>
      <trkpt lat="46.53002" lon="4.53522">
        <ele>245.59800720215</ele>
        <time>2020-05-12T13:30:19Z</time>
      </trkpt>
      <trkpt lat="46.53008" lon="4.53515">
        <ele>247.59800720215</ele>
        <time>2020-05-12T13:30:26Z</time>
      </trkpt>
      <trkpt lat="46.53015" lon="4.53511">
        <ele>250.59800720215</ele>
        <time>2020-05-12T13:30:39Z</time>
      </trkpt>
      <trkpt lat="46.53022" lon="4.53515">
        <ele>249.59800720215</ele>
        <time>2020-05-12T13:30:46Z</time>
      </trkpt>
      <trkpt lat="46.53029" lon="4.53515">
        <ele>248.59800720215</ele>
        <time>2020-05-12T13:30:52Z</time>
      </trkpt>
      <trkpt lat="46.53035" lon="4.53517">
        <ele>249.59800720215</ele>
        <time>2020-05-12T13:31:01Z</time>
      </trkpt>
      <trkpt lat="46.53042" lon="4.5352">
        <ele>248.59800720215</ele>
        <time>2020-05-12T13:31:06Z</time>
      </trkpt>
      <trkpt lat="46.53048" lon="4.53521">
        <ele>248.59800720215</ele>
        <time>2020-05-12T13:31:11Z</time>
      </trkpt>
      <trkpt lat="46.53055" lon="4.53524">
        <ele>249.59800720215</ele>
        <time>2020-05-12T13:31:18Z</time>
      </trkpt>
      <trkpt lat="46.53062" lon="4.53526">
        <ele>247.59899902344</ele>
        <time>2020-05-12T13:31:23Z</time>
      </trkpt>
      <trkpt lat="46.53069" lon="4.53527">
        <ele>252.59899902344</ele>
        <time>2020-05-12T13:31:29Z</time>
      </trkpt>
      <trkpt lat="46.53076" lon="4.53529">
        <ele>251.59899902344</ele>
        <time>2020-05-12T13:31:35Z</time>
      </trkpt>
      <trkpt lat="46.53082" lon="4.5353">
        <ele>251.59899902344</ele>
        <time>2020-05-12T13:31:41Z</time>
      </trkpt>
      <trkpt lat="46.53089" lon="4.53532">
        <ele>250.59899902344</ele>
        <time>2020-05-12T13:31:47Z</time>
      </trkpt>
      <trkpt lat="46.53095" lon="4.53535">
        <ele>250.59899902344</ele>
        <time>2020-05-12T13:31:57Z</time>
      </trkpt>
      <trkpt lat="46.53107" lon="4.53535">
        <ele>248.59899902344</ele>
        <time>2020-05-12T13:32:02Z</time>
      </trkpt>
      <trkpt lat="46.53113" lon="4.53537">
        <ele>249.59899902344</ele>
        <time>2020-05-12T13:32:09Z</time>
      </trkpt>
      <trkpt lat="46.53121" lon="4.53542">
        <ele>241.59899902344</ele>
        <time>2020-05-12T13:32:14Z</time>
      </trkpt>
      <trkpt lat="46.53127" lon="4.53548">
        <ele>239.59899902344</ele>
        <time>2020-05-12T13:32:24Z</time>
      </trkpt>
      <trkpt lat="46.53135" lon="4.53551">
        <ele>242.59899902344</ele>
        <time>2020-05-12T13:32:31Z</time>
      </trkpt>
      <trkpt lat="46.53141" lon="4.53555">
        <ele>242.59899902344</ele>
        <time>2020-05-12T13:32:36Z</time>
      </trkpt>
      <trkpt lat="46.53147" lon="4.53559">
        <ele>244.59899902344</ele>
        <time>2020-05-12T13:32:44Z</time>
      </trkpt>
      <trkpt lat="46.53155" lon="4.53561">
        <ele>242.59899902344</ele>
        <time>2020-05-12T13:32:49Z</time>
      </trkpt>
      <trkpt lat="46.53162" lon="4.53563">
        <ele>244.59899902344</ele>
        <time>2020-05-12T13:32:54Z</time>
      </trkpt>
      <trkpt lat="46.53169" lon="4.53566">
        <ele>247.59899902344</ele>
        <time>2020-05-12T13:33:00Z</time>
      </trkpt>
      <trkpt lat="46.53176" lon="4.53569">
        <ele>247.59899902344</ele>
        <time>2020-05-12T13:33:05Z</time>
      </trkpt>
      <trkpt lat="46.53184" lon="4.53569">
        <ele>250.59899902344</ele>
        <time>2020-05-12T13:33:12Z</time>
      </trkpt>
      <trkpt lat="46.53191" lon="4.53572">
        <ele>248.59899902344</ele>
        <time>2020-05-12T13:33:17Z</time>
      </trkpt>
      <trkpt lat="46.53198" lon="4.53574">
        <ele>252.59899902344</ele>
        <time>2020-05-12T13:33:23Z</time>
      </trkpt>
      <trkpt lat="46.53205" lon="4.53576">
        <ele>254.59899902344</ele>
        <time>2020-05-12T13:33:30Z</time>
      </trkpt>
      <trkpt lat="46.53212" lon="4.53579">
        <ele>254.59899902344</ele>
        <time>2020-05-12T13:33:35Z</time>
      </trkpt>
      <trkpt lat="46.53219" lon="4.53578">
        <ele>255.59899902344</ele>
        <time>2020-05-12T13:33:40Z</time>
      </trkpt>
      <trkpt lat="46.53227" lon="4.53579">
        <ele>254.59899902344</ele>
        <time>2020-05-12T13:33:46Z</time>
      </trkpt>
      <trkpt lat="46.53234" lon="4.53579">
        <ele>250.59899902344</ele>
        <time>2020-05-12T13:33:51Z</time>
      </trkpt>
      <trkpt lat="46.53241" lon="4.53575">
        <ele>252.59899902344</ele>
        <time>2020-05-12T13:33:57Z</time>
      </trkpt>
      <trkpt lat="46.53248" lon="4.53571">
        <ele>254.59899902344</ele>
        <time>2020-05-12T13:34:05Z</time>
      </trkpt>
      <trkpt lat="46.53256" lon="4.53572">
        <ele>252.59899902344</ele>
        <time>2020-05-12T13:34:11Z</time>
      </trkpt>
      <trkpt lat="46.53263" lon="4.53573">
        <ele>250.59899902344</ele>
        <time>2020-05-12T13:34:16Z</time>
      </trkpt>
      <trkpt lat="46.53269" lon="4.53568">
        <ele>250.59899902344</ele>
        <time>2020-05-12T13:34:22Z</time>
      </trkpt>
      <trkpt lat="46.53275" lon="4.53565">
        <ele>249.59899902344</ele>
        <time>2020-05-12T13:34:29Z</time>
      </trkpt>
      <trkpt lat="46.53279" lon="4.53556">
        <ele>250.59899902344</ele>
        <time>2020-05-12T13:34:34Z</time>
      </trkpt>
      <trkpt lat="46.53283" lon="4.53548">
        <ele>251.59899902344</ele>
        <time>2020-05-12T13:34:39Z</time>
      </trkpt>
      <trkpt lat="46.5329" lon="4.53542">
        <ele>248.59899902344</ele>
        <time>2020-05-12T13:34:45Z</time>
      </trkpt>
      <trkpt lat="46.53297" lon="4.53538">
        <ele>243.59899902344</ele>
        <time>2020-05-12T13:34:53Z</time>
      </trkpt>
      <trkpt lat="46.53302" lon="4.53531">
        <ele>243.59899902344</ele>
        <time>2020-05-12T13:34:58Z</time>
      </trkpt>
      <trkpt lat="46.53309" lon="4.53528">
        <ele>246.59899902344</ele>
        <time>2020-05-12T13:35:05Z</time>
      </trkpt>
      <trkpt lat="46.53317" lon="4.53526">
        <ele>244.59899902344</ele>
        <time>2020-05-12T13:35:10Z</time>
      </trkpt>
      <trkpt lat="46.53324" lon="4.53525">
        <ele>245.59899902344</ele>
        <time>2020-05-12T13:35:15Z</time>
      </trkpt>
      <trkpt lat="46.53332" lon="4.53521">
        <ele>246.59899902344</ele>
        <time>2020-05-12T13:35:21Z</time>
      </trkpt>
      <trkpt lat="46.53339" lon="4.5352">
        <ele>247.59899902344</ele>
        <time>2020-05-12T13:35:26Z</time>
      </trkpt>
      <trkpt lat="46.53345" lon="4.53522">
        <ele>248.59899902344</ele>
        <time>2020-05-12T13:35:32Z</time>
      </trkpt>
      <trkpt lat="46.53352" lon="4.53524">
        <ele>248.59899902344</ele>
        <time>2020-05-12T13:35:37Z</time>
      </trkpt>
      <trkpt lat="46.53358" lon="4.53529">
        <ele>246.59899902344</ele>
        <time>2020-05-12T13:35:44Z</time>
      </trkpt>
      <trkpt lat="46.53365" lon="4.53532">
        <ele>247.59899902344</ele>
        <time>2020-05-12T13:35:49Z</time>
      </trkpt>
      <trkpt lat="46.53371" lon="4.53538">
        <ele>245.59899902344</ele>
        <time>2020-05-12T13:35:55Z</time>
      </trkpt>
      <trkpt lat="46.53378" lon="4.53541">
        <ele>244.59899902344</ele>
        <time>2020-05-12T13:36:01Z</time>
      </trkpt>
      <trkpt lat="46.53383" lon="4.53549">
        <ele>245.59899902344</ele>
        <time>2020-05-12T13:36:07Z</time>
      </trkpt>
      <trkpt lat="46.53392" lon="4.53554">
        <ele>246.59899902344</ele>
        <time>2020-05-12T13:36:12Z</time>
      </trkpt>
      <trkpt lat="46.53398" lon="4.53559">
        <ele>245.59899902344</ele>
        <time>2020-05-12T13:36:17Z</time>
      </trkpt>
      <trkpt lat="46.53404" lon="4.53564">
        <ele>248.59899902344</ele>
        <time>2020-05-12T13:36:22Z</time>
      </trkpt>
      <trkpt lat="46.53411" lon="4.5357">
        <ele>249.60000610352</ele>
        <time>2020-05-12T13:36:27Z</time>
      </trkpt>
      <trkpt lat="46.53418" lon="4.53574">
        <ele>250.60000610352</ele>
        <time>2020-05-12T13:36:32Z</time>
      </trkpt>
      <trkpt lat="46.53425" lon="4.53577">
        <ele>250.60000610352</ele>
        <time>2020-05-12T13:36:37Z</time>
      </trkpt>
      <trkpt lat="46.53431" lon="4.53581">
        <ele>251.60000610352</ele>
        <time>2020-05-12T13:36:43Z</time>
      </trkpt>
      <trkpt lat="46.53438" lon="4.53585">
        <ele>254.60000610352</ele>
        <time>2020-05-12T13:36:49Z</time>
      </trkpt>
      <trkpt lat="46.53444" lon="4.5359">
        <ele>254.60000610352</ele>
        <time>2020-05-12T13:36:55Z</time>
      </trkpt>
      <trkpt lat="46.5345" lon="4.53594">
        <ele>255.60000610352</ele>
        <time>2020-05-12T13:37:00Z</time>
      </trkpt>
      <trkpt lat="46.53456" lon="4.536">
        <ele>254.60000610352</ele>
        <time>2020-05-12T13:37:06Z</time>
      </trkpt>
      <trkpt lat="46.53464" lon="4.53603">
        <ele>251.60000610352</ele>
        <time>2020-05-12T13:37:12Z</time>
      </trkpt>
      <trkpt lat="46.53472" lon="4.53603">
        <ele>250.60000610352</ele>
        <time>2020-05-12T13:37:18Z</time>
      </trkpt>
      <trkpt lat="46.53479" lon="4.53606">
        <ele>249.60000610352</ele>
        <time>2020-05-12T13:37:24Z</time>
      </trkpt>
      <trkpt lat="46.53486" lon="4.53608">
        <ele>250.60000610352</ele>
        <time>2020-05-12T13:37:29Z</time>
      </trkpt>
      <trkpt lat="46.53493" lon="4.53611">
        <ele>250.60000610352</ele>
        <time>2020-05-12T13:37:34Z</time>
      </trkpt>
      <trkpt lat="46.535" lon="4.53614">
        <ele>250.60000610352</ele>
        <time>2020-05-12T13:37:39Z</time>
      </trkpt>
      <trkpt lat="46.53507" lon="4.53617">
        <ele>250.60000610352</ele>
        <time>2020-05-12T13:37:45Z</time>
      </trkpt>
      <trkpt lat="46.53513" lon="4.5362">
        <ele>247.60000610352</ele>
        <time>2020-05-12T13:37:51Z</time>
      </trkpt>
      <trkpt lat="46.5352" lon="4.53625">
        <ele>248.60000610352</ele>
        <time>2020-05-12T13:37:56Z</time>
      </trkpt>
      <trkpt lat="46.53529" lon="4.53628">
        <ele>247.60000610352</ele>
        <time>2020-05-12T13:38:01Z</time>
      </trkpt>
      <trkpt lat="46.53536" lon="4.53633">
        <ele>248.60000610352</ele>
        <time>2020-05-12T13:38:07Z</time>
      </trkpt>
      <trkpt lat="46.53542" lon="4.53635">
        <ele>247.60000610352</ele>
        <time>2020-05-12T13:38:12Z</time>
      </trkpt>
      <trkpt lat="46.53549" lon="4.53641">
        <ele>245.60000610352</ele>
        <time>2020-05-12T13:38:18Z</time>
      </trkpt>
      <trkpt lat="46.53557" lon="4.53645">
        <ele>245.60000610352</ele>
        <time>2020-05-12T13:38:24Z</time>
      </trkpt>
      <trkpt lat="46.53563" lon="4.5365">
        <ele>244.60000610352</ele>
        <time>2020-05-12T13:38:31Z</time>
      </trkpt>
      <trkpt lat="46.53569" lon="4.53655">
        <ele>246.60000610352</ele>
        <time>2020-05-12T13:38:36Z</time>
      </trkpt>
      <trkpt lat="46.53575" lon="4.53659">
        <ele>245.60000610352</ele>
        <time>2020-05-12T13:38:41Z</time>
      </trkpt>
      <trkpt lat="46.53583" lon="4.53662">
        <ele>244.60000610352</ele>
        <time>2020-05-12T13:38:46Z</time>
      </trkpt>
      <trkpt lat="46.5359" lon="4.53666">
        <ele>245.60000610352</ele>
        <time>2020-05-12T13:38:51Z</time>
      </trkpt>
      <trkpt lat="46.53596" lon="4.53671">
        <ele>245.60000610352</ele>
        <time>2020-05-12T13:38:58Z</time>
      </trkpt>
      <trkpt lat="46.53604" lon="4.53672">
        <ele>243.60000610352</ele>
        <time>2020-05-12T13:39:04Z</time>
      </trkpt>
      <trkpt lat="46.53611" lon="4.53671">
        <ele>244.60000610352</ele>
        <time>2020-05-12T13:39:09Z</time>
      </trkpt>
      <trkpt lat="46.53621" lon="4.53672">
        <ele>244.60000610352</ele>
        <time>2020-05-12T13:39:14Z</time>
      </trkpt>
      <trkpt lat="46.53628" lon="4.53674">
        <ele>244.60000610352</ele>
        <time>2020-05-12T13:39:19Z</time>
      </trkpt>
      <trkpt lat="46.53634" lon="4.53678">
        <ele>243.60000610352</ele>
        <time>2020-05-12T13:39:24Z</time>
      </trkpt>
      <trkpt lat="46.5364" lon="4.53684">
        <ele>241.60000610352</ele>
        <time>2020-05-12T13:39:30Z</time>
      </trkpt>
      <trkpt lat="46.53646" lon="4.5369">
        <ele>239.60000610352</ele>
        <time>2020-05-12T13:39:36Z</time>
      </trkpt>
      <trkpt lat="46.53653" lon="4.53694">
        <ele>238.60000610352</ele>
        <time>2020-05-12T13:39:45Z</time>
      </trkpt>
      <trkpt lat="46.53659" lon="4.53698">
        <ele>238.60000610352</ele>
        <time>2020-05-12T13:39:50Z</time>
      </trkpt>
      <trkpt lat="46.53667" lon="4.53699">
        <ele>240.60000610352</ele>
        <time>2020-05-12T13:39:55Z</time>
      </trkpt>
      <trkpt lat="46.53675" lon="4.537">
        <ele>242.60000610352</ele>
        <time>2020-05-12T13:40:00Z</time>
      </trkpt>
      <trkpt lat="46.53682" lon="4.537">
        <ele>245.60000610352</ele>
        <time>2020-05-12T13:40:06Z</time>
      </trkpt>
      <trkpt lat="46.53689" lon="4.53702">
        <ele>239.60000610352</ele>
        <time>2020-05-12T13:40:14Z</time>
      </trkpt>
      <trkpt lat="46.53696" lon="4.53698">
        <ele>239.60000610352</ele>
        <time>2020-05-12T13:40:20Z</time>
      </trkpt>
      <trkpt lat="46.53706" lon="4.53696">
        <ele>240.60000610352</ele>
        <time>2020-05-12T13:40:25Z</time>
      </trkpt>
      <trkpt lat="46.53713" lon="4.53693">
        <ele>241.60000610352</ele>
        <time>2020-05-12T13:40:30Z</time>
      </trkpt>
      <trkpt lat="46.53719" lon="4.53692">
        <ele>243.60000610352</ele>
        <time>2020-05-12T13:40:36Z</time>
      </trkpt>
      <trkpt lat="46.53727" lon="4.53693">
        <ele>239.60000610352</ele>
        <time>2020-05-12T13:40:42Z</time>
      </trkpt>
      <trkpt lat="46.53736" lon="4.5369">
        <ele>238.60000610352</ele>
        <time>2020-05-12T13:40:47Z</time>
      </trkpt>
      <trkpt lat="46.53743" lon="4.53687">
        <ele>239.60000610352</ele>
        <time>2020-05-12T13:40:53Z</time>
      </trkpt>
      <trkpt lat="46.53749" lon="4.53683">
        <ele>241.6009979248</ele>
        <time>2020-05-12T13:40:59Z</time>
      </trkpt>
      <trkpt lat="46.53755" lon="4.53676">
        <ele>240.6009979248</ele>
        <time>2020-05-12T13:41:05Z</time>
      </trkpt>
      <trkpt lat="46.5376" lon="4.53669">
        <ele>241.6009979248</ele>
        <time>2020-05-12T13:41:13Z</time>
      </trkpt>
      <trkpt lat="46.53767" lon="4.53666">
        <ele>241.6009979248</ele>
        <time>2020-05-12T13:41:18Z</time>
      </trkpt>
      <trkpt lat="46.53771" lon="4.53658">
        <ele>242.6009979248</ele>
        <time>2020-05-12T13:41:24Z</time>
      </trkpt>
      <trkpt lat="46.53777" lon="4.53652">
        <ele>243.6009979248</ele>
        <time>2020-05-12T13:41:29Z</time>
      </trkpt>
      <trkpt lat="46.53782" lon="4.53644">
        <ele>243.6009979248</ele>
        <time>2020-05-12T13:41:35Z</time>
      </trkpt>
      <trkpt lat="46.53787" lon="4.53636">
        <ele>243.6009979248</ele>
        <time>2020-05-12T13:41:40Z</time>
      </trkpt>
      <trkpt lat="46.53792" lon="4.53629">
        <ele>241.6009979248</ele>
        <time>2020-05-12T13:41:45Z</time>
      </trkpt>
      <trkpt lat="46.53794" lon="4.53617">
        <ele>238.6009979248</ele>
        <time>2020-05-12T13:41:50Z</time>
      </trkpt>
      <trkpt lat="46.53797" lon="4.53608">
        <ele>237.6009979248</ele>
        <time>2020-05-12T13:41:56Z</time>
      </trkpt>
      <trkpt lat="46.53801" lon="4.53599">
        <ele>235.6009979248</ele>
        <time>2020-05-12T13:42:02Z</time>
      </trkpt>
      <trkpt lat="46.53804" lon="4.5359">
        <ele>234.6009979248</ele>
        <time>2020-05-12T13:42:07Z</time>
      </trkpt>
      <trkpt lat="46.53808" lon="4.53582">
        <ele>237.6009979248</ele>
        <time>2020-05-12T13:42:12Z</time>
      </trkpt>
      <trkpt lat="46.53816" lon="4.53578">
        <ele>235.6009979248</ele>
        <time>2020-05-12T13:42:17Z</time>
      </trkpt>
      <trkpt lat="46.53822" lon="4.53574">
        <ele>236.6009979248</ele>
        <time>2020-05-12T13:42:24Z</time>
      </trkpt>
      <trkpt lat="46.5383" lon="4.53573">
        <ele>235.6009979248</ele>
        <time>2020-05-12T13:42:29Z</time>
      </trkpt>
      <trkpt lat="46.53838" lon="4.53575">
        <ele>235.6009979248</ele>
        <time>2020-05-12T13:42:34Z</time>
      </trkpt>
      <trkpt lat="46.53846" lon="4.53574">
        <ele>233.6009979248</ele>
        <time>2020-05-12T13:42:39Z</time>
      </trkpt>
      <trkpt lat="46.53853" lon="4.53572">
        <ele>230.6009979248</ele>
        <time>2020-05-12T13:42:44Z</time>
      </trkpt>
      <trkpt lat="46.53859" lon="4.53571">
        <ele>229.6009979248</ele>
        <time>2020-05-12T13:42:50Z</time>
      </trkpt>
      <trkpt lat="46.53865" lon="4.53565">
        <ele>229.6009979248</ele>
        <time>2020-05-12T13:42:56Z</time>
      </trkpt>
      <trkpt lat="46.53871" lon="4.5356">
        <ele>231.6009979248</ele>
        <time>2020-05-12T13:43:01Z</time>
      </trkpt>
      <trkpt lat="46.53879" lon="4.53556">
        <ele>230.6009979248</ele>
        <time>2020-05-12T13:43:06Z</time>
      </trkpt>
      <trkpt lat="46.53885" lon="4.5355">
        <ele>230.6009979248</ele>
        <time>2020-05-12T13:43:11Z</time>
      </trkpt>
      <trkpt lat="46.53891" lon="4.53545">
        <ele>229.6009979248</ele>
        <time>2020-05-12T13:43:16Z</time>
      </trkpt>
      <trkpt lat="46.53897" lon="4.5354">
        <ele>231.6009979248</ele>
        <time>2020-05-12T13:43:21Z</time>
      </trkpt>
      <trkpt lat="46.53904" lon="4.53535">
        <ele>232.6009979248</ele>
        <time>2020-05-12T13:43:27Z</time>
      </trkpt>
      <trkpt lat="46.53911" lon="4.53532">
        <ele>231.6009979248</ele>
        <time>2020-05-12T13:43:33Z</time>
      </trkpt>
      <trkpt lat="46.53918" lon="4.53528">
        <ele>231.6009979248</ele>
        <time>2020-05-12T13:43:38Z</time>
      </trkpt>
      <trkpt lat="46.53925" lon="4.53524">
        <ele>230.6009979248</ele>
        <time>2020-05-12T13:43:43Z</time>
      </trkpt>
      <trkpt lat="46.53931" lon="4.53524">
        <ele>231.6009979248</ele>
        <time>2020-05-12T13:43:49Z</time>
      </trkpt>
      <trkpt lat="46.53938" lon="4.53518">
        <ele>231.6009979248</ele>
        <time>2020-05-12T13:43:55Z</time>
      </trkpt>
      <trkpt lat="46.53942" lon="4.53509">
        <ele>231.6009979248</ele>
        <time>2020-05-12T13:44:00Z</time>
      </trkpt>
      <trkpt lat="46.53945" lon="4.53501">
        <ele>233.6009979248</ele>
        <time>2020-05-12T13:44:05Z</time>
      </trkpt>
      <trkpt lat="46.53949" lon="4.53491">
        <ele>235.6009979248</ele>
        <time>2020-05-12T13:44:11Z</time>
      </trkpt>
      <trkpt lat="46.53953" lon="4.53482">
        <ele>235.6009979248</ele>
        <time>2020-05-12T13:44:18Z</time>
      </trkpt>
      <trkpt lat="46.53956" lon="4.53473">
        <ele>235.6009979248</ele>
        <time>2020-05-12T13:44:24Z</time>
      </trkpt>
      <trkpt lat="46.53959" lon="4.53463">
        <ele>233.6009979248</ele>
        <time>2020-05-12T13:44:31Z</time>
      </trkpt>
      <trkpt lat="46.53963" lon="4.53455">
        <ele>233.6009979248</ele>
        <time>2020-05-12T13:44:38Z</time>
      </trkpt>
      <trkpt lat="46.53966" lon="4.53446">
        <ele>233.6009979248</ele>
        <time>2020-05-12T13:44:44Z</time>
      </trkpt>
      <trkpt lat="46.53963" lon="4.53437">
        <ele>235.6009979248</ele>
        <time>2020-05-12T13:44:49Z</time>
      </trkpt>
      <trkpt lat="46.53956" lon="4.53433">
        <ele>237.6009979248</ele>
        <time>2020-05-12T13:44:55Z</time>
      </trkpt>
      <trkpt lat="46.53949" lon="4.53431">
        <ele>237.6009979248</ele>
        <time>2020-05-12T13:45:00Z</time>
      </trkpt>
      <trkpt lat="46.53942" lon="4.53427">
        <ele>235.6009979248</ele>
        <time>2020-05-12T13:45:06Z</time>
      </trkpt>
      <trkpt lat="46.53935" lon="4.53423">
        <ele>237.6009979248</ele>
        <time>2020-05-12T13:45:11Z</time>
      </trkpt>
      <trkpt lat="46.53928" lon="4.53419">
        <ele>235.6009979248</ele>
        <time>2020-05-12T13:45:17Z</time>
      </trkpt>
      <trkpt lat="46.5392" lon="4.53417">
        <ele>235.6009979248</ele>
        <time>2020-05-12T13:45:22Z</time>
      </trkpt>
      <trkpt lat="46.53914" lon="4.53412">
        <ele>233.6009979248</ele>
        <time>2020-05-12T13:45:27Z</time>
      </trkpt>
      <trkpt lat="46.53907" lon="4.53409">
        <ele>234.6009979248</ele>
        <time>2020-05-12T13:45:32Z</time>
      </trkpt>
      <trkpt lat="46.539" lon="4.53405">
        <ele>238.6009979248</ele>
        <time>2020-05-12T13:45:37Z</time>
      </trkpt>
      <trkpt lat="46.53893" lon="4.53401">
        <ele>240.6009979248</ele>
        <time>2020-05-12T13:45:42Z</time>
      </trkpt>
      <trkpt lat="46.53886" lon="4.53397">
        <ele>238.6009979248</ele>
        <time>2020-05-12T13:45:48Z</time>
      </trkpt>
      <trkpt lat="46.5388" lon="4.53395">
        <ele>237.6009979248</ele>
        <time>2020-05-12T13:45:53Z</time>
      </trkpt>
      <trkpt lat="46.53872" lon="4.53391">
        <ele>238.6009979248</ele>
        <time>2020-05-12T13:45:58Z</time>
      </trkpt>
      <trkpt lat="46.53865" lon="4.53391">
        <ele>241.6009979248</ele>
        <time>2020-05-12T13:46:03Z</time>
      </trkpt>
      <trkpt lat="46.53858" lon="4.53388">
        <ele>240.6009979248</ele>
        <time>2020-05-12T13:46:08Z</time>
      </trkpt>
      <trkpt lat="46.53851" lon="4.53385">
        <ele>239.6009979248</ele>
        <time>2020-05-12T13:46:13Z</time>
      </trkpt>
      <trkpt lat="46.53845" lon="4.53381">
        <ele>240.6009979248</ele>
        <time>2020-05-12T13:46:18Z</time>
      </trkpt>
      <trkpt lat="46.53837" lon="4.53376">
        <ele>240.6009979248</ele>
        <time>2020-05-12T13:46:24Z</time>
      </trkpt>
      <trkpt lat="46.5383" lon="4.53373">
        <ele>242.6009979248</ele>
        <time>2020-05-12T13:46:29Z</time>
      </trkpt>
      <trkpt lat="46.53824" lon="4.53367">
        <ele>242.60000610352</ele>
        <time>2020-05-12T13:46:34Z</time>
      </trkpt>
      <trkpt lat="46.53817" lon="4.53362">
        <ele>242.60000610352</ele>
        <time>2020-05-12T13:46:39Z</time>
      </trkpt>
      <trkpt lat="46.53811" lon="4.53358">
        <ele>242.60000610352</ele>
        <time>2020-05-12T13:46:45Z</time>
      </trkpt>
      <trkpt lat="46.53804" lon="4.53353">
        <ele>240.60000610352</ele>
        <time>2020-05-12T13:46:51Z</time>
      </trkpt>
      <trkpt lat="46.53798" lon="4.53347">
        <ele>239.60000610352</ele>
        <time>2020-05-12T13:46:56Z</time>
      </trkpt>
      <trkpt lat="46.53791" lon="4.53342">
        <ele>240.60000610352</ele>
        <time>2020-05-12T13:47:01Z</time>
      </trkpt>
      <trkpt lat="46.53784" lon="4.53339">
        <ele>242.60000610352</ele>
        <time>2020-05-12T13:47:06Z</time>
      </trkpt>
      <trkpt lat="46.53778" lon="4.53335">
        <ele>240.60000610352</ele>
        <time>2020-05-12T13:47:12Z</time>
      </trkpt>
      <trkpt lat="46.53772" lon="4.53332">
        <ele>239.60000610352</ele>
        <time>2020-05-12T13:47:17Z</time>
      </trkpt>
      <trkpt lat="46.53765" lon="4.53328">
        <ele>242.60000610352</ele>
        <time>2020-05-12T13:47:22Z</time>
      </trkpt>
      <trkpt lat="46.53771" lon="4.53333">
        <ele>239.60000610352</ele>
        <time>2020-05-12T13:49:09Z</time>
      </trkpt>
      <trkpt lat="46.53774" lon="4.53343">
        <ele>240.60000610352</ele>
        <time>2020-05-12T13:49:30Z</time>
      </trkpt>
      <trkpt lat="46.53776" lon="4.53353">
        <ele>238.60000610352</ele>
        <time>2020-05-12T13:52:28Z</time>
      </trkpt>
      <trkpt lat="46.53778" lon="4.53362">
        <ele>240.60000610352</ele>
        <time>2020-05-12T13:52:43Z</time>
      </trkpt>
      <trkpt lat="46.53784" lon="4.53366">
        <ele>247.60000610352</ele>
        <time>2020-05-12T13:52:56Z</time>
      </trkpt>
    </trkseg>
  </trk>
</gpx>